ECMWFNIL_850_thetae_000.txt.gz
Theta_e
319 316 312 312 316 316 316 317 317 317 317 318 317 317 316 314 311 311 311 309 307 307 307 306 306 306 306 309 311 308 306 306 305 305 305 305 305 305 304 304 303 303
320 317 313 312 315 316 315 317 317 315 316 317 317 317 316 314 311 311 310 309 307 307 307 306 306 306 306 306 307 307 306 305 305 305 305 305 305 305 304 304 304 303
320 319 316 314 316 317 315 316 317 316 315 317 317 317 316 314 311 310 310 309 308 308 307 307 307 306 307 306 306 306 306 305 305 305 305 305 305 305 304 304 304 304
320 320 318 316 316 317 316 316 317 317 316 316 317 318 317 316 313 311 310 310 309 308 307 308 307 307 306 306 307 307 306 306 306 304 305 305 305 305 305 304 304 304
320 320 319 319 317 318 318 317 317 317 317 315 317 318 318 319 316 313 312 311 310 309 308 308 308 308 307 306 308 308 307 307 306 305 307 306 305 305 305 305 305 305
321 321 320 320 319 318 319 319 318 318 318 317 317 318 319 320 318 315 314 313 311 310 309 309 308 308 308 307 308 308 307 308 307 306 309 308 305 305 305 305 306 306
321 321 320 320 319 319 319 320 319 317 317 317 318 318 318 319 319 318 317 316 315 314 313 312 310 309 308 307 308 308 307 309 308 307 309 309 307 306 305 305 305 306
321 320 319 318 318 318 319 320 318 317 317 318 318 318 318 319 319 319 319 318 317 317 316 315 314 312 310 308 309 309 309 310 309 307 308 310 309 306 306 307 305 305
322 320 319 320 319 319 320 319 318 318 318 317 317 318 318 318 319 318 318 318 318 318 318 318 317 315 314 311 310 310 310 310 309 308 308 309 309 307 307 309 307 305
322 322 321 321 320 319 320 319 318 319 318 317 317 318 317 318 318 318 318 318 318 318 318 318 318 317 316 315 313 311 311 311 309 308 308 309 308 307 308 308 308 307
324 324 322 320 318 319 319 318 318 318 318 318 318 317 318 318 318 318 318 318 318 318 318 318 318 318 317 316 315 313 312 312 311 309 309 309 309 308 308 308 308 307
325 324 323 321 319 318 318 318 318 319 318 318 318 317 317 317 317 317 318 318 318 318 318 318 318 318 318 317 316 315 313 313 312 311 310 310 309 309 309 308 308 307
324 324 323 321 319 318 318 318 318 319 319 318 317 316 316 316 316 316 317 316 317 317 318 319 318 318 318 318 317 315 315 314 313 312 311 311 310 310 309 308 308 307
319 318 316 314 313 314 313 314 315 316 317 316 317 317 317 317 316 316 316 316 316 317 318 318 319 318 318 318 317 316 315 315 314 313 312 311 310 310 309 308 308 307
310 310 310 309 310 311 311 312 312 312 313 313 315 316 316 316 316 317 318 317 316 317 317 318 318 319 319 318 318 317 316 315 314 314 313 312 311 310 309 308 307 306
309 309 309 309 311 313 312 312 312 313 313 313 314 315 314 314 315 317 318 317 316 317 318 318 318 318 319 319 318 317 316 315 315 314 314 312 311 311 310 308 307 306
309 309 309 310 311 312 312 313 314 315 315 315 315 316 315 315 316 316 316 316 317 318 319 319 319 319 319 318 318 318 316 316 315 314 313 312 311 310 309 307 306 305
308 308 308 309 310 310 310 311 312 313 314 314 315 315 315 315 315 315 315 317 319 319 320 320 320 319 317 317 318 318 317 315 314 313 313 311 310 308 307 306 305 305
307 308 309 309 309 309 307 306 307 310 313 313 315 315 314 314 314 313 312 313 317 320 320 320 320 319 318 317 318 317 316 315 314 313 312 311 309 307 306 305 305 305
308 309 309 309 308 307 305 305 306 309 311 312 314 313 313 313 313 313 310 308 312 318 319 319 320 319 318 318 318 317 316 315 314 313 312 310 308 306 306 306 306 306
308 309 308 307 306 306 306 306 307 308 309 311 313 313 313 313 313 314 312 309 310 315 318 318 319 318 318 318 317 317 316 314 313 313 311 308 307 306 306 306 305 304
309 308 308 307 306 306 306 307 308 308 309 310 312 313 313 313 312 313 314 312 311 311 313 316 318 317 317 317 316 316 315 313 313 312 310 308 307 305 305 305 304 303
308 308 308 308 307 306 307 307 306 306 307 309 311 312 313 313 313 312 313 313 314 311 310 314 316 316 316 316 315 315 314 312 312 311 309 306 305 304 304 304 303 303
307 308 308 308 307 307 307 306 305 305 306 308 309 311 312 312 313 313 312 313 313 312 311 313 315 315 315 315 314 314 313 311 311 310 307 304 304 304 303 303 302 302
306 307 307 307 307 308 307 306 304 304 306 307 309 310 312 312 312 312 312 312 312 311 311 313 313 313 314 314 314 314 313 310 308 307 305 303 303 303 302 302 302 301
306 306 307 307 308 308 308 307 305 303 303 306 308 309 311 311 311 311 312 312 311 310 311 312 312 312 312 312 312 312 312 309 305 304 304 303 302 302 301 301 301 301

ECMWFNIL_850_thetae_003.txt.gz
Theta_e
318 314 312 314 313 312 314 312 310 312 313 313 311 309 309 308 307 307 307 307 307 306 307 306 306 307 307 307 306 306 306 306 306 305 305 305 305 305 305 305 304 304
318 315 313 314 313 312 314 311 310 311 312 314 313 312 312 311 309 308 307 307 307 307 307 306 306 306 307 307 306 306 306 305 305 305 305 305 305 305 305 304 304 304
318 316 314 315 313 312 313 313 311 310 312 315 315 313 314 314 311 309 308 308 308 307 307 307 306 306 306 306 306 306 306 305 305 305 305 305 305 304 304 304 304 304
319 316 315 316 315 314 314 315 313 312 313 315 316 315 316 316 313 311 309 309 308 308 308 307 307 306 306 306 306 306 306 305 305 305 305 305 305 305 305 304 305 305
319 318 316 316 317 315 314 316 316 314 314 315 316 316 317 317 315 314 311 310 309 309 308 308 308 308 307 307 307 307 306 306 306 305 305 305 305 305 305 305 306 306
320 319 317 316 317 317 315 316 317 316 315 315 315 316 317 317 316 316 315 314 312 311 311 310 309 308 308 307 307 307 307 306 306 306 306 306 306 306 306 306 306 306
320 320 318 316 317 318 316 316 317 317 317 316 316 315 317 317 317 317 317 317 315 315 315 314 312 311 309 308 307 308 307 307 307 307 307 307 307 307 307 306 306 307
320 320 320 318 318 318 318 316 317 319 318 317 317 316 316 317 317 318 318 318 317 317 317 317 316 315 314 311 309 308 308 308 308 308 308 308 308 308 307 307 307 307
320 321 320 320 320 319 319 317 317 318 318 318 318 317 318 318 318 319 319 318 318 318 318 318 318 318 317 316 314 312 311 310 310 309 308 308 308 308 308 308 307 307
321 320 320 321 320 320 320 319 318 318 317 317 318 319 319 319 319 319 319 319 319 318 318 318 318 318 318 318 317 317 315 314 313 312 310 308 308 308 308 308 308 308
321 321 321 320 319 319 319 319 319 319 317 317 318 319 319 319 319 318 318 319 319 318 318 318 318 318 318 318 318 318 317 316 315 314 313 311 309 309 308 308 308 308
322 321 321 320 319 319 319 319 319 319 318 317 318 319 318 318 318 317 318 318 318 318 318 317 317 318 319 319 318 318 318 317 316 315 314 313 312 310 309 309 308 308
324 323 322 322 321 320 319 319 320 319 319 318 318 317 317 317 317 317 317 318 318 317 316 315 315 316 318 319 319 318 318 318 317 316 315 315 314 312 310 309 309 309
325 324 322 321 321 320 320 320 320 320 319 319 319 318 318 317 317 317 317 317 316 314 313 313 314 315 316 318 319 318 318 318 318 316 316 315 314 313 311 310 310 309
323 322 320 319 318 317 316 317 318 318 317 317 317 317 317 317 317 316 316 316 315 313 313 313 315 315 316 317 318 318 318 318 318 317 317 315 314 313 312 311 311 310
317 316 316 315 313 312 312 313 313 314 313 312 312 313 314 315 315 315 314 314 314 313 313 313 314 315 316 317 317 317 318 318 318 317 317 316 315 314 313 312 311 311
311 311 311 311 310 311 311 311 311 311 311 310 311 312 312 313 315 315 315 314 314 314 314 313 313 314 316 317 317 318 318 318 318 318 317 316 315 314 313 313 312 312
309 309 310 310 310 311 311 312 312 312 312 311 312 313 313 314 315 316 316 316 316 316 315 314 315 317 318 318 318 318 318 318 318 317 316 316 315 315 314 313 313 312
308 309 309 309 310 310 311 312 312 311 312 312 313 314 315 315 315 315 315 315 316 316 316 316 317 318 318 318 319 319 318 318 317 317 316 316 315 314 314 313 313 312
308 309 309 309 309 309 308 307 307 307 309 311 312 313 314 314 314 313 313 313 313 313 313 312 313 314 314 316 319 320 319 318 317 317 316 315 314 314 313 313 312 312
308 309 309 309 308 306 304 303 304 304 305 307 307 309 310 310 310 311 312 312 312 311 309 307 307 309 312 315 318 319 319 318 317 316 315 314 313 313 313 312 311 310
308 308 308 308 306 304 303 303 303 302 302 303 304 306 308 308 308 309 311 312 312 312 312 309 305 304 307 312 315 317 318 318 317 315 314 313 312 312 312 311 309 307
308 308 307 307 306 305 304 303 302 301 301 302 303 306 309 310 310 310 311 311 312 312 312 311 308 305 307 311 315 316 316 316 316 314 312 311 311 310 309 308 307 306
307 308 308 307 307 306 305 304 303 301 301 301 303 306 308 310 311 312 312 312 312 310 311 311 310 309 309 311 314 315 315 314 313 312 311 310 309 308 306 305 306 306
306 307 307 307 307 307 306 305 304 303 302 301 302 304 308 310 311 311 311 312 311 311 310 310 310 309 308 309 311 313 314 314 313 311 310 309 308 307 306 305 305 304
305 306 306 306 306 306 306 306 306 305 304 302 300 302 306 309 310 310 311 311 311 311 311 311 310 309 307 308 309 310 311 313 313 312 310 309 308 306 305 305 304 302

ECMWFNIL_850_thetae_006.txt.gz
Theta_e
316 317 315 312 310 310 311 310 307 306 306 306 306 306 306 306 306 306 306 306 306 306 306 306 306 306 306 306 306 306 306 305 305 305 305 305 305 305 304 305 304 304
317 318 316 312 311 310 311 311 308 307 307 308 308 308 307 306 306 306 306 306 306 306 306 306 306 306 306 306 306 306 305 305 305 305 305 305 305 304 304 304 304 303
316 318 317 314 311 311 311 312 311 309 309 309 309 309 308 308 308 307 307 307 306 306 306 306 306 306 306 306 306 306 305 305 305 305 305 305 305 304 304 304 304 304
317 318 318 315 313 312 312 313 313 313 313 311 310 310 309 309 309 308 308 308 307 307 307 306 307 306 306 306 306 306 306 306 305 305 305 305 306 305 305 305 305 305
317 318 318 316 314 313 313 314 314 314 315 314 313 311 311 310 311 310 310 309 308 308 308 307 307 307 307 307 306 306 306 306 307 306 306 306 307 307 307 307 307 307
318 318 318 317 315 314 314 314 314 315 315 316 314 313 312 312 313 313 312 312 310 310 310 310 309 309 308 308 307 307 307 307 307 307 307 307 307 307 307 308 308 308
319 320 318 317 316 314 314 314 315 315 315 316 315 314 314 314 314 315 315 315 314 313 314 314 313 313 312 310 310 309 308 308 307 308 308 307 308 308 307 308 308 307
319 319 318 317 316 316 315 315 315 315 315 316 316 314 315 315 316 316 316 316 316 315 315 316 316 316 316 315 315 314 313 312 310 309 309 308 308 308 308 308 308 308
319 319 318 317 316 316 316 315 316 316 315 316 316 315 316 316 316 316 317 317 316 316 316 316 317 317 317 317 317 317 317 316 316 314 313 312 310 309 308 308 308 308
320 319 318 317 316 317 317 316 316 316 316 315 316 316 316 316 317 317 317 317 317 317 316 316 317 317 317 317 317 317 317 317 318 317 317 316 314 313 311 311 310 308
321 320 319 318 317 318 318 317 317 317 316 316 316 316 316 317 318 318 318 318 317 317 316 317 317 317 316 317 316 316 317 317 318 318 318 317 317 316 314 314 313 311
321 320 320 319 318 318 318 318 319 318 317 317 316 317 317 317 319 319 319 318 317 317 317 317 317 317 316 316 315 315 316 317 318 318 318 318 317 316 316 315 315 313
320 320 320 320 319 319 318 318 318 318 318 319 318 318 318 318 319 319 319 318 317 317 317 317 317 317 316 315 315 315 315 316 317 317 317 318 317 317 316 315 315 314
321 321 320 320 319 319 318 318 318 318 318 319 319 319 319 319 318 318 319 318 318 317 317 317 317 317 315 314 313 314 314 314 313 314 317 318 317 317 317 316 315 314
320 321 321 320 319 318 317 317 317 317 318 318 318 318 318 318 317 317 317 317 318 318 318 318 318 316 314 312 313 314 314 314 313 315 317 318 317 317 317 316 315 315
319 320 320 319 318 318 317 317 317 318 318 318 318 318 317 316 316 316 316 316 317 317 316 317 316 315 314 313 315 315 315 316 316 316 317 318 318 317 317 316 315 315
319 319 319 317 318 318 317 317 317 317 317 317 317 316 315 314 314 316 316 315 315 315 314 314 314 314 314 314 315 316 316 317 317 317 317 317 318 318 317 316 315 314
316 316 316 316 317 317 315 314 314 313 314 314 314 313 312 312 312 312 312 312 313 314 315 315 315 315 314 314 314 316 317 318 318 318 317 317 318 318 317 315 314 314
311 311 311 312 314 314 312 311 310 310 310 311 312 312 312 312 312 311 311 312 313 315 315 315 316 315 315 315 315 316 317 318 319 319 319 318 318 318 317 315 314 314
309 309 309 310 311 311 310 309 309 310 310 310 311 311 311 312 313 313 313 314 314 314 314 314 314 314 314 313 312 312 312 313 315 317 319 319 318 318 317 316 315 314
308 309 309 309 309 309 310 310 310 310 310 310 310 311 312 313 314 314 314 314 313 313 313 313 312 310 309 307 306 306 306 308 312 315 317 318 318 317 316 315 314 313
308 308 308 309 309 309 309 308 306 306 306 306 307 309 311 312 312 311 311 311 311 311 311 311 310 308 306 304 303 302 302 305 309 313 316 317 317 316 315 314 313 312
307 308 309 308 309 308 306 303 302 302 303 303 303 304 304 305 306 306 306 306 307 308 309 310 310 308 306 304 303 301 302 303 305 308 311 314 315 315 314 313 312 311
306 307 307 308 308 306 304 303 302 302 302 302 302 302 303 304 304 305 306 306 306 307 308 309 310 309 307 306 305 304 303 304 305 308 310 312 313 313 312 311 309 309
307 307 307 307 307 306 306 305 304 303 302 302 302 302 302 304 305 306 307 308 308 309 309 309 309 309 309 309 308 307 306 306 307 310 312 312 312 311 310 309 309 309
307 308 308 307 307 307 306 305 305 304 304 303 303 302 301 302 304 307 308 309 310 310 310 310 309 309 310 310 310 309 308 307 307 309 311 312 311 310 310 309 309 308

ECMWFNIL_850_thetae_009.txt.gz
Theta_e
313 314 313 311 309 308 309 306 305 305 304 305 305 305 305 305 305 305 305 306 305 306 306 306 306 306 305 305 305 305 305 305 305 305 305 305 305 305 305 305 304 304
314 315 315 314 310 309 308 306 305 305 305 305 305 305 305 305 305 305 305 305 305 305 305 305 306 306 305 306 305 305 305 305 304 304 305 304 304 304 304 304 304 303
315 316 317 315 311 309 308 306 306 307 306 306 306 306 306 306 306 306 305 305 305 305 305 305 305 305 305 305 305 305 305 305 305 304 304 304 304 304 304 304 304 304
316 316 317 318 313 310 308 307 307 307 307 307 307 307 307 306 307 307 307 307 306 306 306 305 305 305 305 305 305 305 305 305 305 305 305 306 305 305 305 305 306 306
315 315 316 318 316 311 309 307 307 308 308 308 308 307 307 307 307 308 308 309 308 308 308 307 307 307 306 306 306 306 307 307 307 307 307 307 307 307 307 307 307 307
315 316 316 318 318 314 310 308 307 308 308 308 308 308 307 307 308 308 308 309 309 309 309 309 309 309 308 308 308 307 308 307 308 308 308 308 308 308 308 307 308 308
314 316 317 318 319 316 312 310 309 310 311 311 311 310 309 308 308 308 308 308 309 309 310 309 309 309 309 309 308 308 308 308 308 308 308 308 308 308 308 308 308 308
315 317 317 318 319 317 314 312 311 312 313 314 314 313 313 312 311 310 310 309 309 310 311 311 311 311 311 310 310 310 310 310 310 310 310 310 309 308 308 308 308 308
316 317 318 319 319 318 316 314 312 312 313 314 315 315 315 315 314 314 313 312 312 314 315 315 315 315 314 314 314 314 315 315 315 315 315 314 314 313 312 311 311 311
318 316 317 319 320 319 317 316 314 313 313 314 315 316 316 316 316 315 315 315 315 316 316 316 316 316 316 316 316 316 316 316 317 317 317 317 317 316 316 315 315 315
319 316 316 319 321 320 318 317 316 315 315 315 315 316 316 316 316 316 316 315 316 316 317 316 316 316 316 317 316 317 317 316 317 317 317 317 317 317 317 317 317 317
319 317 316 319 321 320 318 317 317 316 316 316 316 317 316 316 316 316 316 316 316 317 317 317 317 317 317 317 316 316 316 316 317 317 317 317 317 317 317 317 317 317
319 318 317 318 320 319 318 317 317 316 316 316 316 317 317 317 317 316 316 316 315 316 316 317 317 317 317 317 317 316 315 315 316 317 317 317 316 316 316 317 317 317
320 319 319 319 319 319 318 317 317 317 317 317 317 317 317 317 317 316 316 315 315 315 316 316 317 317 318 317 317 316 314 313 314 315 316 316 315 315 316 316 316 316
320 320 320 319 319 319 318 317 317 317 317 317 316 316 317 316 315 316 317 316 315 315 315 315 316 317 318 318 317 316 313 312 313 314 315 316 315 315 316 316 317 317
319 320 319 318 318 318 317 316 317 317 316 316 316 315 315 314 314 315 316 316 315 314 314 314 316 317 318 318 317 316 314 314 314 315 315 316 316 316 316 316 317 317
318 319 318 317 317 316 316 317 317 317 316 315 316 315 314 314 315 315 316 315 315 315 315 316 317 318 318 317 317 316 315 315 315 315 315 316 316 317 316 317 317 317
317 317 317 317 316 316 318 319 318 317 316 316 316 316 315 316 316 317 316 315 315 316 316 316 317 316 316 316 315 315 315 315 315 315 316 316 317 317 317 318 317 317
318 318 318 318 318 318 319 319 317 317 317 317 316 316 317 317 317 316 315 315 314 315 315 316 316 315 315 315 315 315 316 315 315 314 313 313 314 315 316 318 318 318
318 319 319 319 319 318 318 318 317 316 315 314 314 315 315 316 315 315 314 314 313 314 315 315 315 315 315 315 314 314 313 311 309 307 306 306 306 308 312 315 317 317
314 315 315 317 317 317 316 315 313 313 313 313 313 313 314 314 314 314 314 314 314 314 314 314 313 313 313 312 310 308 306 305 303 302 301 302 303 306 309 313 315 316
309 310 311 314 315 315 314 312 312 312 312 312 312 313 313 313 313 314 314 314 314 314 313 312 311 310 309 307 306 305 304 303 302 302 302 302 302 304 307 311 314 315
308 308 310 313 314 312 310 310 311 311 311 310 311 311 311 312 312 312 312 311 310 309 308 308 307 306 306 305 305 305 305 305 304 304 303 303 303 303 304 309 312 314
308 309 309 310 310 309 309 308 307 307 307 307 308 308 308 308 308 307 306 305 305 304 305 306 306 307 307 307 307 307 307 307 307 306 305 305 304 304 305 308 311 312
308 308 309 309 309 308 308 307 304 303 303 304 304 304 304 304 303 303 303 304 304 304 305 306 307 309 309 309 308 309 309 309 309 308 308 307 305 306 308 309 310 310
307 308 308 308 308 308 307 306 304 303 303 302 302 302 302 302 303 303 303 304 304 305 305 307 309 310 310 310 310 310 310 310 310 309 309 308 306 306 307 308 309 308

ECMWFNIL_850_thetae_012.txt.gz
Theta_e
320 320 318 314 310 308 308 308 306 305 304 304 305 305 306 307 307 306 306 305 305 305 305 305 305 305 305 305 305 305 305 304 305 305 304 305 305 305 305 304 304 304
320 319 315 312 311 310 308 308 306 304 304 304 305 305 305 306 306 305 305 305 305 305 305 305 305 305 305 304 304 304 304 304 304 304 304 304 304 304 304 303 303 304
320 316 312 310 312 313 309 307 306 304 304 305 305 305 305 305 305 305 305 305 305 305 305 305 305 305 304 304 304 304 304 304 304 304 304 304 304 304 304 305 305 306
318 315 312 311 313 316 313 308 306 305 305 305 305 305 305 305 305 305 305 305 305 305 305 305 305 305 304 304 304 304 305 305 305 305 305 305 306 306 306 307 308 309
316 314 314 312 312 315 316 311 306 305 305 305 306 305 305 306 305 305 305 306 305 305 305 305 305 305 305 305 305 305 306 307 307 308 308 308 308 308 308 309 309 310
315 314 315 314 311 314 317 313 307 306 306 306 306 306 306 306 306 306 306 306 306 305 306 305 305 305 305 305 306 306 306 307 308 308 308 308 309 309 309 309 309 310
315 314 315 314 312 314 316 315 310 307 306 306 306 306 306 306 306 306 306 306 306 306 305 306 306 306 306 306 306 306 307 307 307 307 307 307 307 308 308 308 308 309
314 315 317 315 314 315 316 317 314 309 307 307 307 307 307 307 307 307 307 307 307 306 306 306 306 306 306 306 306 307 307 307 307 307 307 307 307 307 307 307 308 308
314 317 318 315 314 315 316 317 317 313 309 307 308 308 308 307 307 307 307 307 307 307 307 306 307 307 307 307 307 308 309 311 312 311 311 311 310 309 309 308 308 309
316 318 319 316 314 315 316 317 318 316 312 309 308 310 311 311 310 308 308 308 308 308 308 308 308 307 308 308 309 310 312 315 316 316 316 316 315 315 314 313 313 312
318 319 320 317 314 315 316 316 318 318 316 313 311 311 313 314 314 312 311 310 309 310 310 311 311 311 311 312 313 313 314 315 316 316 316 317 317 317 316 316 316 315
320 319 320 318 315 315 316 317 318 319 318 316 314 313 313 314 315 316 314 313 312 311 312 312 312 312 314 315 316 316 316 315 316 316 316 316 317 317 316 316 316 316
320 320 319 317 315 316 317 317 318 319 318 317 316 315 315 315 315 316 316 315 314 313 313 313 312 312 314 316 317 316 316 316 316 316 316 316 316 316 316 316 315 315
322 322 320 318 316 317 317 317 318 320 320 318 316 316 316 315 315 316 316 316 315 315 314 314 314 314 314 316 316 316 316 316 316 317 316 315 314 315 315 315 315 315
323 322 321 319 317 317 317 317 317 319 320 318 316 315 315 315 314 315 316 316 316 315 314 314 315 315 314 314 315 317 317 317 317 317 316 314 313 314 315 315 316 316
322 322 320 319 319 318 318 318 317 319 319 318 316 315 314 314 315 315 316 316 315 314 314 315 315 314 313 312 314 316 317 317 317 317 316 315 314 314 315 315 316 316
321 320 319 318 319 319 319 319 318 318 318 317 316 315 314 314 315 315 315 315 314 313 314 315 315 314 313 313 314 316 317 317 317 316 316 316 315 315 315 315 315 316
320 319 318 318 319 319 319 319 318 318 317 316 316 316 315 315 315 315 315 315 314 314 314 315 315 315 314 314 315 316 317 317 316 315 315 315 314 313 311 310 310 312
319 318 318 318 319 319 318 318 318 317 317 317 317 317 316 315 315 315 315 315 314 315 315 315 315 315 315 315 316 316 316 315 314 314 313 311 309 306 304 304 305 306
318 318 318 318 318 318 318 318 317 318 318 317 317 317 316 316 316 316 315 315 315 316 316 316 315 315 316 316 316 315 313 312 312 310 307 305 303 302 301 302 303 306
318 318 318 318 318 318 318 318 318 318 318 318 317 317 316 316 316 316 316 316 316 315 315 315 315 315 315 315 314 312 310 309 307 305 303 302 302 302 302 302 302 304
314 315 316 317 317 318 318 318 318 317 317 316 315 315 314 314 315 315 316 315 315 314 314 314 314 314 314 313 311 309 307 306 305 304 303 303 302 302 302 302 302 302
310 311 313 313 314 316 317 316 315 315 314 313 313 313 313 313 314 314 314 314 314 314 314 313 313 312 311 310 308 307 307 306 306 305 304 303 302 302 302 301 302 302
308 309 311 312 313 315 315 314 313 312 312 312 312 312 313 313 313 313 313 313 313 312 311 310 310 309 309 309 309 309 309 308 308 307 306 305 305 304 304 303 302 302
307 307 308 311 313 313 312 311 310 311 311 311 310 311 311 312 312 312 312 311 310 308 308 308 308 309 310 310 310 310 310 310 309 309 308 308 307 306 306 305 304 304
306 307 307 309 310 309 307 307 307 307 308 308 308 309 309 309 310 309 309 308 307 307 308 308 309 310 310 311 311 310 310 310 310 310 309 309 308 307 306 305 304 304

ECMWFNIL_850_thetae_015.txt.gz
Theta_e
320 320 320 318 312 309 308 308 307 304 304 305 305 306 307 307 307 306 306 305 305 304 304 305 305 306 307 308 309 309 308 309 309 309 308 306 305 304 304 304 304 304
319 321 320 316 312 310 309 308 307 305 304 305 305 305 306 306 306 305 305 305 305 305 305 304 304 304 304 305 305 305 304 305 305 305 305 304 304 304 304 303 304 305
320 321 319 315 314 312 309 308 307 305 304 304 305 305 305 305 306 305 305 305 305 305 305 305 305 305 304 304 304 304 304 304 304 304 304 304 303 303 304 306 307 308
320 321 317 313 315 314 310 309 308 305 304 305 305 305 305 305 305 305 305 305 305 305 305 305 305 305 304 304 304 304 304 304 304 304 304 304 304 305 305 307 309 310
319 320 317 312 312 313 313 312 309 307 305 304 305 305 305 305 305 305 305 305 305 305 305 305 305 305 304 304 304 304 304 304 303 304 305 305 306 306 307 307 308 310
320 320 318 314 312 313 315 314 310 308 307 304 305 305 305 305 305 305 306 305 305 306 305 305 305 305 305 304 304 304 304 304 304 305 306 306 307 307 307 307 307 308
322 320 319 316 315 315 315 313 312 312 309 306 305 306 306 306 305 306 306 305 306 305 306 306 305 305 305 305 305 305 305 305 305 306 306 306 306 306 307 307 307 307
323 320 319 318 317 315 313 312 313 315 312 308 306 306 306 306 306 306 306 305 306 306 305 306 305 305 305 305 305 305 306 306 307 307 307 307 307 307 307 307 307 308
321 319 319 318 317 314 312 311 314 317 315 311 309 307 306 306 306 306 306 306 306 306 306 306 306 306 306 306 306 307 308 309 310 311 310 310 310 309 309 309 309 309
320 319 319 317 316 315 313 311 313 316 317 315 312 309 307 307 307 307 306 307 307 307 307 307 306 306 307 307 308 309 310 312 313 313 314 313 313 313 313 313 312 311
321 320 319 317 317 317 316 314 314 315 317 317 315 312 309 308 308 308 307 307 307 307 307 307 307 307 308 309 309 311 312 314 315 315 315 315 315 315 315 315 315 315
322 321 320 319 318 319 318 317 315 315 316 317 317 316 313 310 310 311 310 308 308 308 308 308 307 307 308 309 311 313 314 315 315 315 315 316 315 316 316 316 316 316
323 322 322 320 320 320 319 317 315 314 315 316 317 318 316 313 312 313 313 312 311 310 310 310 310 310 309 310 312 314 315 315 315 315 315 316 316 315 315 315 316 316
323 322 321 321 321 320 320 319 316 314 314 315 316 318 318 316 314 314 315 315 314 314 313 312 312 312 312 312 314 315 316 316 316 316 316 316 316 315 314 314 315 315
323 322 321 321 321 320 320 320 318 315 315 315 316 317 319 318 316 315 315 315 315 315 315 314 314 314 314 314 315 315 316 316 316 316 317 317 317 316 316 315 315 314
322 322 322 322 321 321 320 320 318 316 316 316 316 317 318 319 317 316 316 316 315 315 315 315 315 315 315 315 314 313 313 314 314 315 316 317 317 317 316 316 315 315
320 321 321 321 321 320 320 319 318 316 316 316 316 317 318 318 317 317 316 315 314 314 314 314 314 315 315 314 313 312 312 312 313 315 316 317 316 316 315 315 315 315
320 320 320 320 320 319 319 319 319 318 317 317 317 317 317 317 316 315 315 314 313 313 313 314 315 314 314 313 314 313 312 312 314 315 316 315 315 314 313 313 311 309
319 319 319 318 318 318 318 319 319 319 318 318 318 317 316 316 315 314 313 313 313 312 313 315 316 314 313 314 315 315 314 314 314 316 315 314 312 310 308 306 304 302
318 318 318 318 318 318 318 319 319 319 318 318 317 317 317 316 316 315 314 314 314 314 315 316 315 314 314 315 315 315 315 315 315 314 312 309 306 304 303 302 302 301
317 317 318 318 318 318 318 318 318 318 318 317 317 317 317 316 316 316 315 316 315 315 316 315 315 314 315 316 315 315 316 314 312 310 307 305 303 303 302 302 302 302
312 313 314 314 315 317 317 318 318 317 317 316 315 315 316 315 316 316 316 316 316 316 316 315 315 315 316 315 315 315 314 311 309 306 305 304 304 303 303 303 302 302
309 309 309 310 312 313 314 315 317 318 318 317 316 315 316 316 316 316 316 316 316 316 316 316 316 315 315 315 315 314 311 308 307 306 306 305 305 305 304 303 302 302
308 308 308 308 309 310 312 314 316 317 317 317 316 315 314 314 314 314 315 315 315 315 315 315 314 314 315 314 313 310 308 307 307 307 307 307 306 305 305 304 303 302
307 307 307 307 307 309 312 314 315 315 315 315 315 313 313 313 312 313 314 314 314 314 314 314 314 314 313 312 310 309 308 308 308 309 309 308 307 306 305 303 303 302
306 306 307 307 306 308 311 313 312 312 312 312 313 312 313 313 313 313 313 313 313 313 313 312 312 311 310 310 310 310 310 310 310 310 309 308 307 305 303 302 302 302

ECMWFNIL_850_thetae_018.txt.gz
Theta_e
318 320 321 321 318 312 308 309 310 312 314 317 319 318 314 309 307 307 306 306 306 306 307 310 312 315 317 317 318 319 318 318 318 318 315 310 307 306 305 305 306 307
318 318 318 317 315 310 307 306 305 306 310 314 316 313 309 306 305 305 305 305 305 304 305 306 308 311 314 315 314 315 314 313 313 311 308 305 304 304 304 304 303 304
319 316 316 319 316 311 308 305 304 305 306 308 309 307 306 306 305 305 305 305 305 305 305 305 305 306 308 309 308 309 308 307 306 305 304 304 304 303 303 304 305 306
318 317 317 319 317 311 307 305 305 304 304 305 306 305 305 306 305 305 305 305 305 305 305 305 305 305 305 305 305 305 304 304 304 304 304 304 303 304 306 307 308 309
319 319 318 319 317 311 307 307 309 309 306 305 305 305 305 305 305 305 305 305 305 305 305 305 305 304 304 304 304 304 304 304 304 304 304 304 304 306 308 309 310 310
321 320 319 318 317 312 309 310 313 314 312 306 304 305 305 305 305 306 305 306 305 305 306 305 305 304 304 304 304 304 304 304 305 305 306 306 306 307 309 309 310 310
323 321 319 319 317 312 311 314 315 315 311 306 305 305 305 306 306 305 306 307 307 306 306 305 305 304 305 305 305 305 305 306 306 307 308 307 307 307 308 308 309 309
324 321 318 319 317 312 313 316 314 311 308 305 305 306 305 306 306 305 306 307 308 308 307 306 306 305 305 306 307 306 306 306 307 309 309 307 307 308 308 308 309 309
323 321 319 318 316 313 315 316 313 311 309 306 305 306 306 306 306 306 306 306 307 308 308 307 307 305 305 307 307 308 308 307 308 310 310 309 310 310 310 309 310 310
322 321 319 318 316 315 317 316 312 313 314 310 306 306 306 306 306 306 306 306 306 306 307 307 307 306 306 306 307 309 311 311 311 311 312 313 313 313 312 312 312 313
323 322 321 319 317 317 318 316 312 313 315 314 311 308 307 307 307 307 307 306 306 307 306 307 307 307 307 307 308 309 312 313 313 314 314 314 315 314 314 314 314 314
323 322 322 320 319 320 319 316 313 312 314 315 315 312 309 307 307 307 307 307 307 308 308 308 308 308 308 308 309 310 312 313 314 314 315 315 315 315 315 315 315 315
323 322 322 321 320 320 318 316 316 316 316 315 315 316 313 311 309 309 308 309 309 309 309 309 308 309 309 309 310 311 312 313 314 315 315 315 315 316 316 315 315 315
323 323 324 323 321 319 317 315 316 318 318 317 315 315 316 315 314 312 311 312 312 311 311 309 309 310 310 310 311 313 313 314 314 315 316 316 316 316 316 316 315 315
323 323 324 323 322 320 319 317 317 317 318 319 317 316 315 316 316 316 315 315 314 313 312 311 311 311 311 311 312 313 314 315 315 316 316 316 317 317 317 316 315 315
323 323 323 323 322 322 321 320 319 319 319 319 319 318 316 314 316 317 318 317 316 315 313 313 313 313 312 312 313 313 314 315 316 316 316 316 316 317 317 316 315 316
322 323 323 323 322 322 322 321 321 321 321 320 320 319 317 315 316 317 318 318 317 316 315 314 314 315 314 314 314 314 315 315 315 315 314 314 314 315 316 317 317 318
321 322 322 322 322 322 321 321 321 321 321 321 320 319 317 316 316 316 317 317 317 316 316 316 315 315 315 315 315 315 315 315 314 313 312 313 314 315 315 316 316 316
321 321 321 321 321 321 320 321 321 321 321 320 320 319 317 316 316 316 317 317 316 316 316 316 316 314 313 313 313 314 314 314 314 313 312 313 315 315 315 315 313 310
318 320 320 321 321 320 320 320 320 320 320 320 320 319 318 318 318 318 318 317 316 315 314 314 315 314 313 311 311 313 314 314 314 314 313 314 315 315 313 311 308 304
314 316 317 318 318 319 320 320 320 320 320 319 320 320 319 320 319 319 318 316 315 314 314 314 314 314 314 312 311 313 314 314 315 315 314 314 313 311 308 306 303 302
310 311 312 313 314 316 317 318 318 319 319 319 319 319 319 319 319 318 317 317 316 316 315 315 316 315 314 313 313 313 314 315 315 315 314 311 308 306 304 303 302 302
308 308 309 309 310 312 314 315 316 316 317 319 319 319 319 318 317 317 317 317 317 317 316 316 316 315 315 315 315 314 314 315 314 313 310 307 305 304 304 303 303 303
306 307 307 308 307 308 310 311 312 313 314 317 318 318 318 318 317 316 316 316 316 317 316 316 315 316 316 315 315 315 314 313 312 310 307 306 305 304 304 304 303 303
306 306 306 307 307 307 307 308 310 311 313 315 317 318 318 318 317 316 316 315 315 316 316 315 315 315 315 314 315 316 313 310 310 310 307 306 306 306 305 305 303 302
306 306 306 306 306 306 307 307 307 309 312 314 315 316 316 317 315 315 314 313 313 314 314 314 314 313 314 315 315 314 310 309 311 311 308 307 307 307 305 304 302 302

ECMWFNIL_850_thetae_021.txt.gz
Theta_e
318 319 318 322 325 322 320 320 320 320 320 321 322 323 322 321 321 322 322 322 321 320 319 318 318 320 321 321 322 322 322 322 322 320 319 319 319 319 318 317 315 314
317 317 317 322 323 319 316 316 317 319 321 322 322 321 320 319 319 320 319 318 318 317 317 318 320 321 321 321 321 321 320 319 318 317 316 315 314 312 311 310 312 313
316 317 318 321 321 316 311 310 310 314 319 322 321 320 315 313 316 318 318 317 315 314 315 317 318 319 319 318 317 317 317 316 315 313 312 310 310 308 306 307 311 314
316 318 319 319 319 317 312 308 306 307 312 316 318 316 310 307 309 312 314 314 312 311 312 314 315 316 315 314 314 313 313 312 310 308 307 306 306 306 307 311 314 316
316 318 319 318 319 319 314 308 305 305 305 309 311 309 307 306 306 309 311 312 310 309 308 308 310 310 310 311 310 308 308 307 305 305 305 305 306 308 309 312 315 316
317 317 319 319 319 320 315 309 307 307 305 304 305 305 305 306 308 311 312 311 309 308 307 305 305 306 307 307 306 306 307 306 305 306 307 308 310 311 312 313 314 315
320 318 319 320 319 319 316 311 310 311 308 304 305 305 305 304 308 313 313 311 311 310 308 306 305 305 306 306 307 308 308 307 308 310 311 312 313 314 314 314 315 314
323 321 320 320 319 319 317 312 312 313 310 306 305 306 307 308 311 314 314 312 312 311 310 308 307 307 308 310 310 309 309 310 312 313 312 313 313 314 315 314 314 314
323 322 321 320 319 319 317 313 314 316 315 311 308 308 311 313 314 314 314 314 313 313 312 310 310 310 311 312 310 308 310 313 314 314 312 312 313 313 313 313 314 314
324 322 321 320 320 319 316 314 316 318 317 313 311 310 312 314 315 314 313 315 315 315 314 312 312 313 314 314 312 311 312 313 314 314 313 313 314 313 313 313 315 315
325 323 322 321 320 320 317 314 315 318 317 314 312 312 312 313 315 314 314 314 315 315 315 314 314 314 314 315 315 315 314 314 315 315 315 316 316 315 315 315 316 317
325 324 324 322 321 321 319 317 316 318 319 317 315 315 314 313 313 314 314 314 314 314 314 315 314 314 314 316 316 317 317 316 317 317 317 318 317 317 317 317 318 318
326 325 324 324 323 322 321 320 320 320 319 318 318 319 318 315 313 314 315 314 314 313 313 314 314 314 315 315 315 316 317 317 318 318 318 319 319 318 318 318 318 318
326 325 325 324 324 323 323 323 322 321 320 319 319 320 320 318 316 316 316 315 315 314 314 314 314 314 315 315 315 317 318 319 319 320 320 320 320 319 319 320 319 318
325 325 325 325 324 324 324 324 323 321 321 321 321 321 321 320 319 318 317 315 315 315 315 315 314 314 315 316 317 318 319 320 321 321 321 321 321 321 321 320 319 317
324 325 325 325 325 325 325 324 323 321 320 320 321 322 321 321 320 320 319 317 316 317 316 316 316 316 316 316 317 319 319 320 319 319 319 319 319 320 320 319 318 317
325 325 325 325 324 324 324 324 323 322 321 320 321 322 322 322 321 321 321 320 318 318 318 318 318 317 315 316 317 318 318 318 317 316 316 317 317 318 318 316 316 316
324 324 324 325 324 324 324 324 324 324 323 322 323 322 322 322 321 321 321 321 320 319 319 320 319 316 314 314 314 314 314 315 315 314 315 316 316 316 316 314 315 316
323 323 323 323 323 323 323 323 323 323 323 323 323 323 322 322 322 321 321 321 322 320 321 321 320 317 315 314 313 313 313 313 314 315 315 315 314 315 314 314 316 316
321 321 322 322 322 322 322 322 322 322 322 322 322 323 322 322 322 321 321 321 321 321 321 322 321 319 316 314 314 314 314 314 314 314 314 313 312 313 314 315 316 316
316 317 319 320 321 321 321 321 321 321 321 322 322 322 322 322 321 321 320 319 320 319 319 320 320 319 317 315 315 315 315 315 314 313 313 312 312 313 314 316 316 313
312 313 314 315 317 319 320 320 321 321 321 322 322 322 322 322 321 320 319 320 320 319 318 317 317 317 316 315 316 316 315 315 313 313 314 313 313 315 315 315 313 310
310 311 311 312 313 315 317 318 319 319 320 320 321 321 322 322 321 320 320 320 321 320 319 318 317 317 316 316 315 315 315 315 314 314 314 314 314 314 313 312 309 309
309 309 310 311 311 312 313 315 316 317 317 318 318 319 321 321 321 320 320 320 320 320 320 319 318 318 318 317 317 315 315 314 314 315 315 315 314 313 311 311 308 305
307 308 308 309 310 311 311 312 313 314 315 317 317 318 318 319 320 320 320 321 320 319 319 319 319 319 318 318 317 316 315 315 315 316 315 314 314 312 309 308 305 303
305 306 307 308 308 309 309 310 311 312 313 315 316 316 317 318 319 319 320 320 320 319 318 318 319 319 318 317 316 315 315 315 315 315 314 312 312 310 306 304 304 304

ECMWFNIL_850_thetae_024.txt.gz
Theta_e
319 319 318 322 324 321 320 320 317 318 321 322 323 324 323 321 321 323 323 322 322 323 323 322 321 323 323 323 324 323 322 322 322 322 322 322 322 320 319 317 316 315
318 319 319 321 324 322 319 317 315 318 320 320 321 322 321 318 317 318 319 320 321 321 322 322 322 322 323 322 322 321 320 319 318 318 319 319 319 318 316 314 313 313
317 318 319 321 322 321 317 313 313 316 316 316 317 317 316 314 313 314 315 318 318 318 320 322 321 322 321 321 320 318 317 316 315 314 312 311 310 311 312 312 313 313
316 317 319 321 321 319 316 313 311 312 311 311 311 312 311 310 310 311 313 314 312 311 316 320 319 319 318 318 317 317 316 314 312 309 307 305 305 309 314 316 316 316
316 316 319 321 320 318 316 314 311 310 309 308 307 307 307 306 306 308 309 309 307 307 312 316 317 316 316 315 315 315 313 310 307 306 304 304 305 309 314 316 315 314
318 318 320 321 320 319 318 315 313 310 308 306 305 305 305 304 305 307 307 307 306 305 307 310 313 313 313 312 311 310 309 306 305 305 305 306 308 310 313 314 313 313
320 319 320 320 320 320 318 316 314 312 309 309 308 308 307 306 307 308 308 306 306 307 308 307 309 310 310 309 309 309 307 305 307 308 309 311 312 313 314 315 313 313
322 321 321 320 320 319 318 316 314 312 311 312 311 310 308 307 309 311 310 308 309 311 311 309 308 307 308 310 310 309 308 309 311 313 313 314 314 315 316 315 313 312
324 323 322 321 320 319 318 317 315 312 313 313 310 308 306 307 312 313 312 311 311 312 311 310 310 308 309 313 311 308 310 312 314 314 314 314 315 315 315 314 313 311
326 325 324 322 321 320 319 319 315 312 314 314 310 308 308 311 315 315 313 313 313 313 311 310 311 310 311 314 310 309 313 314 314 314 313 313 314 314 314 313 312 311
326 325 324 323 322 321 320 319 316 313 316 316 313 313 313 314 315 314 314 314 314 314 313 312 312 311 312 313 310 310 314 314 314 313 312 313 314 314 314 314 313 314
326 325 324 322 322 321 320 320 319 318 318 317 316 315 315 315 316 314 313 315 314 315 315 314 313 311 313 314 312 311 314 314 315 314 314 315 315 315 316 316 317 317
326 325 324 322 322 321 320 321 322 321 320 319 318 317 315 314 315 315 314 314 314 314 315 316 314 312 314 316 315 315 315 315 316 316 316 317 316 316 317 317 318 319
326 325 325 323 322 322 322 322 322 320 320 320 320 319 317 315 314 315 314 314 314 314 314 315 315 314 314 315 316 316 316 317 317 317 317 318 318 318 319 318 318 319
326 325 325 324 324 323 323 323 323 321 320 320 320 320 320 319 317 316 315 314 314 314 314 313 314 315 315 315 315 316 316 316 316 316 318 319 319 319 320 319 318 318
326 326 326 325 325 324 324 324 324 324 322 321 321 321 320 321 319 318 317 316 315 315 315 314 314 315 315 315 315 315 316 316 316 317 319 319 318 319 320 319 318 317
325 326 325 325 325 325 325 325 324 324 323 322 322 322 321 321 321 319 319 319 317 316 315 315 315 315 315 315 315 316 317 318 317 317 319 319 318 318 319 319 319 318
324 324 324 324 324 324 323 324 324 324 323 322 322 322 321 321 321 319 319 320 319 318 317 316 316 315 315 315 315 315 317 318 318 316 316 318 318 318 319 319 318 317
322 322 321 322 323 322 321 322 322 322 323 322 321 321 321 321 320 320 320 319 319 319 319 318 317 317 316 315 315 315 316 317 316 314 314 316 316 317 318 318 317 316
319 320 320 320 321 321 320 320 320 321 322 321 321 322 322 322 322 322 321 320 319 319 320 319 318 317 317 317 316 315 315 316 316 315 314 314 315 316 316 316 316 316
315 316 317 318 319 320 320 321 321 321 321 322 322 323 323 323 323 322 322 322 321 320 320 319 319 317 317 318 319 317 316 316 316 316 315 314 314 314 315 315 315 314
311 312 313 314 315 317 318 319 320 321 321 321 322 322 322 321 321 321 321 321 322 321 320 320 320 318 316 316 318 319 318 318 317 316 315 314 314 315 315 315 314 314
309 310 311 312 313 314 314 316 317 319 319 319 320 321 321 320 320 319 318 319 320 321 320 320 320 319 317 316 317 318 318 318 317 315 314 314 315 315 316 316 315 314
308 309 309 309 310 311 312 314 315 316 316 317 317 318 318 318 318 318 316 316 317 318 319 319 318 318 318 318 318 318 317 318 318 315 314 314 315 315 316 316 315 315
308 308 308 307 308 309 310 311 312 313 314 315 315 316 317 317 317 318 317 316 316 317 317 317 317 317 317 317 318 318 317 317 317 316 315 315 314 314 315 316 315 314
304 304 305 306 307 308 308 309 309 310 310 311 312 313 314 315 316 317 318 318 318 318 317 316 316 316 316 316 316 317 317 317 317 317 316 315 315 315 315 316 315 314

ECMWFNIL_850_thetae_027.txt.gz
Theta_e
318 318 319 317 317 319 317 314 316 319 319 319 321 321 317 316 319 322 322 321 320 318 320 321 322 322 322 324 324 323 323 321 321 322 323 323 322 320 319 318 320 320
319 320 321 319 319 320 317 315 317 319 318 319 321 320 317 316 318 321 321 320 319 318 319 322 322 321 322 324 324 323 322 322 321 322 323 322 319 318 316 315 316 317
321 321 321 320 320 320 317 314 316 317 316 318 320 319 318 316 315 318 319 317 317 319 320 322 322 321 321 322 321 320 320 320 321 321 322 320 318 317 315 314 315 315
321 321 321 322 321 319 316 314 314 315 314 316 318 318 316 313 311 313 314 314 317 321 322 322 322 322 321 320 319 317 317 317 318 320 320 319 318 316 314 314 313 313
320 321 322 322 321 319 315 313 313 313 313 314 314 313 312 310 308 309 311 311 314 319 322 321 321 321 320 319 317 316 314 312 312 312 313 314 314 312 310 310 309 309
321 321 321 321 320 318 315 313 312 312 312 310 308 308 308 307 307 308 308 307 309 316 319 319 318 318 318 317 316 315 312 308 306 305 306 308 311 311 310 310 310 308
321 321 320 320 319 319 316 314 312 311 309 307 308 309 307 306 306 307 307 305 306 311 315 317 316 315 315 314 314 312 308 305 304 305 305 308 311 312 312 313 313 312
321 320 320 320 320 319 317 314 312 310 309 309 311 311 308 307 308 308 308 307 307 308 310 312 312 312 311 310 309 307 306 307 307 308 309 311 312 312 313 313 313 313
322 321 321 321 320 319 317 315 313 312 311 312 313 311 308 308 310 310 309 310 311 310 307 307 308 310 310 309 308 309 310 312 312 312 313 314 313 312 312 312 311 311
323 323 323 322 320 319 317 315 314 313 312 313 312 309 307 308 311 312 311 311 312 311 309 307 308 311 311 309 310 312 313 314 314 313 315 315 313 311 311 310 310 310
325 324 323 322 321 320 318 316 315 313 313 314 311 307 308 311 313 313 312 312 312 311 310 309 309 312 311 310 312 314 313 314 314 314 315 315 313 312 311 310 310 310
326 325 324 323 322 321 320 319 316 313 314 315 311 308 311 315 315 313 312 314 313 313 312 311 310 311 310 309 311 314 314 313 313 313 313 313 313 312 311 311 310 310
326 325 324 323 322 321 321 320 318 315 316 316 314 311 312 315 316 314 313 314 314 314 315 313 311 310 309 308 309 312 313 313 313 312 312 313 313 313 312 312 311 311
325 325 324 323 322 321 321 321 320 318 317 317 316 315 314 315 315 314 313 314 314 314 315 315 314 311 310 310 309 309 310 311 312 312 312 314 315 314 314 313 312 312
324 324 324 323 322 321 321 321 320 320 318 318 318 319 317 317 316 314 314 314 314 314 315 315 315 313 312 313 311 309 309 310 311 312 312 314 315 315 314 314 313 312
323 323 323 323 323 322 322 322 322 322 320 319 320 320 320 320 318 316 315 314 314 314 314 314 314 314 314 314 312 311 311 310 311 312 312 313 314 314 314 313 313 314
321 321 322 323 323 323 324 323 324 323 322 320 321 321 320 320 320 318 317 316 315 315 314 314 314 314 314 314 313 313 312 312 311 312 312 313 312 312 312 312 312 314
320 320 321 321 322 324 324 324 324 324 323 321 321 321 321 321 321 320 319 319 318 317 316 315 314 314 314 314 314 314 314 314 313 312 312 312 311 311 312 313 313 315
320 321 321 321 322 323 322 323 324 324 323 322 322 321 322 321 321 321 320 319 319 319 318 317 316 315 315 314 314 314 314 314 314 314 313 313 312 311 312 314 316 316
318 319 320 320 321 321 321 321 321 322 322 322 322 322 322 322 322 322 321 320 319 319 319 318 317 316 316 315 315 315 314 314 314 315 314 314 314 314 314 315 317 318
314 316 316 316 317 318 319 319 320 320 320 320 320 320 321 322 322 322 322 322 322 321 320 320 319 318 317 317 316 315 315 315 315 315 315 315 316 316 317 317 319 319
313 314 314 314 314 315 316 317 318 319 319 318 318 317 318 320 321 322 322 322 322 322 322 321 321 320 319 318 318 317 316 316 316 316 316 316 316 317 317 318 318 319
311 312 313 313 313 314 315 315 316 317 317 317 316 316 316 318 319 320 320 320 320 320 320 320 320 321 321 320 319 319 318 317 317 317 317 317 317 317 317 317 317 317
309 310 311 311 311 312 313 313 314 316 317 317 316 316 316 316 316 316 317 317 317 316 316 317 317 319 320 320 320 320 320 319 318 318 318 318 318 318 318 317 316 316
306 307 308 309 310 310 310 311 311 313 314 314 315 315 315 316 316 316 316 316 316 316 316 316 317 317 318 318 319 319 319 319 318 318 318 319 318 318 318 317 316 315
300 301 303 304 305 306 306 307 308 308 309 310 310 311 312 313 313 314 314 315 315 316 316 316 316 316 317 317 316 316 316 317 317 318 318 318 318 318 318 318 316 315

ECMWFNIL_850_thetae_030.txt.gz
Theta_e
322 316 311 310 309 309 310 312 314 316 315 315 316 314 314 316 317 316 317 318 319 319 319 320 320 319 321 322 321 321 320 318 318 320 322 322 323 324 323 323 322 322
321 316 312 311 311 312 312 313 315 315 315 317 317 316 314 312 312 314 316 317 318 318 317 318 318 318 321 322 321 321 320 318 319 321 323 323 323 322 321 320 318 318
319 316 314 314 315 315 313 314 316 316 316 316 317 316 314 311 311 314 316 317 318 318 317 317 318 319 321 322 322 322 321 320 321 322 323 322 321 321 320 318 314 313
319 318 317 316 318 317 314 314 317 317 316 317 317 317 315 312 312 314 316 317 317 318 319 318 318 320 322 322 322 322 322 322 323 322 322 320 318 317 318 317 315 314
320 319 318 318 319 318 315 315 317 317 317 318 319 318 316 313 312 313 314 315 315 317 320 320 319 319 321 321 320 320 321 322 322 321 320 318 315 314 314 315 315 314
322 320 320 319 320 319 316 314 316 316 316 319 319 317 314 311 309 310 311 312 314 318 320 321 319 319 320 319 318 318 319 321 322 320 319 317 316 315 314 314 314 314
322 322 321 320 321 319 316 314 315 314 316 319 317 313 310 307 306 308 309 310 315 319 321 321 320 319 319 318 316 315 316 319 321 320 319 318 316 314 313 312 313 313
323 323 322 322 322 319 315 314 313 314 315 315 312 309 308 307 307 308 307 308 314 318 320 320 318 318 318 317 316 313 309 310 314 317 317 315 312 310 309 309 310 311
323 324 324 323 322 319 315 313 312 312 311 310 309 309 308 308 308 307 305 306 311 317 318 317 316 316 316 316 316 311 306 304 307 308 309 309 309 309 308 307 307 309
323 323 324 322 321 318 315 313 311 309 309 309 310 309 308 309 308 308 306 306 308 313 316 315 314 313 313 313 312 308 304 304 304 305 307 309 310 310 310 309 308 308
325 324 323 322 321 319 315 314 311 309 311 311 310 308 309 310 310 310 310 309 309 309 311 312 311 310 309 309 307 306 305 305 306 308 309 310 311 311 310 311 310 310
323 323 323 322 321 317 314 314 312 312 312 311 308 307 309 310 311 311 311 311 311 309 307 308 309 308 308 309 309 309 309 310 310 311 311 311 311 311 310 310 310 310
322 323 322 321 318 314 313 312 310 312 313 310 307 308 310 312 312 312 312 312 313 311 309 309 308 308 310 312 312 312 312 312 313 312 312 311 311 310 310 310 310 310
323 323 322 322 320 318 317 314 311 313 313 310 310 312 313 315 314 313 313 313 313 313 312 311 309 308 309 311 312 312 313 313 313 313 312 311 311 310 310 310 310 310
323 323 322 322 322 321 321 319 316 316 315 313 314 314 314 315 315 313 313 313 314 314 314 314 313 310 309 309 309 310 312 313 313 313 312 311 311 310 310 310 310 310
323 322 323 322 322 321 322 322 320 319 318 317 317 316 315 316 316 314 313 314 314 314 314 315 315 314 312 309 308 308 309 311 312 312 312 312 311 311 310 310 311 311
323 323 323 322 322 321 322 322 321 321 320 320 320 319 318 317 318 316 314 313 314 314 314 315 315 315 314 312 311 310 309 309 310 311 312 311 311 311 311 311 311 311
323 323 323 323 322 321 322 322 323 323 322 321 321 321 320 319 319 318 316 314 314 314 314 314 314 314 314 313 313 313 312 311 311 310 311 311 311 311 312 312 312 312
322 322 323 323 322 322 322 322 323 323 322 321 321 321 321 320 319 318 317 316 316 315 315 314 314 314 314 314 314 313 313 313 313 312 312 312 311 312 313 314 314 314
321 321 322 322 322 321 322 322 322 322 321 320 321 321 322 321 319 319 319 319 319 318 317 316 316 315 315 315 314 314 314 314 314 314 314 313 313 313 313 313 314 314
319 320 320 320 321 320 320 321 320 321 321 320 320 321 321 321 321 321 320 320 320 320 320 319 318 317 316 316 316 315 314 314 314 314 315 314 314 314 314 314 314 314
317 318 318 318 319 319 319 319 319 319 320 319 319 320 320 320 321 321 321 321 320 320 320 320 319 319 318 318 318 317 316 315 315 315 315 315 315 315 315 315 315 315
314 314 314 314 315 315 316 317 318 318 318 318 317 317 317 318 319 319 319 319 319 318 319 319 319 319 320 319 320 320 319 318 317 316 315 315 315 315 315 316 316 317
311 312 312 311 311 312 313 314 314 314 314 315 315 315 315 315 316 317 317 317 317 317 317 317 317 317 318 318 319 319 319 320 320 319 318 317 316 316 317 318 318 318
307 308 309 308 308 309 310 310 311 311 311 312 312 312 313 313 313 314 315 315 315 315 315 315 315 316 316 317 317 317 318 319 319 320 320 319 318 317 317 318 319 319
302 302 303 303 303 303 304 305 306 306 307 308 308 309 310 311 312 312 313 314 314 314 314 314 314 314 315 316 315 316 316 317 318 318 319 319 319 318 318 317 318 318

ECMWFNIL_850_thetae_033.txt.gz
Theta_e
326 325 321 315 312 311 310 312 314 314 314 314 314 315 317 319 322 321 318 317 317 316 316 318 320 321 320 320 322 323 324 323 321 320 321 321 322 323 323 323 323 323
325 321 317 313 310 310 311 313 314 314 314 315 316 317 317 318 319 319 316 316 318 317 316 317 318 319 318 320 322 323 323 322 320 320 320 321 322 323 323 323 323 324
322 320 317 312 310 309 311 313 314 314 315 316 317 318 318 317 317 316 316 317 318 317 315 315 316 317 318 320 322 322 321 319 318 319 320 321 323 323 323 323 323 323
322 321 318 312 310 311 312 313 314 314 315 316 318 319 318 316 315 315 316 317 317 316 315 314 315 316 319 321 321 320 320 318 318 319 321 322 322 321 320 320 321 321
323 322 317 312 312 313 313 313 314 314 316 317 318 319 318 316 315 315 316 316 316 317 316 315 316 318 320 322 321 321 320 319 319 320 321 322 321 319 317 315 316 317
324 321 316 314 315 315 313 313 314 314 316 316 316 317 316 315 314 313 313 314 315 316 317 315 316 319 321 322 321 321 320 320 320 320 322 321 319 318 316 314 314 315
325 320 316 316 317 316 314 313 314 315 315 315 314 314 313 311 310 309 309 310 311 313 316 316 315 318 321 321 321 321 320 320 321 321 321 319 316 315 315 315 315 315
324 319 318 318 318 318 315 313 314 314 315 314 313 312 310 308 307 307 307 308 309 311 315 317 315 317 319 319 319 321 321 321 321 319 319 318 314 313 313 313 314 314
323 320 320 319 319 319 317 314 314 314 314 314 311 310 309 308 308 307 307 307 308 312 316 318 317 316 317 318 317 317 319 320 321 319 318 318 316 315 314 313 313 313
323 321 321 320 320 320 319 316 314 314 316 314 310 309 309 308 308 308 307 306 308 312 316 317 317 315 316 317 316 315 315 315 317 320 319 319 318 317 315 313 312 313
322 321 322 321 321 321 321 318 316 316 316 313 309 309 309 308 308 308 306 305 306 310 314 315 315 314 314 316 316 316 314 309 309 314 316 316 316 314 311 310 310 311
323 322 321 322 322 322 321 318 315 315 314 311 309 310 309 308 308 308 307 306 306 308 310 312 313 312 313 314 314 314 312 307 304 306 309 310 311 310 309 308 308 309
321 321 321 322 323 322 320 317 314 312 310 310 311 310 308 308 309 309 309 310 310 309 307 308 310 310 310 310 311 310 308 304 304 304 306 308 310 311 310 310 310 310
319 322 323 323 322 321 320 318 314 310 309 311 311 308 307 309 310 311 311 311 312 311 308 306 306 308 308 307 307 306 305 304 305 306 307 310 311 311 312 312 311 311
321 325 324 322 322 320 319 317 313 310 310 310 309 308 309 311 312 312 312 312 312 312 311 310 308 307 307 307 307 306 305 306 307 308 309 310 311 311 311 311 311 311
322 324 323 321 321 319 317 316 312 309 310 310 309 310 312 314 314 313 313 313 313 313 313 313 312 311 309 307 307 308 308 308 309 310 310 311 311 311 311 311 310 310
322 322 322 321 319 318 317 317 314 311 311 312 312 312 314 314 315 315 314 313 313 313 314 314 314 314 313 311 309 308 309 310 310 311 312 312 311 311 310 310 310 310
322 322 321 319 318 319 319 319 317 315 315 315 315 315 315 315 315 316 315 313 313 313 314 314 314 314 314 314 313 311 310 310 310 311 312 313 312 312 312 311 311 311
321 321 320 319 320 321 321 320 319 319 318 317 317 318 318 317 316 316 316 315 314 314 314 314 314 314 314 314 314 314 313 312 312 311 312 312 312 312 312 312 312 311
321 321 321 320 321 321 322 320 320 321 321 319 319 320 320 319 318 317 317 317 315 315 314 314 314 314 314 314 314 314 314 314 314 313 313 313 312 312 312 312 311 311
320 321 321 321 321 322 322 321 320 321 322 321 321 321 321 321 319 318 317 317 317 316 315 315 315 316 315 315 315 314 314 314 314 314 314 314 314 313 313 313 313 313
317 318 319 319 319 320 321 321 321 321 321 321 321 321 321 321 320 319 318 318 318 317 317 317 318 319 319 319 318 318 317 316 315 315 314 314 314 314 314 314 314 314
312 313 314 315 316 318 318 318 318 319 319 320 320 320 320 320 321 320 320 319 319 319 319 319 319 320 320 320 320 320 320 319 319 318 317 316 315 315 315 315 315 315
309 309 309 310 311 313 313 313 314 315 316 316 316 316 317 318 319 320 320 320 320 320 319 319 319 320 320 320 320 320 320 320 320 320 319 318 318 317 316 315 315 315
305 306 306 307 308 309 310 309 310 311 312 313 314 314 315 315 316 317 318 318 318 319 318 318 318 318 318 318 318 318 318 319 319 319 319 319 319 318 318 317 317 316
305 305 305 305 305 306 307 306 306 307 308 309 311 313 314 314 314 315 315 315 315 316 316 317 317 317 317 316 317 317 317 317 317 317 317 318 317 317 318 318 318 318

ECMWFNIL_850_thetae_036.txt.gz
Theta_e
326 326 326 322 320 320 318 316 318 318 317 317 317 317 318 318 318 316 314 312 313 314 315 318 320 321 321 320 320 322 323 324 322 320 322 323 322 323 323 323 323 324
327 326 326 324 320 319 318 315 316 316 316 315 315 316 318 318 317 316 313 311 312 314 315 317 319 320 320 319 320 321 323 323 320 319 320 321 321 321 322 323 323 323
327 326 326 324 320 317 316 314 314 315 315 315 316 316 317 316 314 313 312 312 312 313 314 315 316 318 318 319 321 322 322 322 319 319 320 320 320 321 322 322 322 323
327 326 325 323 319 316 314 313 314 315 315 316 316 317 317 315 313 312 313 313 312 312 313 314 314 315 316 319 321 321 321 320 319 319 320 320 320 321 322 322 322 322
327 326 324 321 317 313 312 313 314 315 316 316 317 318 318 315 313 313 314 314 313 312 312 314 315 315 317 320 321 320 321 320 319 320 320 321 321 322 322 322 322 322
326 324 324 320 314 311 311 313 314 314 316 316 317 319 318 315 314 314 314 315 316 315 313 313 316 318 319 321 321 321 321 320 320 321 321 322 322 321 320 320 320 321
325 325 325 319 312 311 312 313 314 314 315 316 317 319 318 315 314 314 315 316 317 317 314 312 316 320 322 322 322 321 321 320 321 321 321 321 320 319 316 315 316 317
325 326 325 318 313 314 313 313 314 314 315 315 317 318 316 314 313 312 313 314 315 317 315 311 314 319 321 321 320 320 320 320 322 322 320 318 318 318 316 314 315 315
326 327 324 317 315 316 314 313 314 314 314 315 317 318 315 312 311 310 310 311 313 316 315 312 313 317 319 319 318 318 320 321 322 320 317 316 315 315 315 315 315 315
324 325 323 317 316 317 316 314 313 314 314 314 317 318 315 312 310 308 308 309 311 314 315 313 313 314 316 318 317 316 318 320 321 319 316 315 315 315 314 314 314 314
324 325 323 319 317 319 318 316 314 314 314 314 314 314 312 310 309 308 308 308 308 311 313 314 314 313 314 316 317 316 315 316 317 318 318 318 317 317 316 315 315 314
325 324 323 320 319 320 319 318 316 315 314 313 312 310 310 309 309 308 308 307 306 307 310 314 315 313 313 315 316 316 315 314 312 313 316 319 319 318 316 315 314 312
323 322 322 321 321 321 321 320 319 317 316 314 311 309 310 309 308 308 308 308 307 307 309 312 314 313 313 313 314 314 315 314 311 308 309 314 316 315 313 312 310 309
322 322 322 322 322 322 322 322 321 319 316 313 310 310 309 308 308 309 309 310 311 310 309 309 310 311 311 311 311 311 311 311 310 307 306 308 310 311 311 311 310 309
323 322 321 321 322 323 322 322 322 320 315 311 310 310 309 308 309 310 310 311 311 311 311 309 308 308 308 309 309 309 309 308 307 305 305 306 308 310 311 312 313 312
322 320 319 318 320 322 322 322 322 320 314 310 310 310 308 309 311 311 311 311 311 312 312 312 311 310 309 309 308 308 308 308 307 306 305 306 308 311 312 313 314 314
321 319 319 319 320 321 322 322 322 320 314 310 310 310 308 310 313 313 313 313 312 312 313 313 313 313 313 312 310 309 308 308 308 308 307 308 309 311 312 312 313 314
320 318 319 320 320 321 322 322 321 319 314 310 310 310 309 311 313 314 314 314 313 313 313 313 313 314 314 314 313 312 311 310 310 309 309 310 310 311 311 312 312 312
319 319 319 320 320 321 322 321 319 317 313 310 310 311 311 312 313 314 315 315 314 313 313 313 314 314 314 314 314 314 313 313 313 312 311 311 311 310 310 310 310 310
319 319 320 321 321 320 319 318 317 316 314 312 313 314 314 314 314 315 316 316 315 314 313 313 313 314 314 314 313 313 314 314 314 313 313 313 312 312 312 311 311 311
319 320 320 320 319 318 318 318 318 318 318 317 318 318 318 317 317 316 316 316 316 315 315 315 314 314 314 314 314 313 313 314 314 314 314 314 314 314 313 313 313 313
317 319 319 318 318 318 318 318 319 320 319 319 320 320 320 320 320 319 318 317 317 316 316 316 316 315 315 314 314 314 314 314 314 314 314 314 314 314 314 314 314 314
314 316 316 314 316 318 318 317 318 318 317 318 318 319 320 320 320 320 320 319 318 317 317 317 317 317 316 316 316 316 316 316 316 316 315 315 315 315 314 314 314 314
310 311 311 310 312 315 316 316 316 315 315 316 317 317 317 318 318 318 319 319 319 318 318 318 318 318 318 318 318 318 318 318 318 318 318 317 317 316 316 316 315 315
307 307 308 308 309 311 312 313 313 311 310 312 314 313 312 313 314 315 317 318 318 319 319 319 319 319 319 319 319 319 319 319 319 319 319 319 319 318 318 318 317 317
305 306 307 307 308 309 309 310 310 309 308 308 310 310 309 309 310 311 312 313 315 317 318 318 319 318 318 318 318 318 318 318 318 318 318 318 318 318 318 318 318 318

ECMWFNIL_850_thetae_039.txt.gz
Theta_e
325 324 322 319 320 319 315 315 316 316 315 315 315 315 315 316 317 318 319 318 318 318 318 318 320 321 323 323 323 324 324 324 325 324 324 324 324 324 324 323 323 324
325 324 323 321 320 319 316 317 318 318 318 318 318 318 317 316 316 315 315 316 316 316 317 319 321 322 322 321 321 323 324 325 324 322 322 324 324 323 324 323 322 323
325 326 325 321 319 318 316 318 319 319 319 319 320 320 318 316 315 313 313 316 318 317 318 320 321 322 322 321 321 321 323 324 324 321 321 322 322 322 323 323 323 323
327 327 326 322 319 317 316 317 319 320 320 320 320 319 316 314 314 313 313 316 317 317 317 318 320 321 321 320 320 322 323 324 323 320 319 320 320 321 322 322 323 323
328 327 326 324 320 317 315 316 319 319 319 320 320 319 315 313 313 314 314 314 314 314 315 316 317 318 318 319 321 322 323 323 321 318 318 319 320 320 322 322 323 323
328 327 326 325 321 319 316 316 318 318 318 319 320 319 316 313 313 314 314 313 312 312 314 315 316 316 318 320 322 321 321 321 319 318 319 320 320 321 322 322 323 322
327 326 326 325 323 321 318 316 318 318 318 319 319 319 316 312 311 312 312 311 310 310 312 314 317 318 320 321 321 321 321 320 318 318 320 320 321 322 321 321 322 322
327 326 325 323 323 321 317 315 316 317 318 318 319 319 316 312 311 310 310 310 310 310 310 313 318 320 321 322 321 321 320 319 319 320 321 321 321 318 316 317 318 320
327 325 324 323 323 320 315 314 315 316 318 319 319 319 315 313 311 309 309 309 310 312 310 312 318 321 321 321 321 320 320 319 320 321 321 321 319 316 314 314 315 316
327 324 324 325 322 317 314 314 315 316 317 318 319 317 312 311 311 309 309 308 310 312 311 312 317 319 319 319 319 320 320 321 321 320 319 318 317 316 315 315 315 314
326 324 326 325 320 316 316 316 315 316 316 317 317 314 310 310 310 309 309 309 309 311 311 311 315 317 318 318 317 318 320 321 320 318 316 314 314 314 314 314 314 315
325 325 327 324 319 317 319 318 317 317 316 317 316 312 309 310 310 309 309 308 308 310 312 311 312 315 316 317 317 316 317 319 319 318 316 314 313 314 314 315 316 317
326 326 326 322 319 319 320 320 320 319 318 317 315 311 309 310 310 309 308 308 306 308 310 312 313 314 314 315 316 315 315 316 316 316 317 317 317 316 316 317 317 316
324 325 324 321 319 320 321 320 320 320 319 318 315 311 310 310 309 308 308 309 308 308 310 311 312 313 313 314 314 314 314 315 314 312 312 314 317 318 317 315 313 312
323 322 321 320 320 321 321 320 320 320 320 318 314 310 310 310 309 308 309 310 311 311 310 310 310 311 311 312 312 312 312 313 313 311 307 307 312 314 314 313 312 311
322 321 320 321 321 321 321 320 320 320 320 317 313 310 310 310 308 308 310 311 311 312 311 311 310 309 309 310 310 310 310 310 310 308 305 304 306 309 311 312 313 313
322 321 321 321 320 320 321 321 321 320 319 317 313 310 310 309 309 309 310 311 312 312 312 312 312 311 310 310 310 310 309 309 309 308 307 305 305 307 310 311 313 314
322 321 321 320 320 320 320 321 321 320 319 316 313 311 310 309 309 311 311 312 313 313 313 313 313 312 312 312 311 311 310 310 310 310 310 309 308 309 311 312 313 313
322 322 321 320 320 320 320 320 321 321 320 319 315 311 310 309 310 312 313 313 314 313 313 313 313 313 313 313 313 312 312 311 311 311 311 311 311 311 312 313 313 313
321 321 320 319 319 319 319 319 319 320 320 319 315 311 310 309 310 313 314 314 315 314 313 313 313 313 313 313 313 313 313 313 313 312 312 311 311 311 312 312 312 312
319 319 319 319 318 318 319 318 317 318 318 317 314 312 312 312 313 314 314 315 315 315 314 314 313 313 313 314 314 314 313 313 313 313 313 313 313 313 312 312 312 312
318 319 319 319 318 318 318 318 317 317 317 317 315 314 314 316 317 317 317 317 317 316 316 315 315 315 315 315 314 314 314 314 314 314 313 313 313 313 313 313 313 313
316 318 318 317 317 317 317 317 317 318 317 317 317 316 317 318 319 318 318 318 318 318 317 317 317 317 317 317 316 316 316 315 315 315 315 316 315 315 315 315 315 314
312 314 315 315 315 315 315 315 315 316 317 317 316 316 317 318 318 317 317 317 317 317 317 317 317 317 317 317 317 317 317 317 318 318 318 318 318 318 318 317 317 317
308 309 310 311 311 313 314 313 313 313 314 314 314 313 314 314 314 313 313 314 315 316 316 316 317 317 317 317 318 318 318 318 318 318 318 319 319 318 318 318 318 318
308 308 308 309 310 311 312 312 312 313 314 314 313 313 312 312 311 310 310 311 312 312 312 311 312 313 314 314 315 316 316 317 317 317 317 317 317 317 317 317 317 317

ECMWFNIL_850_thetae_042.txt.gz
Theta_e
329 328 325 323 319 318 321 323 323 322 322 324 324 322 321 320 319 318 318 319 318 318 319 321 322 323 325 324 322 323 325 324 323 325 324 323 325 326 327 328 328 328
329 327 325 324 320 317 318 317 318 320 321 323 324 322 320 319 318 318 318 318 318 318 318 318 319 320 324 325 322 323 327 327 326 326 325 324 326 327 327 326 326 327
329 326 324 323 318 316 316 314 316 319 320 320 320 318 317 318 318 318 318 318 317 318 317 317 318 318 321 324 323 324 328 329 328 327 324 324 326 327 328 326 325 326
328 325 322 321 318 316 316 316 317 317 317 316 316 317 317 317 317 317 317 317 317 318 318 318 318 318 319 320 321 323 326 328 329 325 322 323 324 326 327 327 326 325
327 324 322 320 317 316 317 318 319 318 318 318 317 318 319 318 319 318 316 317 318 318 318 318 318 318 319 318 319 321 323 325 326 323 321 323 323 324 326 326 326 325
326 324 322 320 318 317 319 321 320 320 321 319 317 318 319 318 320 320 316 317 318 317 317 317 317 317 318 318 319 320 322 324 324 320 320 322 322 322 323 325 326 326
326 325 324 322 320 318 320 322 321 322 323 319 316 316 315 316 320 321 318 318 319 319 319 316 315 316 316 317 320 321 323 325 322 319 321 323 322 321 322 325 327 327
327 327 325 324 322 321 321 322 321 322 322 319 315 311 311 316 320 318 318 319 320 321 320 316 315 316 315 318 323 322 321 322 320 320 323 323 321 321 322 324 326 327
328 327 326 325 323 322 322 322 321 321 320 320 316 310 313 319 318 314 316 319 320 320 319 317 318 318 317 320 324 324 322 320 318 320 322 321 320 321 321 321 323 326
329 327 327 326 324 323 321 320 320 320 320 322 319 315 317 319 316 313 314 316 318 320 319 318 320 320 319 321 323 323 323 321 319 321 321 321 320 320 319 318 319 321
329 327 327 326 325 323 320 319 319 319 321 322 320 318 317 315 313 313 314 315 318 320 319 319 320 320 321 322 322 321 322 321 320 320 321 321 320 319 318 318 318 318
328 327 327 327 324 321 319 318 318 319 320 321 321 320 316 313 314 315 317 319 320 320 320 319 320 320 320 321 321 321 321 320 319 318 319 320 319 318 317 318 318 318
327 326 326 326 323 320 318 318 318 319 320 322 322 320 315 314 315 316 318 320 320 320 320 319 319 319 320 319 320 320 321 320 319 317 317 317 317 317 317 316 317 317
326 325 324 324 322 318 318 319 319 320 321 322 321 318 314 315 315 313 314 316 317 318 318 318 318 318 318 318 318 318 319 320 319 318 318 317 316 316 316 315 317 317
324 323 324 323 320 318 320 320 320 320 321 321 318 315 313 314 314 312 312 313 314 316 316 317 317 317 317 317 317 317 318 318 318 318 319 318 318 318 317 317 318 318
324 323 324 322 320 320 321 320 320 321 321 320 316 312 311 312 312 313 314 314 314 314 314 313 314 314 314 314 315 315 316 317 317 316 316 317 318 319 319 318 317 315
323 323 323 321 319 320 321 320 321 321 321 319 315 311 310 310 313 315 316 315 315 314 311 310 310 310 310 311 312 312 313 315 316 316 315 315 316 318 318 317 315 314
323 322 322 320 319 321 321 320 321 321 320 317 313 310 309 310 313 316 315 314 314 313 312 312 311 310 309 310 310 310 310 312 315 316 315 314 315 316 317 316 316 317
321 321 321 320 320 321 320 320 321 320 319 316 312 310 310 311 313 314 313 312 312 312 313 313 312 312 311 310 311 311 310 311 314 316 315 316 316 316 317 318 318 319
320 320 320 320 320 320 320 320 320 319 318 316 313 311 310 311 312 312 312 312 312 313 313 313 313 313 313 312 312 312 311 312 314 314 314 315 316 315 315 317 317 318
320 320 320 320 320 319 319 319 319 319 318 317 316 314 312 311 312 312 312 313 313 314 314 313 313 313 313 313 313 313 313 313 313 313 313 314 314 313 313 314 314 315
319 319 319 319 319 318 318 317 317 318 317 317 317 315 314 313 312 312 313 314 314 315 315 314 314 313 313 313 313 313 314 313 313 314 314 313 313 313 313 313 313 313
317 317 317 318 318 317 317 317 317 317 317 317 317 316 316 315 313 312 314 316 316 316 316 316 315 315 315 315 315 315 315 315 315 316 315 315 315 315 315 314 314 314
314 315 315 316 316 316 316 316 316 316 316 316 316 316 316 315 314 313 316 318 318 317 318 317 317 317 317 317 316 317 317 317 317 317 317 317 317 317 318 317 317 317
314 314 314 314 314 315 315 315 315 315 315 315 316 316 316 315 315 315 316 317 318 317 318 318 318 318 318 318 318 318 317 318 318 317 317 318 317 317 317 317 317 318
312 312 312 312 312 313 313 314 314 314 313 313 314 315 316 315 314 314 314 315 316 316 317 317 317 317 316 317 317 317 317 317 317 316 316 316 315 314 314 314 314 315

ECMWFNIL_850_thetae_048.txt.gz
Theta_e
329 329 327 324 325 327 326 324 324 325 326 329 330 327 325 324 322 322 322 324 326 328 329 328 328 328 329 329 330 329 330 329 327 327 327 327 327 327 327 326 326 326
329 328 327 324 323 323 323 323 323 324 326 329 330 327 325 323 321 322 322 321 322 324 324 325 326 326 328 328 328 329 330 330 328 328 328 327 327 327 325 325 325 325
329 327 325 322 321 321 322 322 322 324 327 329 329 327 325 323 322 323 322 320 321 321 321 322 323 325 326 328 328 328 328 329 328 327 327 328 328 326 324 323 324 323
328 325 322 320 320 320 320 322 323 326 329 330 329 328 326 323 321 322 321 321 320 320 320 320 321 322 324 325 327 328 328 328 328 326 326 327 327 326 326 324 324 323
326 323 320 320 322 321 321 322 324 328 330 329 329 329 326 322 320 318 317 318 318 317 318 319 321 321 320 321 324 326 327 328 327 327 326 326 326 326 326 326 325 325
323 320 319 321 323 322 322 323 326 329 329 328 328 329 326 326 324 318 314 316 316 315 317 319 321 322 319 318 322 325 328 328 327 327 327 326 326 327 326 326 326 325
321 318 320 322 323 322 322 324 328 330 327 326 328 328 327 326 325 320 316 315 315 316 319 320 321 321 319 318 320 322 326 328 328 328 327 327 328 327 327 326 326 325
322 320 321 322 322 321 322 325 328 328 326 326 327 327 325 322 319 318 316 316 318 320 322 322 320 320 319 319 320 321 325 328 328 327 327 328 328 328 327 327 327 327
324 322 322 323 321 321 323 326 327 328 327 326 326 324 320 319 322 321 319 321 324 324 324 324 323 323 322 320 320 323 326 328 327 327 328 327 327 327 327 327 327 327
325 323 323 323 321 322 324 325 326 328 327 325 325 322 318 322 326 325 323 324 324 323 324 325 324 325 325 324 323 324 325 326 326 327 328 327 327 327 327 326 327 327
326 324 324 323 322 323 324 324 326 327 325 324 326 324 322 325 327 325 325 325 322 321 324 324 324 324 325 325 325 325 325 326 327 327 327 325 325 325 324 324 326 327
326 325 325 324 323 324 325 326 326 324 323 325 326 324 324 326 326 324 324 323 321 322 323 323 323 324 323 324 325 324 324 326 326 325 324 323 322 322 322 322 323 324
326 326 326 325 324 325 326 326 324 322 323 325 325 325 326 326 324 322 322 323 322 322 322 322 322 322 322 323 323 324 324 325 324 323 323 322 321 322 322 322 321 321
326 326 325 325 326 325 325 324 323 323 325 325 325 325 325 324 323 322 322 324 323 322 321 321 320 321 322 322 322 323 323 323 323 323 323 322 321 321 321 320 321 321
326 325 325 325 325 325 324 324 324 325 326 325 324 325 324 323 324 323 323 324 323 322 321 320 320 320 321 321 321 322 322 322 322 322 322 322 320 320 321 320 321 322
325 325 326 325 324 324 325 325 325 325 325 324 324 324 323 323 323 323 323 323 323 322 321 320 320 320 320 320 320 320 320 321 321 321 322 321 320 321 321 320 321 321
323 322 324 325 324 325 326 326 325 325 324 324 324 323 322 322 323 322 322 322 322 321 321 321 320 319 320 320 319 319 319 320 320 321 321 321 320 321 321 320 321 321
322 320 322 324 325 325 326 325 325 325 325 325 323 323 322 322 321 320 320 320 320 320 320 320 319 319 319 319 319 319 319 319 320 320 320 320 320 320 320 320 320 320
324 322 322 325 325 325 325 325 325 325 325 325 323 322 322 321 319 319 319 319 319 319 319 318 316 316 317 318 318 318 318 318 319 319 319 319 319 318 318 320 319 319
325 325 325 326 325 325 325 325 325 326 325 324 322 321 320 319 318 318 318 318 318 318 317 313 310 309 311 313 314 315 317 318 318 318 318 318 318 318 317 319 320 319
325 326 326 326 326 325 325 325 325 325 324 323 322 320 319 319 319 319 318 318 318 316 314 311 309 308 308 308 308 310 313 314 316 318 318 317 318 318 318 319 320 320
324 325 326 326 325 325 324 325 325 323 323 322 321 320 319 319 319 319 318 317 315 313 311 311 312 312 311 310 309 309 310 311 314 318 318 317 318 319 318 319 319 319
321 322 323 323 323 323 323 324 323 322 322 321 320 319 319 320 319 318 316 315 313 312 312 312 313 313 313 312 312 312 311 311 313 317 318 318 319 319 318 318 318 319
319 320 320 320 321 322 322 322 321 319 319 318 318 317 316 317 316 316 315 315 314 314 313 312 313 313 313 313 313 313 314 313 314 317 318 318 319 319 318 318 319 319
317 318 318 318 319 320 320 320 318 318 318 318 317 316 315 316 316 316 315 315 315 315 314 314 314 314 314 314 314 314 315 315 315 317 318 319 319 319 319 319 319 319
315 316 316 317 317 317 317 317 317 317 317 317 317 316 316 316 316 315 315 314 314 314 314 314 315 314 314 314 315 315 316 316 315 316 317 318 318 316 316 317 318 317

ECMWFNIL_850_thetae_051.txt.gz
Theta_e
330 330 329 327 324 324 325 326 327 326 324 326 329 328 327 327 327 328 328 329 330 330 330 329 328 330 331 331 331 330 330 329 328 328 327 327 328 328 329 328 327 326
330 330 328 327 326 327 327 326 325 324 324 327 328 327 326 325 324 324 326 329 330 330 331 330 329 330 330 330 330 330 330 329 328 327 326 327 327 327 328 328 327 327
330 329 328 327 327 327 327 325 323 323 326 328 328 326 325 325 323 322 323 325 327 328 330 329 329 328 328 329 329 329 329 329 328 327 327 327 326 326 328 328 327 326
330 329 328 328 327 327 327 324 322 323 326 328 328 326 325 325 324 322 322 322 323 325 326 326 326 327 327 328 329 328 329 329 329 328 328 328 327 327 327 327 326 326
330 329 329 328 326 326 326 323 322 324 325 326 327 327 326 325 324 323 323 322 321 321 322 322 324 326 327 328 328 327 328 329 328 327 327 328 327 327 327 326 324 324
330 330 329 327 326 325 324 322 321 322 324 325 327 328 327 326 324 323 323 323 322 321 320 320 321 323 324 324 326 326 327 327 327 327 327 327 328 327 327 326 324 324
330 329 328 327 325 323 322 322 321 320 323 326 328 328 328 327 325 323 322 323 321 319 319 319 320 320 320 320 324 326 326 327 327 327 326 326 327 327 327 326 326 326
330 329 327 324 323 321 321 323 321 321 325 327 328 329 329 327 324 321 320 320 319 317 319 321 321 320 319 320 323 325 326 328 328 327 327 326 326 327 327 327 327 326
331 329 325 322 321 320 321 323 322 323 327 328 328 330 329 325 321 318 316 317 317 318 321 323 323 322 321 321 323 325 325 327 328 328 328 327 327 328 327 326 326 326
330 329 324 321 321 321 322 324 324 326 329 329 329 329 326 322 320 317 317 319 321 322 324 324 322 323 323 321 321 323 324 326 327 328 328 327 327 328 327 327 326 326
328 326 322 321 322 322 323 326 328 329 329 329 329 327 323 322 323 321 322 325 325 324 325 324 323 324 324 323 322 322 324 326 327 327 327 327 326 326 325 326 326 326
325 322 319 320 323 323 324 328 329 329 328 328 327 322 322 325 326 324 325 326 324 324 324 323 323 324 324 323 322 322 324 326 327 326 327 326 326 326 324 323 323 324
323 319 318 321 323 323 325 328 329 328 327 326 323 321 324 327 326 324 325 324 323 324 323 322 323 323 322 323 323 323 324 326 326 325 325 324 324 325 324 323 322 322
323 319 318 321 323 324 326 328 328 327 326 324 323 323 326 327 325 324 324 322 323 324 322 322 323 323 323 323 323 323 324 325 324 323 322 322 323 323 323 323 322 321
323 323 321 322 324 326 326 327 327 326 325 324 324 325 326 326 323 322 323 323 323 323 322 322 323 323 322 322 322 323 323 323 323 323 321 321 322 322 322 323 322 322
325 325 323 323 325 325 326 328 327 325 324 324 325 326 325 324 322 322 324 323 322 323 322 321 321 322 322 322 322 322 321 322 322 322 321 321 321 321 321 322 322 322
328 327 325 324 325 325 327 327 325 324 325 325 325 325 324 323 323 323 323 323 323 323 322 320 320 320 321 321 321 321 321 321 321 322 321 321 321 321 321 321 321 321
329 328 327 326 325 326 327 325 324 325 325 325 325 325 324 323 323 323 323 323 323 323 322 321 320 320 320 320 320 320 321 320 320 321 321 321 320 321 321 321 321 320
329 328 327 327 326 327 327 326 325 326 325 325 325 324 323 323 323 322 322 323 323 323 322 321 320 320 320 319 319 319 320 320 319 320 321 320 320 320 320 320 320 320
327 327 327 327 326 326 327 327 327 326 325 324 324 323 322 323 323 322 321 322 322 321 321 320 319 318 317 318 319 319 319 319 319 319 320 319 319 318 318 319 320 320
325 326 327 327 326 326 326 326 326 325 323 324 323 323 323 322 322 321 320 320 320 320 320 317 313 310 310 312 315 317 318 319 319 318 318 318 318 318 318 318 319 320
325 325 325 325 326 326 325 325 325 324 323 324 323 322 322 322 321 320 319 319 319 319 318 314 309 308 308 307 308 312 315 318 318 317 318 318 318 318 318 318 319 320
324 324 324 324 325 325 325 325 325 324 324 324 323 321 321 320 319 319 318 319 318 317 315 312 310 311 310 309 308 308 310 313 315 317 318 318 318 318 318 318 318 319
319 318 319 321 324 324 324 325 324 323 323 322 321 321 320 319 319 319 318 318 317 316 314 313 313 312 311 311 311 310 309 311 313 316 318 319 319 319 318 317 318 318
314 314 313 316 320 322 322 323 323 321 320 320 320 320 319 319 319 318 317 317 316 315 315 315 315 314 313 312 312 312 312 313 315 317 318 319 319 319 319 318 319 319
314 313 312 313 315 317 318 318 318 318 318 318 318 318 319 319 318 318 317 316 316 315 315 315 315 315 314 312 312 313 313 315 316 317 317 319 319 319 319 319 319 319

ECMWFNIL_850_thetae_057.txt.gz
Theta_e
331 331 331 332 332 332 332 332 331 330 331 331 329 328 329 328 327 327 328 329 330 330 330 329 329 329 328 328 328 327 327 328 328 328 328 328 328 329 328 327 328 328
331 332 331 332 333 333 332 331 330 330 330 330 328 328 328 327 326 327 328 329 329 330 330 329 329 329 329 328 328 327 326 327 328 328 328 328 328 328 327 327 327 328
331 332 332 332 332 332 331 330 330 330 329 329 329 327 326 325 325 328 330 330 328 328 330 329 329 329 328 328 328 327 326 327 328 329 329 329 328 328 328 327 327 327
329 331 332 331 331 331 331 330 329 329 329 329 327 326 325 324 324 326 329 330 328 327 328 329 329 328 328 328 328 327 327 328 329 330 330 329 329 329 328 328 327 327
329 331 331 330 330 330 330 329 329 328 329 328 327 326 326 325 325 327 328 327 327 327 327 328 328 327 327 328 328 328 329 329 329 330 330 329 329 328 328 328 328 327
330 331 330 329 329 329 329 329 329 329 329 328 327 327 327 324 325 327 326 325 327 327 327 327 327 326 327 328 328 329 330 330 329 329 329 329 329 328 328 328 328 328
331 331 330 329 328 328 328 328 328 328 328 328 326 326 326 324 323 324 324 326 328 327 328 328 327 327 328 328 329 330 330 330 329 329 329 329 329 328 328 328 328 328
331 331 331 329 329 329 328 328 328 328 328 327 325 324 324 324 322 322 323 326 328 328 329 329 329 329 329 329 329 329 330 330 329 329 328 328 328 329 328 327 327 327
330 331 331 330 330 330 329 328 327 327 326 325 324 323 323 322 323 323 323 326 328 328 328 329 330 329 328 328 328 328 329 330 329 328 328 328 328 327 327 327 326 326
329 329 330 330 330 330 330 329 327 326 325 325 325 324 322 323 323 324 325 327 327 325 326 327 328 327 326 326 326 327 328 328 328 327 327 327 327 327 327 326 326 326
328 328 329 330 330 330 330 329 328 326 326 325 324 324 326 325 325 324 325 326 325 323 322 324 324 323 323 323 324 325 326 326 326 326 326 327 326 326 327 327 327 327
327 327 328 329 329 329 329 329 328 328 326 324 323 326 328 325 324 326 326 325 324 323 322 322 321 320 320 321 322 323 324 325 325 325 325 325 325 325 326 326 327 327
326 326 327 328 329 329 329 328 328 327 326 323 323 326 328 326 325 326 326 324 324 324 322 321 319 319 319 319 320 320 321 323 324 325 326 325 325 325 326 326 326 326
327 327 327 328 329 329 329 328 326 326 326 324 323 324 327 328 327 326 324 325 326 325 322 320 320 320 320 320 320 319 320 322 324 325 326 326 326 326 326 326 326 326
327 327 327 327 328 329 329 327 326 326 325 325 324 324 326 328 328 326 323 325 327 325 322 321 322 322 322 321 321 320 321 322 323 324 325 326 326 326 326 326 326 326
325 326 327 327 327 329 328 327 327 326 324 324 324 325 326 327 327 325 323 325 327 325 323 323 323 323 323 322 322 322 322 323 323 324 325 325 326 327 326 326 325 324
323 325 326 327 326 327 328 328 328 326 324 324 324 324 326 326 326 323 322 325 326 325 324 324 323 323 324 323 322 323 323 323 323 324 325 326 326 326 325 325 323 322
320 322 324 326 326 327 327 328 328 326 324 324 324 324 325 325 324 321 321 323 325 325 325 324 323 323 323 322 322 323 324 324 324 325 326 326 326 326 325 324 322 322
318 320 323 325 326 326 326 327 327 325 323 324 324 324 326 325 322 321 322 324 325 325 325 325 324 323 323 321 321 322 323 324 325 324 324 324 325 325 325 323 322 322
316 319 321 323 324 326 326 326 327 325 323 324 324 325 326 324 321 322 324 325 325 325 325 324 324 323 322 321 321 322 322 323 323 322 322 323 323 323 323 322 322 322
314 316 319 322 323 325 325 326 327 326 324 325 325 325 325 323 322 324 325 325 325 325 324 324 323 323 323 322 321 321 321 322 322 322 322 322 321 321 321 321 321 322
312 313 317 321 323 323 323 325 326 326 325 325 326 325 324 324 324 325 325 325 325 324 323 323 323 323 323 322 322 322 321 321 322 322 321 321 321 320 321 321 322 322
311 311 313 318 321 322 321 323 326 326 325 325 325 324 324 324 323 323 324 324 323 322 322 322 322 322 323 322 322 322 322 321 321 321 321 321 320 320 320 320 321 321
310 310 311 313 316 318 318 318 322 325 326 325 325 324 324 323 321 322 322 322 321 321 320 321 321 321 321 321 321 321 321 321 321 321 321 320 320 320 319 319 320 320
309 310 310 310 311 312 312 312 314 320 325 325 324 323 323 321 319 320 321 320 319 319 319 319 320 319 319 319 320 320 320 320 320 320 320 320 320 319 319 319 319 319
308 309 309 310 310 309 308 307 306 310 317 321 321 321 321 318 316 317 319 318 317 318 318 317 317 316 316 316 317 317 318 318 319 319 319 319 319 319 318 318 319 319

ECMWFNIL_850_thetae_060.txt.gz
Theta_e
326 325 324 324 326 327 327 328 330 331 332 332 332 331 330 330 330 328 326 325 326 328 328 327 327 327 329 330 329 328 328 329 329 328 328 328 328 328 328 329 328 328
324 323 325 326 326 327 328 329 330 330 331 331 331 330 330 330 329 327 325 326 328 329 329 328 327 328 329 330 329 328 328 328 328 328 328 328 328 328 328 329 328 328
326 326 326 327 326 327 329 330 330 329 329 330 331 331 330 330 329 326 325 326 327 328 328 328 328 329 329 329 329 329 328 328 328 328 328 328 328 327 327 328 328 328
329 328 328 328 328 329 330 331 329 329 329 330 330 330 330 330 329 328 327 326 326 327 327 328 329 330 329 329 329 329 328 328 327 327 327 327 328 327 327 327 327 327
329 329 329 329 330 330 330 330 329 329 330 330 329 330 330 329 329 328 327 325 325 327 328 329 330 330 329 329 329 329 328 328 327 327 327 328 328 328 327 327 327 326
329 329 329 329 330 329 329 330 330 330 330 329 329 330 329 328 327 326 325 325 325 327 329 330 330 330 329 328 329 329 328 328 327 327 328 328 329 328 327 327 327 327
329 329 330 330 330 330 329 329 330 330 329 329 329 330 329 328 326 325 324 324 326 328 330 329 329 329 329 329 329 328 328 328 328 328 328 329 329 328 327 327 327 327
329 329 330 330 329 330 329 329 330 330 329 329 329 329 328 327 326 325 322 321 324 327 328 328 328 328 329 328 328 328 328 328 328 328 329 329 329 328 328 328 327 327
329 329 329 329 329 329 329 329 329 329 329 328 329 329 328 327 327 326 324 322 322 323 324 326 327 328 328 328 327 327 328 328 328 329 329 329 328 328 328 328 327 327
328 328 329 328 328 329 329 328 328 327 327 327 328 329 328 327 327 326 326 325 323 322 322 324 327 328 328 328 328 327 328 328 328 328 329 329 328 328 328 328 328 328
327 327 327 327 327 328 328 328 327 326 326 327 327 328 328 327 327 325 325 325 324 323 323 324 325 328 328 328 329 328 328 328 327 328 328 328 327 328 328 328 328 328
326 326 326 326 325 325 326 327 327 326 326 326 327 327 327 327 327 326 325 325 324 323 323 324 325 326 328 329 328 328 328 328 328 328 329 328 328 328 328 328 328 328
323 325 326 326 325 325 326 327 327 327 326 326 326 327 327 327 327 326 325 325 325 323 322 324 324 324 326 328 327 325 325 326 327 328 328 328 328 328 328 327 327 327
318 321 324 326 326 326 327 327 328 328 328 327 327 326 327 326 326 325 324 324 326 325 323 323 324 324 325 326 324 324 324 325 326 327 327 327 327 327 327 327 327 327
315 316 320 324 326 327 327 328 328 328 328 328 327 327 326 325 325 326 324 323 325 325 324 323 323 324 325 324 323 323 323 324 324 325 326 326 326 326 326 326 326 326
314 314 317 320 324 327 327 327 328 329 329 328 327 327 325 323 324 326 325 323 324 323 323 322 322 323 324 323 321 321 321 321 321 322 324 326 326 326 326 326 326 326
313 314 315 318 321 324 326 327 327 328 329 328 327 326 325 323 324 325 324 323 323 322 322 323 323 322 322 321 321 321 321 320 320 322 324 325 326 326 326 326 326 326
312 313 313 316 319 322 324 326 326 327 328 328 327 326 325 323 323 323 323 322 323 323 324 325 324 322 321 322 322 322 322 322 322 324 325 325 325 325 326 326 326 326
311 312 312 314 317 320 323 324 325 326 327 328 327 326 325 324 323 323 324 324 324 324 325 325 324 322 322 323 323 323 323 323 323 324 325 325 325 326 326 326 326 326
310 311 311 312 315 319 321 323 325 325 326 327 327 326 325 324 323 324 325 326 325 324 324 324 323 323 323 324 324 324 323 323 324 324 324 325 325 326 326 326 326 325
309 310 310 311 314 317 320 323 324 324 325 326 326 325 325 324 323 323 325 327 326 324 324 323 322 323 324 324 324 324 324 324 324 324 325 325 325 326 326 326 325 325
309 309 309 309 311 314 318 322 324 323 324 325 325 324 324 324 324 324 325 327 326 324 323 322 321 323 325 324 324 324 323 323 324 325 325 324 324 324 324 324 324 324
308 308 308 308 309 310 314 318 321 322 322 323 324 324 324 324 324 324 325 327 325 323 322 321 321 323 325 324 323 323 322 323 324 325 324 322 322 322 322 322 322 322
307 307 307 307 307 307 309 312 316 318 319 319 321 323 323 324 325 325 326 326 324 323 323 322 323 324 324 324 323 322 321 322 322 323 323 322 321 321 321 320 321 321
306 307 307 307 306 306 306 308 311 313 314 314 315 317 318 320 322 324 326 325 324 323 324 325 325 325 324 324 323 323 322 321 321 322 322 321 321 321 320 320 320 321
305 306 306 306 306 305 305 305 306 309 311 311 310 309 310 312 315 318 322 323 322 321 322 322 323 323 323 323 323 323 322 322 321 322 322 321 321 320 320 320 320 320

ECMWFNIL_850_thetae_063.txt.gz
Theta_e
330 330 329 329 329 329 329 330 330 331 331 331 330 331 330 330 330 330 329 329 329 330 330 328 326 328 329 328 329 330 328 328 329 327 326 329 330 330 329 328 329 329
330 329 328 328 327 327 327 327 328 329 329 330 331 331 330 330 330 330 329 330 329 330 330 328 325 327 329 330 329 329 328 328 328 327 326 328 330 330 329 329 329 328
329 329 329 329 328 328 327 325 325 326 327 329 329 329 330 330 330 330 329 329 329 330 330 328 325 326 328 329 329 329 328 328 328 327 326 328 329 329 329 328 329 328
327 328 328 329 329 329 328 327 326 326 327 328 328 328 330 330 329 330 329 329 329 329 328 326 325 326 328 329 329 329 329 328 328 328 328 328 329 329 329 328 328 328
326 327 328 328 329 329 328 328 328 327 327 328 327 326 328 329 329 329 329 329 328 327 326 325 326 328 328 328 329 330 329 329 328 328 329 329 329 329 328 328 328 328
325 326 327 328 329 329 329 329 329 328 327 327 327 327 328 329 329 329 329 328 327 326 326 326 327 328 328 328 329 329 328 329 329 329 329 329 328 328 328 328 328 328
325 326 327 327 328 329 329 329 329 329 328 327 327 328 328 328 328 328 329 328 328 327 325 324 325 327 327 329 330 329 328 328 328 328 328 328 328 328 328 328 328 328
325 326 326 327 328 328 328 329 328 329 329 328 327 326 326 328 328 327 328 329 328 327 325 325 325 325 327 329 330 328 327 327 328 328 328 328 327 327 328 329 328 328
323 324 326 327 327 328 328 328 328 328 328 328 327 326 325 327 328 327 328 328 327 326 325 325 325 326 328 330 329 328 327 327 328 328 328 328 328 328 329 329 329 328
319 322 324 326 327 327 327 328 328 328 328 328 328 326 325 327 328 327 327 327 326 325 324 325 326 328 329 329 328 328 328 327 328 328 327 328 329 328 329 329 329 329
316 317 320 323 325 326 326 327 327 328 328 328 327 326 326 327 328 327 326 326 325 324 324 324 325 326 327 328 328 329 328 327 328 328 328 328 328 329 329 329 329 329
315 316 317 319 322 325 326 326 325 326 327 327 327 326 327 327 328 327 326 326 326 325 324 325 324 324 325 327 328 328 328 328 328 328 328 329 329 329 330 329 329 329
314 315 315 316 318 322 325 326 325 325 326 326 326 327 327 328 328 327 326 326 326 326 326 326 324 324 325 327 328 328 328 328 328 328 328 329 329 329 330 329 329 329
314 314 315 315 316 318 322 325 326 325 326 327 327 327 327 328 328 328 327 327 326 326 325 325 324 323 325 326 327 328 328 328 328 328 328 328 328 328 329 329 329 328
313 314 314 314 315 316 319 323 326 327 327 327 328 327 328 328 328 327 327 327 327 326 324 325 325 324 324 326 327 327 327 327 327 327 327 327 328 328 329 329 328 327
312 313 313 313 314 316 317 320 324 326 326 327 327 328 328 328 328 328 327 327 326 325 324 324 325 324 323 325 326 326 325 325 325 325 325 326 327 327 328 328 328 327
311 312 312 312 313 315 317 318 321 323 325 325 326 327 327 328 328 328 328 326 326 325 324 324 324 324 323 324 325 325 324 323 324 324 325 325 326 326 326 327 327 327
309 310 311 311 312 313 316 318 319 321 323 324 325 326 327 327 328 328 327 326 325 325 324 324 324 324 323 323 324 324 323 322 324 325 324 324 324 325 325 326 326 326
308 309 310 311 310 311 314 317 319 320 322 324 324 325 326 326 327 328 327 325 326 326 325 324 323 323 322 322 323 323 322 321 323 324 323 323 323 324 326 327 326 326
307 308 309 309 309 309 312 316 319 320 321 323 324 325 324 325 326 327 326 325 325 327 326 323 322 322 322 322 323 322 320 320 321 322 322 323 324 325 326 326 326 326
306 307 308 308 308 308 309 312 316 318 319 321 323 324 324 323 324 325 326 324 324 326 326 324 322 322 323 324 323 321 320 321 322 322 323 324 325 325 325 326 326 326
305 306 306 307 307 307 307 309 312 314 316 317 319 321 322 323 324 324 325 325 324 325 326 325 324 324 325 325 323 322 322 322 323 323 323 324 325 325 325 325 326 326
305 305 305 306 306 306 306 306 307 309 311 313 314 317 319 321 322 323 324 325 325 325 326 326 326 326 326 325 324 324 324 324 323 324 324 324 324 325 325 325 326 326
304 304 305 305 305 305 305 305 305 306 307 308 310 312 315 317 318 319 320 322 324 324 325 326 326 326 326 325 325 325 325 324 324 324 324 324 324 325 325 325 326 326
303 303 304 305 305 305 305 304 304 304 304 305 306 308 310 312 313 314 313 315 319 322 324 325 326 326 325 325 326 326 325 324 324 324 324 324 324 324 325 324 324 325
303 303 303 303 304 305 305 304 304 304 304 304 304 305 306 308 309 310 309 309 311 316 320 322 324 325 325 325 326 326 325 324 324 324 324 324 324 324 323 322 322 322

ECMWFNIL_850_thetae_066.txt.gz
Theta_e
329 329 330 330 330 330 330 329 328 328 327 326 327 329 330 330 330 329 329 330 330 331 331 331 331 332 331 330 330 331 329 327 327 327 327 328 328 330 331 328 329 330
327 328 329 330 330 330 329 328 328 327 326 325 325 326 328 329 329 330 330 330 331 331 330 330 331 331 331 330 330 331 328 324 323 325 328 329 329 331 330 328 328 328
325 326 327 329 330 330 330 329 329 329 329 328 326 325 326 327 329 329 330 330 331 331 330 330 330 330 331 330 330 330 326 322 321 324 327 329 330 330 329 328 327 327
325 325 325 326 328 329 330 330 330 329 329 329 328 327 327 327 328 328 329 329 331 331 329 329 329 330 330 330 329 329 325 321 322 325 328 329 329 330 329 328 327 327
324 324 325 325 326 329 330 330 330 330 330 330 330 329 328 327 328 328 328 329 330 331 330 329 329 329 330 329 329 330 328 325 326 328 329 330 330 330 329 327 327 327
322 323 324 326 326 327 329 330 330 330 330 330 330 329 328 327 328 328 329 330 330 330 330 329 329 329 330 329 328 328 328 327 329 330 330 329 329 329 328 328 327 327
319 321 323 325 326 326 327 328 329 329 330 330 329 329 329 328 327 328 329 329 329 330 330 329 329 329 329 328 327 327 326 326 328 329 329 329 330 329 329 328 328 329
316 317 319 322 325 326 326 327 328 328 329 329 329 328 329 328 328 327 327 328 329 329 330 329 328 328 327 327 327 327 327 327 328 328 329 329 330 330 329 328 328 330
315 315 317 318 321 324 326 327 327 328 328 328 328 328 328 328 328 327 326 326 327 328 329 329 328 327 327 327 327 326 325 327 328 328 329 329 330 330 329 327 328 329
314 315 315 316 317 319 323 326 327 327 327 327 328 328 328 328 327 327 327 326 326 328 329 328 327 327 326 325 326 325 324 326 328 329 329 329 329 329 328 328 327 327
314 314 315 315 315 316 318 322 325 327 326 326 327 328 328 328 327 327 327 327 327 328 330 329 328 326 325 325 326 326 327 328 329 328 328 328 329 328 328 327 327 327
313 314 314 314 314 315 316 317 321 324 326 326 326 327 328 328 327 326 326 328 328 329 329 330 328 327 326 326 327 327 328 330 330 328 328 329 329 329 327 326 327 327
312 312 313 313 313 314 315 316 317 320 323 325 325 326 327 328 328 327 327 328 328 329 329 329 329 328 327 326 326 327 327 328 329 329 329 330 330 329 328 326 326 327
310 310 311 311 312 313 314 315 316 317 319 323 325 325 326 327 327 328 328 328 328 328 329 328 327 328 328 325 324 324 326 327 329 328 329 329 329 329 328 325 324 326
310 310 309 309 310 312 314 315 316 316 317 320 323 325 325 326 327 327 328 328 328 328 329 328 327 327 328 325 322 322 324 327 328 328 328 328 328 329 328 325 325 327
309 309 309 309 309 310 312 315 316 316 317 318 321 323 325 325 326 327 327 327 328 328 328 328 327 327 327 326 324 322 323 326 328 328 328 327 327 328 328 327 327 328
308 308 308 308 308 308 310 313 315 316 317 318 320 322 324 325 326 327 327 327 328 328 327 327 328 328 327 326 325 322 323 325 327 326 326 325 326 328 328 327 328 329
307 308 308 308 308 307 308 310 312 315 317 318 319 321 323 324 325 326 327 327 327 328 328 327 327 328 327 326 325 324 324 325 325 324 325 326 327 327 328 328 328 329
307 307 307 307 307 307 307 307 309 312 314 317 318 320 322 323 324 325 326 326 326 327 327 327 327 327 327 326 326 326 326 326 326 324 324 326 327 326 327 327 327 328
307 307 306 306 307 306 306 306 307 308 310 313 315 318 320 322 322 324 325 325 325 325 326 327 327 327 327 326 327 328 327 327 327 325 324 326 327 327 326 326 326 327
306 306 306 306 306 306 306 306 306 306 307 309 311 313 315 318 319 320 321 323 324 325 325 326 326 326 326 326 326 327 326 326 327 326 324 325 327 326 326 328 328 327
305 305 305 306 306 306 305 305 305 305 305 306 307 308 310 312 314 316 317 319 321 323 324 325 325 325 325 325 325 325 324 324 326 327 325 324 324 322 324 328 329 328
304 304 305 305 305 305 305 305 305 305 304 304 305 306 307 308 309 311 312 314 316 318 321 323 324 325 325 325 325 324 324 325 326 326 325 324 322 321 322 325 327 328
303 303 304 304 304 304 304 305 305 304 304 304 304 304 305 305 306 307 308 310 311 313 316 319 322 324 324 325 325 324 325 326 326 325 325 325 323 322 323 324 325 326
303 302 303 303 303 304 303 304 304 304 304 304 304 304 304 304 305 305 306 307 308 309 312 315 318 321 324 325 325 325 326 326 325 325 325 325 325 324 324 324 325 325
301 302 302 302 302 303 302 303 303 303 304 304 304 304 303 303 304 304 304 305 306 307 309 311 313 316 320 323 325 325 326 326 325 323 323 324 324 324 324 324 324 324

ECMWFNIL_850_thetae_069.txt.gz
Theta_e
327 328 329 330 330 331 331 331 331 331 331 331 332 332 331 331 331 330 331 330 330 330 330 331 331 332 332 331 331 331 331 331 330 330 331 331 330 329 327 328 328 326
325 325 326 327 329 330 331 332 331 331 331 331 331 331 331 331 330 329 330 331 331 330 331 331 331 332 332 331 331 331 331 331 330 331 331 330 330 330 328 327 327 326
323 324 325 325 327 328 329 330 331 331 331 331 332 331 331 331 329 328 329 330 330 331 331 330 330 331 332 332 332 331 330 331 330 330 330 330 330 330 328 327 326 326
321 322 323 324 325 326 327 328 330 330 331 332 331 331 331 330 329 328 328 329 330 330 330 330 330 331 332 332 331 331 330 331 331 330 330 330 329 329 328 328 328 327
319 320 321 322 324 325 326 327 328 329 331 331 331 331 331 330 329 329 329 330 330 329 329 330 330 331 332 331 331 331 331 331 331 331 330 329 328 328 329 328 329 328
318 318 319 319 321 324 326 327 327 328 329 330 331 331 331 330 330 330 329 329 330 330 331 331 330 330 331 331 331 330 330 330 331 331 330 328 327 327 328 328 329 329
317 318 317 317 318 320 323 325 326 326 327 328 330 331 331 331 330 330 329 329 329 330 330 330 329 330 331 331 331 330 330 330 330 331 330 328 326 327 327 327 328 328
316 317 317 316 316 316 319 321 324 326 326 327 328 329 330 330 330 330 330 330 329 328 329 329 329 331 331 331 331 330 330 330 330 330 330 329 328 329 328 327 327 328
316 316 316 315 316 316 316 316 319 322 325 326 327 327 328 329 329 330 329 330 330 329 329 329 329 330 330 330 330 330 330 330 329 329 329 329 330 330 328 328 328 328
315 315 315 314 314 315 316 315 316 317 320 323 326 327 327 327 328 329 329 330 330 329 329 329 329 329 329 329 329 329 330 330 329 328 328 328 328 327 326 327 329 329
314 314 314 313 313 314 314 315 315 316 317 318 321 324 326 326 327 328 329 329 329 330 330 330 330 330 330 330 329 328 328 328 328 328 327 327 327 326 326 328 329 328
313 313 313 312 312 312 313 314 315 315 316 316 317 320 322 324 325 327 328 329 329 330 329 329 330 330 329 329 329 328 327 326 327 327 327 326 326 326 328 329 329 329
312 312 312 312 312 311 311 312 314 314 315 316 317 317 319 321 323 325 327 328 328 329 329 329 329 329 329 328 328 328 327 326 325 325 324 324 324 326 328 329 329 329
311 311 311 311 311 311 310 311 312 314 315 316 316 317 318 320 322 324 326 327 328 328 329 329 329 329 329 328 328 328 327 325 325 325 324 323 323 325 327 328 328 328
310 310 311 310 310 310 310 310 311 312 314 315 316 317 317 319 321 324 325 326 327 327 328 328 328 328 328 328 328 328 327 326 326 327 326 326 326 327 327 327 328 328
310 309 310 310 310 309 309 309 309 310 312 314 315 316 317 318 320 323 325 325 326 327 328 328 328 328 328 327 327 327 327 326 327 327 326 326 326 327 327 327 327 327
309 309 309 309 309 309 309 309 308 308 309 311 313 314 316 318 320 322 323 324 325 326 327 327 328 328 328 327 327 327 326 326 326 325 325 324 325 328 328 326 326 325
308 308 308 308 308 308 308 308 308 307 307 308 309 311 312 314 316 319 321 322 323 324 324 325 326 327 327 327 327 327 326 327 326 325 325 325 325 328 328 327 326 326
307 307 307 307 307 307 308 307 307 307 306 306 307 307 309 310 312 314 316 318 320 321 321 322 324 325 326 327 328 327 327 327 327 325 325 326 326 327 328 327 326 327
306 307 307 307 307 307 307 307 307 306 306 306 306 306 306 307 308 309 311 313 314 316 317 319 321 323 324 325 327 327 327 327 327 326 326 326 327 327 327 327 326 325
306 306 306 306 306 306 306 306 306 306 306 306 306 305 305 305 305 306 307 308 309 311 313 315 317 320 323 324 325 326 326 327 327 327 327 327 326 326 327 328 327 325
305 305 305 305 305 305 305 305 305 305 305 305 305 305 305 305 304 304 305 306 307 308 309 310 312 315 318 321 323 324 325 326 326 326 327 327 327 326 326 326 327 327
304 305 305 305 305 304 304 304 304 304 304 304 304 304 305 305 304 304 304 304 305 305 306 307 308 310 313 317 320 322 324 325 325 326 326 326 327 327 325 324 324 325
303 304 304 304 304 304 304 304 304 303 303 303 303 303 303 304 304 304 304 303 303 304 304 306 307 308 309 312 315 318 321 323 324 325 326 326 326 326 325 323 322 322
303 303 303 303 303 303 303 303 303 303 303 303 303 303 303 303 303 303 303 303 303 302 303 304 305 306 307 309 311 314 317 320 322 323 325 325 325 326 326 325 323 323
302 302 302 303 303 303 302 302 302 302 302 302 302 302 302 302 302 302 302 302 302 302 302 302 303 304 305 307 308 310 313 316 318 320 322 324 324 325 325 325 324 323

ECMWFNIL_850_thetae_072.txt.gz
Theta_e
323 323 324 325 325 326 327 328 329 330 332 332 331 331 332 332 332 332 332 332 332 331 331 330 330 330 329 330 330 330 330 331 331 331 331 331 331 331 330 329 330 330
321 321 321 322 323 324 325 326 328 329 330 331 331 332 332 332 333 332 332 331 331 330 330 329 329 328 327 329 330 330 330 331 331 331 331 331 330 330 329 329 330 330
320 320 320 320 321 322 323 324 325 327 329 330 331 332 332 332 333 332 332 331 330 330 330 329 329 328 327 328 329 330 330 330 331 330 330 330 330 330 330 330 331 331
319 319 319 319 319 320 321 322 324 326 327 328 329 330 331 332 332 332 332 332 331 331 331 330 330 329 328 328 329 329 329 329 330 330 330 330 331 330 331 331 332 331
318 318 318 318 318 318 318 319 321 324 325 326 327 328 329 331 332 332 332 332 332 332 331 331 330 329 328 328 328 328 329 329 330 330 331 331 331 330 330 331 331 332
317 317 317 317 316 316 316 316 318 319 321 322 323 325 327 329 329 330 331 331 331 331 331 330 330 330 329 328 328 329 329 329 330 330 330 330 330 330 330 331 331 331
316 316 316 316 316 315 315 316 316 316 316 317 319 321 323 325 326 328 329 330 330 330 330 330 330 329 329 329 328 329 329 330 330 330 330 330 330 330 330 330 330 331
315 315 315 315 315 314 314 314 314 315 315 315 316 317 319 321 322 324 325 327 328 329 330 330 329 329 328 328 328 328 329 330 330 330 330 330 330 330 329 329 330 330
314 314 314 314 314 313 313 313 313 314 314 314 315 315 316 317 318 320 322 324 326 328 329 329 329 329 329 329 328 327 328 329 329 330 330 330 330 330 330 330 330 329
313 313 313 313 313 313 312 312 312 313 313 314 315 315 316 316 316 317 319 322 324 326 327 328 329 329 329 328 327 326 327 329 329 329 330 330 330 330 330 330 330 329
312 312 312 312 312 312 311 311 311 312 312 313 314 315 315 315 316 316 317 319 322 324 326 327 328 328 328 328 328 328 328 329 329 328 329 330 330 330 330 330 330 329
311 311 311 311 311 310 310 310 310 310 311 313 313 313 314 314 315 315 316 318 321 323 324 326 327 328 328 328 328 328 328 328 328 328 329 329 328 328 329 329 329 330
310 310 310 310 310 310 310 310 309 309 310 311 312 312 313 313 314 316 316 318 321 322 322 324 326 327 327 328 327 327 328 328 328 328 328 328 328 328 328 327 328 329
309 309 309 309 309 309 309 309 308 308 308 308 309 310 311 311 312 314 316 318 320 321 321 323 325 326 326 327 327 327 327 328 328 328 328 329 328 328 328 327 326 327
309 309 309 308 309 309 308 308 308 307 307 306 307 308 308 309 309 311 313 315 317 319 319 321 323 324 325 325 325 326 327 327 327 327 328 328 328 328 328 327 327 327
308 308 308 308 308 307 307 307 307 307 307 306 306 306 306 306 307 308 309 310 312 314 316 318 320 321 322 323 324 326 327 327 327 327 327 327 327 328 328 327 327 327
307 307 307 307 307 306 306 306 306 306 306 306 306 306 305 305 305 306 307 307 308 309 311 313 315 316 318 321 323 324 326 327 327 326 327 327 327 328 327 326 326 327
307 307 307 306 306 306 305 305 305 305 305 305 306 306 305 305 304 305 305 305 306 306 308 309 310 312 314 318 321 323 324 326 326 326 326 326 327 326 326 325 324 324
306 306 306 306 305 305 305 305 304 304 304 304 304 305 305 305 305 305 304 304 304 305 306 307 308 309 311 313 316 319 322 324 325 326 327 326 326 326 326 325 324 325
305 305 305 305 305 304 304 304 304 304 304 303 303 303 303 304 304 304 304 303 303 303 304 305 306 307 308 309 312 315 319 322 323 324 326 326 326 326 326 326 325 324
305 305 304 304 304 304 304 303 303 303 303 303 303 303 302 303 303 303 303 303 302 302 303 303 304 306 307 308 309 311 314 318 321 323 324 325 326 326 326 326 326 325
304 304 304 304 304 303 303 303 303 302 302 302 303 302 302 302 302 302 302 302 301 301 302 302 303 305 306 306 307 309 311 314 318 321 322 324 325 325 326 326 327 327
303 303 303 303 303 303 302 302 302 302 302 302 302 302 302 302 302 301 301 301 301 301 301 301 302 303 305 306 306 307 309 311 314 317 319 321 323 324 325 326 326 328
302 302 302 302 302 302 301 300 301 302 301 301 302 302 302 301 301 301 300 300 300 300 300 301 301 302 303 304 305 305 306 308 311 314 316 318 320 322 323 324 325 326
301 301 301 301 301 301 300 299 298 300 301 301 301 301 301 301 301 301 300 299 299 299 300 300 301 301 301 302 304 304 305 306 308 311 313 315 317 319 321 322 324 325
301 301 301 300 300 300 300 298 297 298 299 300 300 301 301 300 300 300 300 300 299 299 299 300 300 300 300 301 302 303 303 304 306 307 310 311 313 315 317 320 322 324

ECMWFNIL_850_thetae_075.txt.gz
Theta_e
319 319 319 319 319 320 320 321 323 324 325 327 329 329 329 330 331 332 332 332 332 332 332 331 330 328 329 329 329 328 328 327 328 328 329 329 330 330 330 331 331 330
318 318 318 318 317 317 317 317 318 321 322 325 327 327 328 329 330 331 331 331 332 332 332 331 330 329 329 329 329 328 328 328 329 328 328 329 329 330 330 330 331 330
317 318 317 316 316 315 315 315 316 317 319 321 324 325 326 327 327 329 329 330 331 331 331 331 331 330 330 330 329 328 328 327 328 328 328 328 327 328 328 330 330 330
316 316 316 315 315 314 314 314 314 315 316 317 319 320 322 323 324 326 327 328 330 330 330 330 330 330 329 329 329 329 328 328 327 328 327 326 324 324 325 328 330 329
315 315 314 314 314 314 314 313 313 314 315 315 315 316 317 318 319 322 324 326 328 329 329 330 329 329 329 329 329 329 329 328 328 328 327 326 325 324 324 327 329 329
314 314 313 313 313 313 312 312 312 313 313 314 314 315 315 316 316 317 319 321 323 325 327 328 328 328 329 329 329 329 328 328 328 328 328 327 326 325 325 326 328 329
313 313 313 312 312 312 311 311 311 312 312 313 313 314 314 315 315 316 316 316 318 321 323 325 326 327 328 328 328 328 328 328 328 327 327 327 326 325 324 325 327 328
312 312 312 312 311 311 310 310 310 311 312 312 312 312 312 313 314 315 315 315 316 318 321 323 324 326 327 327 327 327 328 328 328 326 325 326 326 327 327 327 328 328
310 311 311 310 310 310 310 309 309 310 311 311 311 311 311 312 313 314 314 315 316 318 319 321 322 324 325 326 326 327 327 327 327 326 325 326 327 328 328 328 328 328
309 309 309 309 309 309 309 308 308 308 309 310 310 310 311 311 312 313 314 315 316 318 318 319 320 321 322 324 325 326 327 327 326 326 326 327 327 327 328 328 328 328
308 308 309 309 308 308 308 307 307 306 307 308 308 309 309 309 309 311 313 314 315 316 318 318 318 319 320 322 323 324 325 326 326 326 326 326 326 327 327 328 328 328
307 307 307 307 307 307 306 306 306 306 306 306 306 307 307 307 307 308 309 311 312 313 315 316 316 317 318 320 321 322 323 324 325 326 326 325 326 327 327 327 327 327
307 306 306 306 305 305 305 305 305 305 305 305 305 305 306 306 306 307 307 307 309 310 311 312 313 314 316 318 319 321 322 323 324 325 326 326 326 327 327 327 328 328
306 306 305 305 304 304 304 304 304 305 305 305 305 305 304 304 305 305 306 306 307 307 308 309 309 311 312 314 316 318 320 321 322 324 326 327 326 326 326 326 327 328
306 306 305 304 304 303 303 303 303 304 304 304 304 304 304 304 303 303 304 305 306 306 307 307 308 308 308 309 310 312 315 318 321 322 324 325 326 326 326 327 327 327
305 304 304 303 303 303 302 302 302 302 303 303 303 303 303 303 303 302 302 303 304 305 306 306 306 306 306 307 307 309 311 314 317 320 322 323 325 326 326 326 327 327
304 304 303 303 303 302 302 302 301 301 302 302 302 302 302 302 302 301 301 301 302 303 304 304 305 305 306 306 307 308 309 311 313 316 319 321 323 324 324 326 327 327
304 303 303 303 302 302 302 302 301 301 301 302 301 301 301 300 300 300 300 300 300 301 302 302 303 304 305 306 307 307 308 309 311 313 316 318 321 322 322 324 326 326
303 303 303 302 301 300 301 302 301 301 301 301 301 301 300 300 299 299 300 300 300 300 300 301 301 303 304 305 306 306 307 308 310 312 314 316 319 320 321 322 324 325
302 302 302 301 298 296 299 301 301 301 301 301 301 301 300 299 299 299 299 299 299 300 300 300 300 301 302 304 305 305 306 307 309 311 313 315 317 318 319 320 322 323
301 301 300 299 297 295 297 299 300 300 300 300 301 300 300 299 299 299 299 299 299 299 300 300 300 300 301 302 303 304 305 306 308 309 311 313 315 316 317 318 320 322
300 300 299 298 298 297 296 296 298 300 300 300 300 300 299 299 299 299 299 299 299 299 299 300 300 300 300 300 302 303 304 305 306 307 308 310 312 314 315 316 317 320
299 299 299 298 298 298 297 295 296 298 299 299 299 300 299 298 299 299 299 299 299 299 299 299 299 299 299 299 300 301 303 304 304 305 307 308 309 310 312 314 314 316
299 299 299 299 298 298 297 296 295 295 296 296 296 297 298 297 298 299 299 299 299 298 299 299 299 299 299 299 299 300 301 302 303 304 305 305 306 308 309 310 312 313
299 299 299 299 298 298 297 297 296 296 295 295 295 295 296 296 296 297 297 298 298 299 299 299 299 298 298 298 299 299 299 300 301 302 302 303 304 306 307 308 309 311
299 299 299 299 298 298 297 297 297 296 296 296 296 296 296 295 295 295 295 295 296 298 298 298 298 298 298 298 298 298 299 299 299 300 300 301 302 303 305 306 307 308

ECMWFNIL_850_thetae_078.txt.gz
Theta_e
318 317 317 317 317 317 316 317 317 319 321 322 323 324 325 326 326 328 329 329 329 330 330 330 330 330 330 329 329 329 329 329 329 328 328 327 327 327 328 328 329 329
317 316 316 315 315 315 315 315 315 316 317 319 320 321 322 323 324 325 326 327 328 329 329 330 330 330 329 328 328 329 329 329 329 328 328 328 327 327 327 327 328 328
315 315 314 314 314 314 314 314 314 315 315 315 316 317 319 320 321 321 323 324 326 327 328 329 329 329 329 328 327 328 328 328 328 328 328 328 328 327 327 327 327 327
314 313 313 313 313 313 313 313 314 314 315 315 315 315 315 316 316 317 318 320 322 324 326 327 327 328 328 328 328 327 327 327 327 328 328 328 328 328 328 328 328 327
313 312 312 312 312 312 312 312 313 314 314 314 314 314 314 315 315 315 316 316 318 320 322 324 325 326 327 327 327 327 327 326 326 326 327 327 327 327 328 328 327 327
311 311 311 311 311 311 311 311 312 312 312 312 313 313 313 314 314 315 315 315 315 315 317 318 320 322 324 324 325 326 326 326 326 325 326 326 327 327 327 326 327 327
310 310 309 309 309 309 309 309 310 310 310 311 311 312 312 312 312 313 313 314 314 314 314 315 316 317 319 321 322 323 324 325 325 325 325 326 327 327 326 326 326 327
309 309 308 308 307 307 307 307 308 308 308 309 310 310 311 311 311 311 312 312 313 313 314 314 314 315 316 317 319 320 321 322 323 324 325 326 326 326 325 325 326 327
307 307 307 307 306 306 306 306 306 307 307 308 308 308 309 309 310 310 311 311 312 313 313 313 313 314 315 315 316 317 318 319 320 322 323 324 324 325 325 325 326 326
306 305 305 306 306 305 305 305 305 306 306 306 307 307 308 308 308 309 309 310 311 311 311 311 311 311 312 313 314 314 315 316 317 319 320 321 322 323 324 325 325 325
304 304 303 304 304 305 305 304 304 305 305 305 305 305 306 307 307 308 308 308 309 309 308 308 309 309 310 310 311 312 313 314 315 316 318 319 320 321 323 324 325 326
303 303 302 302 302 303 304 304 304 304 304 304 303 303 304 305 305 306 307 307 307 307 307 307 307 307 308 308 309 310 311 312 313 314 316 318 319 321 322 323 325 326
303 302 302 301 301 301 302 303 303 303 303 303 303 303 303 303 303 304 305 305 306 306 306 306 306 307 307 307 308 308 309 310 311 312 313 315 317 319 321 322 323 324
302 302 302 301 301 301 301 301 301 301 301 301 301 302 302 302 302 302 303 303 304 304 304 305 305 306 306 306 307 307 308 308 309 310 311 313 315 317 319 320 321 322
302 301 301 301 301 301 301 301 301 300 300 299 299 300 301 301 301 301 301 302 302 303 303 304 304 304 304 304 305 306 307 308 309 309 310 312 313 315 316 318 319 320
299 298 299 299 300 300 301 301 301 300 300 298 298 299 299 300 300 300 300 301 301 302 302 302 303 303 303 303 304 305 306 307 308 309 310 311 312 313 314 316 317 319
296 295 297 298 300 300 300 300 300 300 300 298 298 298 298 298 299 299 300 300 300 300 301 301 301 301 301 302 303 304 305 306 307 307 308 309 310 311 312 314 316 317
295 295 295 297 298 299 299 299 300 300 299 298 297 298 298 297 297 298 298 299 299 299 300 300 300 300 300 301 302 303 304 305 305 306 307 307 308 309 311 312 314 316
296 295 295 295 296 297 297 297 298 298 297 296 297 298 298 297 297 297 297 298 298 299 299 299 299 299 299 300 300 301 302 303 304 305 305 305 306 307 309 310 311 313
296 296 295 295 295 295 295 295 295 295 295 295 297 298 298 297 297 296 297 297 297 298 298 299 299 299 298 299 299 300 301 302 303 303 303 304 304 305 306 307 309 310
297 296 296 295 295 295 294 294 294 294 294 294 295 295 295 295 296 296 296 297 297 297 298 298 298 298 298 298 298 299 299 300 301 302 302 302 303 303 304 305 306 307
298 297 296 296 295 295 295 295 295 295 295 295 294 294 294 294 294 295 296 296 297 297 297 298 298 298 298 298 298 298 298 299 299 300 301 302 302 302 302 303 304 305
298 297 297 296 296 295 295 295 295 295 295 295 295 294 294 294 293 293 294 295 296 297 297 297 297 298 298 298 298 298 298 298 298 298 299 300 300 301 301 301 302 303
298 298 297 296 296 296 295 295 295 295 295 295 295 295 294 294 293 293 293 293 295 297 297 297 297 298 298 297 297 297 297 297 297 297 298 298 299 299 299 300 300 301
298 298 297 297 296 296 296 296 295 295 295 295 295 295 294 293 293 293 293 293 293 295 296 296 297 297 297 297 297 297 297 297 297 296 297 297 297 298 298 299 299 300
298 298 298 297 297 296 296 296 296 295 295 294 294 294 294 293 293 293 293 293 293 293 295 296 296 296 296 297 297 296 296 296 296 296 296 297 297 297 298 298 299 300

ECMWFNIL_850_thetae_081.txt.gz
Theta_e
318 318 318 318 317 317 317 318 318 318 318 319 319 319 320 321 322 323 323 324 325 325 326 326 326 326 327 327 328 328 328 327 326 326 325 326 326 327 328 327 327 327
316 316 315 315 315 315 315 315 315 315 316 316 316 316 316 317 318 319 320 322 323 324 324 324 324 324 325 326 326 327 328 327 327 326 325 324 324 325 326 327 327 326
314 314 314 314 314 314 314 314 314 314 314 314 315 315 315 315 315 316 316 317 319 319 320 321 321 322 323 323 324 325 326 326 326 326 326 325 324 324 324 325 325 325
313 313 313 312 312 312 313 313 313 314 314 314 314 314 314 314 314 314 315 315 315 316 316 317 318 318 319 320 321 322 323 323 324 324 324 325 325 325 325 324 324 324
312 311 311 310 311 311 311 312 313 313 313 313 313 313 313 313 313 313 313 314 314 314 314 314 314 315 315 316 317 318 319 320 321 322 322 323 323 323 324 324 324 323
310 310 309 309 309 310 311 311 311 312 312 312 312 312 312 312 312 312 312 312 311 311 311 311 311 312 312 312 312 313 314 315 316 317 318 319 320 320 321 322 322 323
308 308 307 307 307 308 309 310 310 311 311 311 311 311 311 311 311 311 311 311 311 311 310 310 310 310 310 310 311 311 311 312 312 313 314 315 316 317 318 319 320 321
306 306 306 305 306 306 306 307 308 308 309 309 310 310 310 310 310 310 310 310 310 310 310 310 309 309 310 310 310 310 310 311 311 312 312 313 314 315 315 316 318 319
305 305 305 305 305 305 305 305 305 306 306 307 307 308 308 309 309 309 309 309 309 309 309 309 309 308 309 309 309 309 309 310 310 310 311 312 312 313 314 315 316 317
303 304 304 304 304 304 305 305 305 305 305 305 305 306 307 307 308 308 308 308 308 308 307 307 307 307 307 308 308 308 308 309 309 309 310 310 311 311 312 313 314 316
302 302 302 303 303 303 303 303 304 304 304 304 304 304 304 304 305 305 306 306 306 306 306 305 306 306 306 306 306 307 307 307 308 308 309 309 310 311 311 312 313 314
301 301 301 301 301 301 301 301 301 301 301 302 302 302 302 302 302 303 303 303 303 304 304 304 304 304 305 305 305 305 306 306 306 307 308 309 310 310 310 311 311 312
300 300 300 300 300 300 299 299 298 299 299 299 299 299 299 300 301 301 301 301 302 302 302 302 302 303 303 303 303 304 304 305 305 306 307 308 308 308 308 309 309 310
299 300 300 300 300 299 299 298 297 297 298 297 297 297 297 298 299 299 300 300 300 300 300 300 301 301 301 302 302 302 303 303 304 305 306 306 306 306 306 307 307 308
299 299 300 299 299 299 297 296 296 296 297 296 296 296 296 296 296 297 298 298 298 298 298 298 299 299 299 300 300 301 301 302 303 303 304 305 305 305 305 306 306 307
299 299 299 299 298 297 295 295 295 296 296 295 295 295 295 295 295 295 295 296 296 296 296 296 297 298 298 298 299 299 300 300 301 302 302 303 304 304 305 306 306 307
298 298 298 297 296 295 294 294 295 295 294 294 294 294 294 294 294 294 294 294 294 294 295 295 295 296 296 297 297 298 299 299 299 300 300 301 302 303 303 304 305 306
296 296 295 295 294 294 294 294 294 294 294 294 294 294 294 294 294 294 294 294 294 294 294 294 294 295 295 295 295 296 298 298 298 298 299 300 300 301 302 303 304 304
295 294 294 294 294 294 294 294 294 294 294 294 294 294 294 294 294 294 294 294 294 294 294 294 294 295 294 294 295 295 296 297 298 298 298 298 299 300 300 301 302 303
295 295 294 294 294 294 294 294 294 294 294 294 294 294 294 294 294 293 294 294 294 294 294 294 294 294 294 294 294 294 295 296 297 297 297 297 298 299 299 300 300 301
295 295 294 294 294 294 294 294 294 294 293 293 293 293 293 293 293 293 293 294 293 294 294 294 294 294 294 294 294 295 295 296 297 297 297 297 297 298 298 298 299 299
295 294 294 293 293 293 293 294 294 293 293 293 293 293 293 293 293 293 293 293 293 293 294 294 294 294 294 294 295 295 295 295 296 296 296 296 296 297 298 298 298 299
296 295 294 293 293 293 293 293 293 293 293 293 293 293 293 293 293 293 293 293 293 293 293 294 294 294 294 295 295 295 294 295 295 296 296 295 296 296 297 297 298 298
296 296 295 294 294 294 294 293 293 293 293 293 293 293 293 293 293 293 293 293 293 293 293 293 294 294 295 295 295 294 294 294 295 295 295 295 295 296 296 297 297 297
297 297 296 295 295 294 294 293 293 293 293 293 293 293 293 293 293 293 293 293 293 293 293 293 294 295 295 295 295 294 294 294 294 294 294 295 295 296 296 296 296 297
297 297 297 296 295 295 294 294 293 293 293 293 293 293 293 293 293 293 293 293 293 293 293 293 294 295 295 295 295 294 293 293 293 293 294 294 295 295 296 296 296 296

ECMWFNIL_850_thetae_084.txt.gz
Theta_e
316 316 315 315 315 315 315 315 315 315 315 315 315 315 315 315 315 315 315 315 315 316 316 317 319 319 320 320 320 320 319 319 321 322 323 323 324 324 324 324 324 323
314 314 314 313 313 314 314 314 314 314 314 314 314 314 314 314 314 314 314 314 314 315 315 315 315 316 316 316 316 316 315 315 316 317 318 319 320 322 322 323 322 322
313 313 313 313 313 313 313 313 314 314 313 313 313 313 313 313 313 313 313 313 313 313 314 314 314 314 313 313 313 313 313 313 313 313 313 314 315 316 317 319 320 320
311 311 311 311 312 312 313 313 313 313 312 312 312 312 312 312 312 312 312 312 312 312 312 312 312 312 312 312 312 311 311 312 312 312 312 311 312 312 313 314 315 316
310 310 310 310 311 311 312 312 312 312 312 311 311 311 311 311 311 311 311 311 311 311 311 311 311 311 311 311 311 311 311 311 311 311 311 311 311 311 312 312 312 313
308 308 308 309 309 310 311 311 311 310 310 310 310 310 310 310 310 310 310 310 310 310 310 310 310 310 310 310 309 309 309 309 310 310 310 310 310 310 311 311 312 312
307 307 307 307 307 308 308 308 307 307 307 307 307 308 308 308 308 308 308 308 308 308 308 308 308 308 308 308 308 308 308 308 308 308 308 309 309 310 310 310 310 311
306 306 305 306 306 306 306 306 305 305 305 305 305 305 305 305 306 306 306 306 306 305 305 305 305 305 305 305 305 305 305 305 306 306 306 307 307 308 309 310 310 310
304 304 304 304 304 304 304 304 303 303 303 302 302 302 302 302 303 303 303 303 303 303 303 303 303 302 302 302 302 303 303 303 304 304 305 305 306 307 307 308 309 310
303 302 302 302 302 302 302 301 301 301 301 300 300 300 300 300 301 301 301 301 300 300 300 300 300 300 300 300 300 300 301 301 302 302 303 304 304 305 306 307 307 308
301 301 300 300 300 299 299 299 299 299 298 298 298 298 298 298 298 298 298 298 298 297 297 297 297 297 297 298 298 299 299 300 300 301 301 302 303 303 304 305 305 306
300 299 299 299 298 298 298 298 297 297 296 296 296 296 296 296 296 296 296 296 295 295 295 295 295 295 295 295 296 296 297 298 299 299 300 300 301 302 303 304 304 305
299 298 297 297 296 296 296 296 296 295 295 295 295 295 295 295 295 295 295 295 294 294 294 294 294 294 294 294 294 295 296 297 297 298 298 299 300 300 301 302 303 304
298 297 296 295 295 295 295 295 295 295 295 295 295 295 295 295 295 295 295 294 294 294 294 294 294 294 294 294 294 294 295 296 297 297 297 298 298 299 300 301 302 302
297 296 295 294 295 294 294 294 295 295 295 295 295 295 295 295 295 295 295 295 294 294 294 294 294 294 294 294 294 294 295 295 296 296 297 297 297 298 298 299 300 301
296 295 294 294 294 294 294 294 294 295 295 295 295 295 295 294 294 294 294 294 294 294 294 294 294 294 294 294 294 294 295 295 296 296 296 296 296 297 297 298 299 300
295 294 294 294 294 294 294 294 294 294 294 294 294 294 294 294 294 294 294 294 294 294 294 294 293 294 294 294 294 294 294 295 295 296 296 295 296 296 297 297 298 298
294 294 294 294 294 294 294 294 294 294 294 294 294 294 294 294 294 294 294 294 294 294 293 293 293 293 293 294 294 294 294 295 295 295 295 295 295 296 296 297 297 298
294 294 294 294 294 294 294 294 294 294 294 294 294 294 294 294 294 294 294 294 294 293 293 293 293 293 293 293 294 294 294 294 295 295 295 295 295 295 296 296 297 297
294 294 294 294 294 294 294 293 293 293 293 293 293 293 293 294 294 294 294 293 293 293 293 293 293 293 293 293 293 293 294 294 295 295 294 294 295 295 296 296 296 296
293 293 293 293 293 293 293 293 293 293 293 293 293 293 293 293 293 293 293 293 293 293 293 293 293 293 293 293 293 293 294 294 295 295 294 294 295 295 296 296 296 296
293 293 293 293 293 293 293 293 293 293 293 293 293 293 293 293 293 293 293 293 293 293 293 293 293 293 293 293 293 293 293 294 294 294 294 294 295 295 295 296 296 296
293 293 293 293 293 293 293 293 293 293 293 293 293 293 293 293 293 293 293 293 293 293 293 293 293 293 293 293 292 293 293 293 293 294 294 295 295 295 295 296 296 295
294 293 293 293 293 293 293 293 293 293 293 293 293 293 293 293 292 292 292 293 293 293 293 293 293 293 292 292 292 293 293 293 293 294 294 294 295 295 295 295 295 295
295 294 294 293 293 293 293 293 293 293 293 293 293 293 293 292 292 292 292 292 292 292 292 292 292 292 292 292 292 292 292 293 293 293 294 294 294 295 295 295 295 295
296 295 295 294 293 293 293 293 293 293 293 293 293 293 293 292 292 292 292 292 292 292 292 292 292 291 291 291 291 292 292 292 292 293 293 293 294 294 294 295 295 295

ECMWFNIL_850_thetae_087.txt.gz
Theta_e
315 314 314 314 314 314 314 314 314 313 313 313 313 312 312 312 312 312 311 311 311 311 311 311 311 311 311 311 310 310 310 311 311 311 311 311 311 311 312 312 313 314
313 313 313 313 313 313 313 313 313 313 312 312 312 311 311 311 311 311 311 310 310 310 310 310 310 310 309 309 309 309 309 309 309 310 310 310 310 310 311 311 311 311
311 311 312 312 312 312 312 312 312 312 311 311 311 310 310 310 310 310 310 310 309 309 309 308 307 307 307 307 307 307 307 307 307 308 308 308 309 309 309 310 310 310
309 310 310 311 311 311 311 311 311 310 309 309 309 309 309 309 309 308 308 307 307 306 306 305 304 304 304 303 303 303 303 304 304 304 304 305 305 306 307 307 308 309
307 308 308 308 309 309 309 309 308 308 307 307 307 306 306 306 306 305 305 304 304 303 302 301 301 300 300 300 300 300 300 300 300 300 301 301 302 302 303 304 305 306
306 306 306 306 306 307 306 306 306 305 305 304 304 303 303 303 302 302 302 301 300 300 299 298 298 298 298 298 297 297 297 298 298 298 298 299 299 300 301 301 302 303
305 305 305 305 305 304 304 304 303 302 302 301 301 300 300 300 300 299 299 298 297 297 297 296 297 297 297 296 296 296 296 296 296 296 297 297 298 298 299 300 301 302
305 304 304 303 303 302 302 301 300 300 299 299 298 298 298 297 297 297 296 296 296 296 296 296 296 296 296 296 296 296 295 295 295 296 296 296 296 297 297 298 299 300
303 302 302 301 301 300 299 298 298 297 297 297 296 296 296 296 296 295 295 295 296 295 295 295 295 295 295 295 295 295 295 295 295 295 295 296 296 296 297 297 298 299
301 300 300 299 299 298 297 296 296 296 296 296 295 295 295 295 295 295 295 295 295 295 295 295 295 295 295 295 295 294 295 295 295 295 295 295 296 296 296 297 298 299
299 298 298 297 297 296 295 295 295 295 295 295 295 295 295 295 295 295 295 295 295 295 295 295 295 295 294 294 294 294 294 294 294 295 295 295 295 296 296 296 297 298
297 297 296 296 295 295 295 295 295 295 295 295 295 295 295 295 295 294 294 294 294 294 294 294 294 294 294 294 294 294 294 294 294 294 295 295 295 295 296 296 297 297
296 296 295 295 295 295 295 295 295 295 295 295 294 294 294 294 294 294 294 294 294 294 294 294 294 294 294 294 294 294 294 294 294 294 295 295 295 295 295 296 296 297
295 295 295 295 295 295 295 295 295 294 294 294 294 294 294 294 294 294 294 294 294 294 294 294 294 294 294 294 294 294 294 294 294 294 295 295 295 295 295 295 296 296
295 294 295 295 295 295 294 294 294 294 294 294 294 294 294 294 294 294 294 294 294 294 294 294 294 294 294 294 294 294 294 294 294 295 295 295 295 295 295 295 296 296
294 294 295 295 294 294 294 294 294 294 294 294 294 294 294 294 294 294 294 294 294 294 294 294 294 293 293 294 294 294 294 294 294 295 295 295 295 295 295 295 296 296
294 294 294 294 294 294 294 294 294 294 294 294 294 294 294 294 294 294 294 293 293 293 293 293 293 293 294 294 294 293 294 294 294 294 294 294 294 295 295 295 296 296
294 294 294 294 294 294 294 294 293 293 293 293 293 293 293 293 293 293 293 293 293 293 293 293 293 293 294 294 293 293 293 293 294 294 294 294 295 295 295 295 296 296
294 294 294 294 294 293 293 293 293 293 293 293 293 293 293 293 293 293 293 293 293 293 293 293 293 293 293 293 293 293 293 293 294 294 294 294 295 295 295 295 295 295
294 293 293 293 293 293 293 293 293 293 293 293 293 293 293 293 293 293 293 293 293 293 293 293 293 293 293 293 293 293 293 293 293 294 294 294 295 295 295 295 295 295
293 293 293 293 293 294 294 293 293 293 293 293 293 293 293 292 292 292 292 293 292 292 292 293 293 293 293 293 293 293 293 293 293 293 294 294 294 294 294 294 294 294
293 293 293 293 293 294 294 293 293 293 293 293 293 292 292 292 292 292 292 292 292 292 292 292 292 293 293 293 293 293 293 293 293 293 293 293 294 294 294 294 294 294
293 293 293 293 293 294 293 293 293 293 293 293 292 292 292 292 292 292 292 292 292 292 292 292 292 292 292 293 293 293 293 293 293 293 292 293 293 293 293 293 293 293
293 293 293 293 294 293 293 293 293 293 293 293 292 292 292 292 292 292 292 292 292 292 292 292 292 292 292 292 292 292 292 292 292 292 292 292 292 293 293 293 293 293
293 293 293 293 293 293 293 293 293 293 293 293 292 292 292 292 292 292 292 292 292 292 292 292 292 292 292 292 292 292 292 292 292 292 292 292 292 292 292 292 292 293
293 293 293 293 293 293 293 293 293 293 293 292 292 292 292 292 292 292 292 291 291 291 292 292 292 292 292 292 292 292 292 291 291 291 291 291 292 292 292 292 292 292

ECMWFNIL_850_thetae_090.txt.gz
Theta_e
315 314 313 313 313 313 313 312 312 312 311 311 311 310 310 309 309 308 307 306 305 304 303 302 302 302 301 301 301 301 301 301 302 302 303 303 304 305 305 306 307 307
313 312 312 312 312 312 312 311 311 310 310 310 310 309 308 307 306 305 304 303 301 300 300 299 299 299 298 298 298 298 298 298 298 298 298 299 299 300 301 302 302 304
311 312 312 312 312 312 311 310 309 309 309 308 307 307 306 304 303 302 300 299 298 298 297 297 297 297 297 297 297 297 297 297 297 297 297 296 296 297 298 299 301 304
310 310 310 310 310 309 308 308 307 307 306 306 305 304 302 301 300 298 297 297 297 297 297 297 297 297 297 297 296 296 296 296 296 296 296 296 296 296 296 297 299 301
308 308 308 308 307 306 305 305 304 304 303 302 302 300 299 298 297 297 296 296 296 296 296 296 296 296 296 296 296 295 295 295 295 295 295 295 296 296 296 297 298 300
307 306 305 305 304 303 303 302 301 301 300 300 299 298 297 296 296 296 296 296 296 295 295 295 295 295 295 295 295 295 295 295 295 295 295 295 296 296 296 296 298 300
306 304 304 303 302 301 300 299 299 299 298 297 296 296 296 296 295 295 295 295 295 295 295 295 295 295 295 295 295 295 295 294 294 295 295 295 296 296 296 296 297 299
304 302 302 300 299 298 298 297 297 297 296 296 296 295 295 295 295 295 295 295 295 295 295 295 295 295 295 295 295 294 294 294 294 294 295 295 295 295 296 296 297 299
301 300 299 298 297 297 296 296 296 296 296 295 295 295 295 295 295 295 295 295 295 294 294 294 294 294 294 294 294 294 294 294 294 294 295 295 295 295 296 297 297 298
299 298 297 296 296 296 296 296 295 295 295 295 295 295 295 295 295 295 294 294 294 294 294 294 294 294 294 294 294 294 294 294 294 295 295 295 295 295 296 297 297 298
297 296 295 295 295 295 295 295 295 295 295 294 295 294 295 295 294 294 294 294 294 294 294 294 294 294 294 294 294 294 294 294 294 295 295 295 295 295 296 297 297 298
296 295 295 295 295 295 295 295 294 294 294 294 294 294 294 294 294 294 294 294 294 294 294 294 294 294 294 294 294 294 294 294 294 294 295 294 295 296 297 297 297 298
295 295 295 295 295 295 295 294 294 294 294 294 294 294 294 294 294 294 294 294 294 294 294 294 294 294 294 294 294 294 294 294 294 294 294 294 294 296 297 297 297 297
294 295 295 295 294 294 294 294 294 294 294 294 294 294 294 294 294 294 294 294 294 294 294 294 293 293 294 294 294 294 294 294 294 294 294 294 295 296 296 297 297 297
294 294 294 294 294 294 294 294 294 294 294 294 294 294 294 294 293 293 294 293 293 293 293 293 293 293 293 294 294 294 294 294 294 294 294 295 295 296 296 297 297 297
294 294 294 294 294 294 294 294 294 294 294 293 293 293 293 293 293 293 293 293 293 293 293 293 293 293 293 293 293 294 293 294 294 295 296 296 296 296 296 297 297 297
294 294 294 294 294 294 294 294 293 293 293 293 293 293 293 293 293 293 293 293 293 293 293 293 293 293 293 293 293 294 293 294 296 296 297 297 296 297 296 297 297 297
294 294 294 293 294 294 294 293 293 293 293 293 293 293 293 293 293 293 293 293 293 293 293 293 293 293 293 293 293 294 293 295 296 297 297 297 297 297 297 296 297 296
293 294 294 294 294 293 293 293 293 293 293 293 293 292 292 292 292 292 292 292 293 293 293 293 293 293 293 293 293 293 293 295 297 297 297 297 297 297 296 296 296 296
293 294 294 294 294 293 293 293 293 293 293 292 292 292 292 292 292 292 292 292 292 293 293 293 293 293 293 293 293 293 293 295 297 297 297 297 297 296 296 296 296 296
293 294 294 294 293 293 293 293 293 293 292 292 292 292 292 292 292 292 292 292 292 292 292 293 292 293 293 293 293 293 294 295 297 297 297 297 296 296 296 296 295 295
294 294 294 293 293 293 293 293 293 293 292 292 292 292 292 292 292 292 292 292 292 292 292 293 292 293 293 293 293 293 294 295 296 297 297 296 296 296 296 296 295 294
294 294 293 293 293 293 293 293 293 293 292 292 292 292 292 292 292 292 292 292 292 292 293 293 292 292 292 293 293 293 294 295 296 296 297 296 296 296 296 295 295 294
294 293 293 293 293 293 293 293 293 293 292 292 292 292 292 292 292 292 292 292 292 292 292 293 292 292 292 292 292 292 293 295 295 296 296 296 296 296 296 295 295 294
294 294 294 293 293 293 293 293 293 293 293 292 292 292 292 292 292 292 292 292 292 292 292 292 292 292 292 292 292 292 292 294 295 295 295 296 295 295 295 295 295 295
294 294 294 293 293 293 293 293 293 293 293 292 292 292 292 292 292 292 292 291 292 292 292 292 292 292 292 292 292 292 292 293 294 294 294 296 295 295 295 295 294 294

ECMWFNIL_850_thetae_093.txt.gz
Theta_e
316 316 315 314 314 313 313 313 313 313 312 310 308 306 305 303 301 300 299 298 298 298 298 298 298 298 298 297 297 297 297 297 297 297 296 297 297 297 297 299 301 304
314 314 313 313 313 313 312 312 311 312 310 307 305 303 301 299 298 298 297 297 297 297 297 297 297 297 297 297 297 297 296 296 297 297 297 297 296 297 299 300 301 303
313 312 312 312 312 312 311 310 309 308 306 304 302 300 298 297 297 297 297 297 296 296 296 296 296 296 296 296 296 296 296 296 296 297 299 298 296 298 300 301 303 304
311 311 311 311 311 311 311 309 306 304 303 301 299 298 297 296 296 296 296 296 296 296 296 296 296 296 295 296 295 296 296 297 297 299 301 301 300 299 298 300 305 305
310 311 311 310 310 310 308 305 303 301 299 298 297 296 296 296 296 295 295 295 295 295 295 295 296 295 295 296 295 295 297 298 299 300 302 303 303 301 298 301 305 305
310 310 310 308 307 306 304 301 300 298 297 297 296 296 296 295 295 295 296 296 295 295 295 295 295 295 295 295 295 294 295 297 298 300 301 302 303 303 301 302 304 304
309 308 308 305 303 301 300 299 297 296 296 296 296 295 296 295 295 295 296 296 295 295 295 294 295 295 294 295 295 294 294 295 297 299 301 301 302 303 303 303 303 303
308 306 303 301 300 299 298 297 296 296 296 295 295 295 296 295 295 295 296 296 295 294 294 295 294 294 294 294 295 295 295 296 296 298 300 301 302 302 303 303 303 303
308 304 300 299 299 298 297 297 296 296 296 295 295 295 295 295 295 295 296 296 295 294 294 295 294 294 295 294 294 295 296 297 298 298 300 301 302 302 302 303 303 302
305 303 299 298 298 297 297 296 295 295 296 295 295 295 295 296 296 296 295 294 294 294 294 294 294 294 294 294 294 294 295 297 299 300 300 301 302 303 302 302 302 301
300 300 298 297 296 296 296 295 294 295 295 295 295 295 296 296 297 298 297 294 294 294 294 294 294 294 294 294 294 295 296 297 299 300 301 302 302 303 302 301 301 300
297 297 296 296 296 295 295 294 294 294 295 296 296 295 296 296 296 296 296 294 293 294 294 294 294 294 294 293 294 296 298 297 298 301 302 302 302 302 301 301 301 300
296 296 296 296 295 295 295 294 294 294 294 295 296 296 297 297 296 294 294 294 293 293 293 294 294 293 294 293 293 296 299 298 298 300 301 300 301 301 300 300 300 300
296 296 295 295 295 295 294 294 294 294 294 294 294 296 297 298 298 296 294 293 293 293 293 293 293 293 293 294 293 295 299 300 299 299 300 300 300 300 300 300 300 299
296 295 295 295 295 295 294 294 294 294 294 294 294 294 295 296 297 297 295 293 293 293 293 293 293 293 293 293 293 293 296 300 301 300 301 300 300 300 300 300 299 299
295 295 294 294 294 294 294 294 294 294 293 293 293 294 294 295 295 296 294 293 293 293 293 293 293 293 293 293 293 293 295 299 301 301 300 300 300 300 299 299 299 299
295 295 295 294 294 294 294 294 294 294 293 293 293 293 293 293 293 294 293 292 293 293 293 293 293 293 293 293 293 294 295 298 300 301 300 300 299 299 299 299 298 298
297 296 295 295 295 295 295 294 294 294 294 293 293 293 293 293 293 293 293 292 292 293 292 293 293 293 293 293 293 294 295 298 300 300 300 299 299 299 299 298 298 297
299 298 297 296 296 295 294 295 294 294 293 293 293 293 292 293 293 294 294 294 293 292 293 292 293 293 293 293 293 294 295 298 300 300 300 299 299 299 298 298 297 297
300 299 298 296 296 296 296 295 294 294 294 294 294 293 293 293 293 293 294 295 294 293 292 292 292 292 293 293 293 294 296 299 300 300 300 299 299 299 298 298 298 297
300 299 298 298 297 297 296 295 294 294 296 296 296 295 295 294 293 293 294 295 295 294 293 292 292 292 292 293 293 294 297 299 300 300 300 299 299 298 298 298 297 297
300 299 299 299 298 297 295 293 294 295 296 296 296 296 295 293 293 293 293 294 295 296 294 292 292 292 292 292 293 294 296 298 299 299 299 299 298 298 298 298 297 296
299 299 299 298 298 297 295 294 295 297 297 297 297 297 296 294 294 293 292 292 294 295 295 293 291 292 292 292 293 293 295 297 298 298 299 299 298 297 298 298 297 296
299 299 299 299 299 297 294 295 297 298 298 298 299 298 297 297 296 295 293 292 291 292 294 293 292 291 292 292 292 292 293 296 297 297 298 299 297 297 298 298 296 296
299 299 299 299 297 296 295 295 296 297 298 299 299 299 299 299 298 298 296 294 292 291 291 292 292 291 291 291 292 292 292 294 295 295 296 298 298 297 297 297 296 295
299 299 298 298 296 295 295 296 296 297 299 300 299 299 299 298 298 298 297 297 296 294 292 291 291 291 291 291 291 292 292 292 293 293 294 296 298 297 297 297 296 295

ECMWFNIL_850_thetae_096.txt.gz
Theta_e
318 317 317 317 316 315 314 313 313 313 311 306 302 301 299 299 299 298 298 298 298 298 298 298 298 297 298 298 297 297 297 297 297 296 296 297 298 298 299 300 299 302
316 315 314 314 313 313 312 312 312 310 306 301 299 298 298 298 298 297 297 297 297 297 297 297 297 297 297 297 297 297 297 297 297 297 296 296 296 296 298 301 298 296
314 313 312 312 311 311 311 311 310 305 300 298 298 297 297 297 297 297 297 297 297 297 297 297 297 297 297 297 297 297 296 297 299 300 299 295 295 296 299 303 301 295
312 312 312 311 310 310 310 308 304 300 298 298 297 297 297 296 296 296 296 296 296 296 297 297 297 296 296 296 296 297 297 299 300 300 300 298 297 296 299 303 302 297
312 312 312 311 311 310 309 305 301 299 298 297 297 297 297 296 296 296 296 296 296 296 296 296 296 296 296 295 295 296 296 299 301 299 300 302 302 300 299 302 302 300
311 311 311 311 310 308 305 301 299 298 297 297 296 297 297 297 296 296 296 295 295 296 296 295 295 296 296 296 295 295 296 299 301 300 300 303 303 303 303 302 302 301
311 311 310 310 307 304 301 299 298 297 297 297 296 296 297 297 296 296 295 295 295 295 295 295 295 295 296 296 295 296 296 297 298 299 300 302 303 303 303 302 302 300
310 310 309 307 303 300 299 298 297 296 296 296 296 296 297 296 297 297 295 295 295 295 295 295 295 295 295 295 296 297 298 298 299 300 302 303 303 302 301 301 302 301
309 308 305 303 300 299 298 297 296 296 296 296 295 296 296 296 296 296 295 295 295 295 295 295 295 295 294 294 295 297 299 301 302 302 303 304 303 302 301 301 301 301
308 305 302 300 299 299 298 297 296 296 296 295 296 297 298 297 296 295 294 294 294 294 294 294 294 294 294 296 297 296 298 302 304 303 303 303 302 301 301 301 300 300
305 302 300 299 298 298 298 296 295 295 295 296 297 298 299 300 298 295 294 294 294 294 294 294 294 294 294 297 300 299 298 300 302 302 301 301 300 300 301 301 300 300
302 300 298 298 298 297 296 295 295 296 296 296 296 296 297 297 296 294 294 294 294 294 294 294 294 294 293 294 298 301 301 300 301 301 300 300 301 301 300 300 300 300
299 298 297 297 297 296 295 295 296 297 297 297 298 298 296 294 294 294 294 294 294 294 294 294 294 293 294 294 294 298 301 301 301 302 301 301 301 301 300 300 299 299
297 296 296 296 296 296 295 295 296 296 297 298 300 300 299 297 294 293 293 293 293 294 293 293 294 293 293 294 294 296 299 301 301 301 301 301 301 300 300 298 297 298
297 296 296 296 296 296 295 295 295 295 295 296 298 300 301 300 296 293 293 293 293 293 293 293 294 294 293 293 294 296 297 300 301 301 301 300 300 300 299 297 296 296
296 296 295 295 295 295 295 295 295 295 295 296 296 297 299 298 295 293 293 293 293 293 293 294 293 293 293 293 294 295 297 299 301 301 300 300 300 300 299 298 297 296
296 295 295 295 295 294 295 295 295 295 295 295 294 294 295 295 293 293 293 293 293 293 293 293 293 293 293 293 294 295 296 299 301 301 300 300 300 300 299 299 298 296
295 295 295 295 295 295 295 295 295 295 294 294 294 294 294 294 293 293 293 292 293 293 293 293 293 293 293 293 294 295 296 298 300 301 300 299 299 300 299 299 298 296
296 295 295 295 296 295 295 296 296 294 294 294 294 294 293 294 295 293 293 293 293 293 293 293 293 293 293 293 293 295 296 298 300 301 300 299 299 299 299 299 298 296
298 297 296 296 296 296 297 296 295 293 293 293 293 293 293 294 295 294 293 293 292 292 292 292 292 292 292 293 293 295 297 299 300 300 300 300 299 298 299 299 298 296
300 297 296 296 296 297 297 295 293 294 294 294 294 294 293 293 293 294 294 293 292 292 292 292 292 292 292 292 293 294 296 298 300 300 300 300 298 297 299 299 297 296
300 297 297 297 297 297 295 294 295 296 295 295 294 294 293 293 293 294 294 294 293 292 292 292 292 292 292 292 292 293 294 296 298 299 299 300 298 297 298 299 297 296
299 298 298 298 297 296 295 294 295 295 295 294 294 293 293 293 293 293 293 294 293 292 292 292 292 291 292 292 292 292 292 293 295 297 298 299 299 297 298 298 297 296
299 298 298 298 297 295 295 295 295 295 296 295 294 294 294 293 293 292 292 292 292 292 292 292 292 291 292 291 291 292 292 292 293 294 295 297 298 298 297 297 297 297
299 299 299 299 297 295 295 296 297 297 298 297 297 297 298 298 296 294 292 292 292 292 292 292 292 291 291 291 291 291 291 292 292 292 293 294 296 297 298 297 297 297
299 299 300 299 297 295 296 297 297 297 298 299 299 300 300 299 298 296 295 294 293 292 292 292 292 291 291 291 291 291 291 291 291 291 292 292 293 295 296 297 296 296

ECMWFNIL_850_thetae_099.txt.gz
Theta_e
323 322 323 322 321 321 320 317 315 313 311 307 305 303 302 301 300 299 299 299 299 298 298 298 298 298 297 297 298 298 297 297 297 296 297 297 297 297 296 295 295 295
321 321 321 321 320 319 317 315 313 311 307 303 301 300 299 299 298 298 298 298 298 298 298 298 297 297 297 297 298 298 297 296 296 296 296 296 296 297 296 295 295 295
318 318 319 318 318 316 314 313 312 307 302 299 299 298 298 298 298 298 298 297 297 297 297 297 297 297 297 297 298 297 297 296 296 296 295 295 296 296 295 295 295 295
317 316 316 316 315 313 311 311 308 301 298 298 298 297 297 297 297 297 297 297 297 297 297 297 297 297 297 297 297 297 296 296 297 297 296 296 297 296 295 295 295 295
314 312 312 312 311 311 310 306 301 298 298 298 297 297 297 297 297 297 296 297 297 296 297 297 296 296 296 296 297 297 296 296 297 298 297 297 297 296 295 295 295 295
310 309 309 310 310 309 307 301 298 298 298 298 297 297 297 296 296 296 296 297 296 297 296 296 296 296 296 296 296 296 295 295 297 298 297 296 295 296 296 296 295 294
309 309 309 310 309 306 302 299 298 298 297 297 297 297 297 296 296 296 296 297 297 297 296 296 296 295 295 295 295 295 295 296 299 300 298 296 295 296 297 296 295 295
310 309 309 308 306 303 300 298 298 297 297 297 297 297 297 296 296 296 296 296 296 296 296 296 296 295 295 295 296 297 297 298 300 301 298 296 296 298 298 298 296 295
309 308 307 306 303 301 299 298 297 297 297 297 297 297 297 296 296 296 296 296 296 296 296 296 296 296 295 295 296 298 299 298 299 299 297 296 296 298 299 299 297 296
309 308 306 304 301 300 299 298 297 297 298 298 297 297 296 296 296 296 296 296 296 295 295 295 295 295 295 295 296 297 297 297 297 297 297 297 296 297 299 299 298 296
308 306 304 301 300 299 298 297 297 297 298 297 297 296 296 296 295 295 295 295 295 295 295 294 294 295 296 296 295 296 297 298 298 299 300 299 296 295 296 297 296 295
306 305 302 300 300 299 298 297 297 297 297 297 297 296 296 295 295 295 295 295 295 295 294 294 294 294 295 296 296 296 298 300 300 300 301 299 297 295 295 294 294 294
305 303 301 300 300 299 297 296 296 296 297 297 297 296 295 295 295 295 295 295 295 294 294 294 294 294 294 296 297 297 298 300 300 300 300 299 298 296 295 294 293 293
303 302 300 300 299 297 296 296 296 297 297 296 295 295 295 295 295 295 295 294 294 294 294 294 294 294 295 296 297 298 298 299 300 300 300 300 299 297 296 295 294 293
302 301 300 299 297 296 296 296 296 297 298 297 295 294 294 294 294 294 294 294 294 294 294 294 294 294 294 295 297 298 299 299 299 299 300 300 299 298 297 297 297 294
301 300 299 297 297 296 297 297 297 298 298 297 296 295 294 294 294 294 294 294 294 294 294 294 294 294 294 295 296 298 299 299 299 298 299 299 299 299 298 298 298 295
300 299 298 297 297 296 296 296 296 297 297 297 296 295 294 294 294 294 294 294 294 294 294 294 293 293 294 295 296 297 298 299 299 298 298 298 299 299 298 298 298 295
298 298 297 297 296 296 296 295 295 295 296 296 295 294 294 294 294 293 294 293 293 293 293 293 293 293 294 295 295 297 298 299 299 299 299 298 298 299 299 299 298 295
297 296 296 296 295 295 295 295 295 295 295 295 294 294 293 293 293 293 293 293 293 293 293 293 293 293 293 294 295 297 299 299 299 299 300 299 298 298 298 299 298 295
296 295 295 295 295 295 295 295 295 294 294 294 294 294 294 294 293 293 293 293 293 293 293 293 293 293 293 294 295 296 298 299 299 299 299 299 297 297 298 298 298 296
295 295 295 295 295 295 295 294 294 294 294 294 294 294 294 294 293 293 293 293 292 292 293 293 292 292 292 293 293 294 296 297 297 298 299 298 296 297 298 298 297 296
296 296 296 295 295 295 295 294 294 294 294 294 294 294 294 294 293 293 293 293 292 292 292 292 292 292 292 292 292 292 293 294 294 296 297 297 296 296 297 297 296 296
296 296 296 295 295 295 295 294 293 294 294 294 294 294 294 294 294 293 293 292 292 292 292 292 292 292 292 292 292 292 292 292 292 293 294 295 295 296 296 296 296 295
297 296 296 296 296 295 294 294 294 294 294 294 294 294 293 293 293 293 293 292 292 292 292 292 292 292 292 292 292 292 292 292 292 292 292 293 294 295 295 295 295 294
298 297 296 296 296 295 294 294 294 294 294 293 293 293 293 293 293 293 292 292 292 292 292 292 292 292 292 292 292 292 292 292 292 292 292 291 292 293 293 293 293 292
298 297 296 296 295 294 294 294 294 294 293 294 294 294 293 293 292 293 292 292 292 292 292 292 292 292 292 292 292 292 292 292 291 291 291 291 291 291 291 291 291 291

ECMWFNIL_850_thetae_102.txt.gz
Theta_e
327 326 326 325 324 324 322 321 321 318 313 310 310 309 308 307 305 304 303 302 301 300 299 299 299 298 298 298 298 297 297 297 298 297 297 297 296 296 295 295 295 295
325 325 324 324 323 322 320 319 319 316 311 308 308 307 305 304 302 301 300 299 299 299 298 298 298 298 298 298 298 297 297 297 297 297 296 296 295 295 295 294 295 295
324 323 323 322 321 321 319 318 317 314 308 306 304 303 302 301 300 299 298 298 298 298 298 297 297 297 298 298 298 297 297 297 297 296 296 295 295 295 295 294 295 295
322 321 321 321 320 319 318 318 315 309 305 303 301 301 300 299 299 298 298 297 297 297 297 297 297 297 298 298 297 297 297 297 296 296 295 295 295 295 295 295 295 294
320 319 319 319 318 317 317 317 312 305 301 300 300 299 299 298 298 297 297 297 297 297 297 297 297 297 297 297 297 297 297 296 296 295 295 295 295 295 294 294 294 294
318 318 317 317 317 316 315 313 307 300 299 299 299 299 298 298 297 297 297 297 297 297 297 297 297 297 297 297 297 296 296 296 295 295 295 295 295 294 294 294 294 294
317 317 316 316 315 313 312 308 302 298 298 298 298 298 297 297 297 297 297 297 297 297 297 297 297 297 296 296 296 296 296 296 295 294 295 295 295 294 294 294 294 294
315 315 314 313 312 310 306 302 298 298 299 298 298 297 297 297 297 297 297 297 297 297 297 297 297 297 296 296 296 296 296 295 294 294 295 295 295 294 294 293 293 293
312 311 310 310 309 306 301 299 298 299 299 298 297 297 297 297 297 297 297 296 297 297 296 297 296 296 296 296 296 296 295 295 294 294 294 294 294 294 293 293 293 293
309 309 308 308 307 303 300 299 299 299 298 297 297 297 297 297 296 296 296 296 296 296 296 296 296 296 296 296 296 295 295 295 294 294 294 294 293 293 293 293 293 293
309 309 309 307 305 301 300 300 299 298 298 297 297 297 297 296 296 296 296 296 296 296 295 295 295 296 295 295 295 296 296 296 295 294 294 293 293 293 293 293 293 293
309 309 308 306 303 301 300 299 298 297 297 297 297 297 296 296 296 296 296 295 295 295 295 295 295 295 295 295 296 296 297 297 296 294 294 294 294 294 294 293 293 293
309 308 307 304 302 300 299 298 297 297 297 296 296 296 296 296 296 296 295 295 295 295 295 295 295 295 295 296 296 296 297 297 296 295 295 295 295 295 295 295 293 292
309 308 306 303 301 300 298 297 297 296 296 296 296 296 296 296 295 295 295 295 295 295 295 295 295 294 295 296 297 297 297 297 297 297 297 297 296 296 297 296 294 292
309 306 304 301 300 299 298 297 297 296 296 296 296 295 295 295 295 295 295 295 295 295 295 295 294 294 295 296 297 297 297 297 298 298 299 298 297 297 298 297 295 292
307 305 303 302 301 299 298 297 297 296 296 296 296 295 295 295 295 295 295 295 295 295 294 294 294 294 295 296 297 296 296 296 297 298 299 298 298 298 298 298 296 293
306 305 303 302 301 299 298 297 296 296 296 296 295 295 295 295 295 295 295 294 294 294 294 294 294 294 295 296 297 296 296 296 297 298 298 298 298 298 298 298 297 294
305 305 303 302 301 299 298 297 296 296 296 295 295 295 295 295 294 294 294 294 294 294 294 294 294 294 295 295 296 296 296 298 298 298 298 297 297 298 298 298 297 294
305 304 303 302 301 299 298 298 297 297 297 296 295 294 294 294 294 294 294 294 294 294 294 294 294 294 295 295 296 297 297 299 299 298 298 297 297 297 298 297 296 294
305 303 302 301 301 300 299 298 297 297 297 296 295 294 294 294 294 294 294 294 294 294 294 294 293 294 294 295 296 297 298 298 298 298 298 296 296 296 297 297 295 293
304 303 302 301 300 300 299 298 297 296 296 295 294 294 294 294 294 294 294 294 293 293 293 293 293 293 293 294 295 296 297 298 298 298 297 296 295 295 296 295 293 292
303 302 301 300 299 298 297 296 296 295 295 295 294 293 293 293 293 294 294 293 293 293 293 293 293 292 292 293 293 294 295 296 296 296 296 295 294 294 294 293 291 291
303 301 300 299 298 297 296 296 295 295 294 294 294 293 293 293 293 293 293 293 293 292 292 293 292 292 292 292 292 292 293 294 294 295 295 294 293 293 292 291 291 291
302 300 299 298 296 296 295 295 295 294 294 294 294 294 294 293 293 293 293 293 292 292 292 292 292 292 292 292 292 292 292 292 292 292 293 292 292 292 291 291 291 291
301 299 297 296 295 295 295 295 294 294 294 294 294 294 294 293 293 293 292 292 292 292 292 292 292 292 292 291 291 291 291 292 291 292 292 291 291 291 291 291 291 291
299 298 296 295 295 295 295 295 294 294 294 294 294 294 293 293 293 292 292 292 292 292 292 292 292 292 292 291 291 291 291 291 291 291 291 291 291 291 291 291 291 291

ECMWFNIL_850_thetae_105.txt.gz
Theta_e
329 328 327 326 325 324 323 322 321 321 318 313 310 309 308 307 306 305 304 304 303 302 302 301 300 300 299 299 299 299 299 298 298 298 297 297 297 296 296 296 296 296
328 327 326 325 324 323 322 322 320 320 317 310 307 307 306 305 304 302 302 302 301 300 300 299 299 299 299 299 299 299 298 298 298 297 297 296 296 296 296 296 295 295
327 326 325 324 324 322 322 321 319 318 315 307 304 304 303 303 302 301 301 300 299 299 299 299 299 299 299 298 298 298 297 297 297 296 296 296 296 295 295 295 295 295
326 325 324 323 322 321 321 320 318 317 312 304 302 302 301 301 301 300 300 299 298 298 298 298 298 298 298 298 298 298 297 296 296 296 296 296 295 295 295 294 295 294
325 324 322 322 321 320 319 318 316 315 310 302 300 301 300 300 300 299 299 298 298 298 298 298 298 298 298 297 297 297 296 296 296 295 296 295 295 295 295 294 294 294
322 321 321 320 319 319 318 316 315 314 307 301 300 299 299 299 299 298 298 298 298 298 298 298 298 297 297 297 297 297 296 295 295 295 295 295 295 294 295 294 294 294
321 320 319 318 318 317 316 315 314 310 303 300 299 298 298 298 298 298 298 297 298 297 297 297 297 297 297 296 296 296 296 295 295 295 295 294 294 294 294 294 294 294
319 318 318 317 316 316 315 315 313 306 301 299 299 298 298 297 297 297 297 297 297 297 297 297 297 297 296 296 296 296 296 295 294 295 295 294 294 294 294 294 294 294
317 317 317 316 315 314 314 313 309 302 299 299 298 298 297 297 297 297 297 297 297 296 297 296 296 296 296 296 296 296 295 295 294 294 294 294 294 294 293 293 293 293
316 315 315 314 314 313 312 310 304 299 299 299 298 298 297 296 297 296 297 297 296 296 296 296 296 296 296 296 295 295 295 295 295 294 294 294 293 293 293 293 293 293
314 313 313 313 312 311 310 306 301 299 299 299 298 297 297 296 296 296 296 296 296 296 296 296 296 295 295 295 295 296 295 295 294 294 294 293 293 293 293 293 293 292
312 311 311 311 310 309 306 302 299 299 299 298 297 297 296 296 296 296 296 296 295 295 295 295 295 296 295 295 295 296 296 295 294 294 293 293 293 293 292 292 292 292
310 309 309 309 308 306 302 300 299 299 299 298 297 296 296 295 295 296 295 295 295 295 295 295 295 295 295 295 296 296 295 295 294 294 293 293 293 293 293 292 292 291
309 308 307 307 307 304 301 299 299 299 298 297 297 296 295 295 295 295 295 295 295 295 295 295 295 295 295 296 296 295 295 295 294 294 294 294 293 294 294 293 292 292
310 309 308 307 305 303 301 300 299 299 298 297 297 295 295 295 295 295 295 295 295 295 295 294 294 295 295 296 296 295 295 295 295 295 295 294 294 294 295 294 293 292
309 309 308 307 305 303 302 301 299 298 297 297 296 295 295 294 295 295 294 295 295 295 295 294 294 295 295 296 296 295 295 295 295 295 295 295 294 295 295 295 293 292
309 309 309 307 305 303 302 301 299 298 297 297 296 295 294 294 294 294 294 294 294 295 294 294 294 295 295 295 295 295 295 295 295 295 295 295 295 295 295 295 294 292
310 310 309 307 305 303 301 300 299 298 297 297 296 295 294 294 294 294 294 294 294 294 294 294 294 294 295 295 295 294 295 296 296 296 296 296 296 295 295 295 293 292
310 309 307 305 303 302 301 299 298 297 297 296 296 295 294 294 294 294 294 294 294 294 294 294 294 294 294 295 295 295 295 296 296 297 296 295 295 295 295 294 293 291
310 308 306 304 303 302 301 300 298 297 297 297 295 294 294 294 294 294 294 294 294 294 294 294 294 294 294 294 295 295 295 296 296 296 296 295 295 295 295 294 292 291
309 308 306 304 303 302 302 300 298 297 297 297 296 294 294 294 294 294 294 294 294 294 294 294 294 294 294 294 295 295 295 295 295 295 295 295 294 294 294 293 292 291
309 307 306 304 303 302 301 300 298 298 298 298 296 294 294 294 294 294 294 294 294 294 294 294 294 293 294 294 294 294 294 294 294 294 294 294 294 294 293 292 291 291
309 307 305 304 302 302 301 299 298 298 298 297 296 294 293 293 293 294 294 294 294 294 294 293 293 293 293 293 293 293 293 293 293 294 294 294 294 293 293 292 291 291
309 307 305 304 302 301 300 299 299 299 298 297 296 294 293 293 293 294 294 294 294 294 293 293 293 293 293 292 292 292 292 292 292 293 293 293 293 292 292 291 291 291
309 307 305 304 302 301 300 299 299 298 297 297 295 293 293 293 293 294 294 293 293 293 293 292 293 293 293 292 292 292 292 292 292 292 292 292 292 291 291 291 291 291
309 307 306 304 302 301 300 299 299 298 297 296 295 293 293 293 293 293 293 293 293 293 293 292 292 292 292 292 292 292 292 292 291 291 291 291 291 291 291 290 291 291

ECMWFNIL_850_thetae_108.txt.gz
Theta_e
330 329 329 330 330 329 327 325 324 323 322 322 319 315 312 310 308 306 305 303 302 301 300 299 299 299 299 299 298 299 299 299 300 299 299 299 299 298 298 298 297 296
329 330 330 330 329 327 325 324 324 322 321 319 316 311 309 307 305 303 302 301 300 300 299 299 299 298 298 298 298 299 299 299 299 299 298 299 298 298 297 297 296 296
330 330 330 329 327 326 325 324 322 320 319 316 311 307 306 305 303 301 300 300 299 299 298 298 298 298 298 298 298 298 299 299 299 298 298 298 297 297 296 296 295 295
330 330 328 327 326 325 324 322 321 319 317 313 308 304 304 302 301 300 300 299 298 298 298 298 298 298 298 298 298 298 298 298 298 297 297 297 297 296 296 295 295 295
329 328 327 326 324 323 322 321 319 317 315 311 305 302 302 301 300 300 299 299 298 298 298 298 298 298 297 298 298 298 298 298 298 297 297 297 296 295 295 295 295 295
328 327 325 324 323 322 320 319 317 315 314 309 302 301 301 300 300 299 299 298 298 298 298 297 297 297 297 297 297 297 297 297 297 296 296 296 295 295 295 294 294 294
327 325 324 322 321 320 319 317 315 314 312 306 301 300 300 299 299 299 298 298 298 298 297 297 297 297 297 297 297 297 297 296 296 296 296 295 295 295 295 294 294 294
325 323 322 321 319 318 317 315 314 313 310 304 300 299 299 299 298 298 298 298 297 297 297 297 297 297 297 297 296 297 296 296 296 295 295 295 295 295 294 294 294 294
323 321 320 319 318 317 316 314 313 312 307 302 299 298 298 298 298 298 298 297 297 297 296 296 296 296 296 296 296 296 296 296 295 295 295 295 294 294 294 294 293 293
321 320 319 318 316 315 314 313 313 310 304 300 299 298 297 298 298 297 297 297 296 296 296 296 296 296 296 296 296 295 295 295 295 295 295 294 294 294 293 293 293 293
320 319 317 317 315 314 312 312 311 308 302 299 299 298 297 297 297 297 297 296 296 296 296 296 296 296 296 296 296 295 295 295 295 294 294 294 294 293 293 293 293 293
319 317 316 315 314 313 312 311 309 304 299 298 299 298 297 297 297 296 296 296 296 296 295 295 295 296 295 295 296 295 295 295 294 294 293 293 293 293 293 293 292 293
318 315 314 314 313 312 311 309 306 301 299 299 299 298 297 297 296 296 295 295 295 295 295 295 295 295 295 296 296 295 295 294 294 294 293 293 293 293 293 293 293 293
316 314 313 312 311 310 309 307 303 300 299 300 299 298 297 296 295 295 295 295 295 295 295 295 295 295 295 296 296 295 295 294 294 294 294 293 293 293 293 293 292 292
315 313 312 310 310 309 307 304 301 300 300 299 298 298 296 295 295 295 295 295 295 294 294 294 295 295 295 296 295 295 295 295 295 294 294 293 293 293 293 293 292 292
314 312 310 309 308 308 305 302 300 300 300 299 298 297 296 294 294 294 294 294 294 294 294 294 294 295 295 295 295 295 295 295 295 294 294 294 293 293 293 293 292 292
313 311 310 308 308 307 305 302 301 300 299 298 297 296 295 294 294 294 294 294 294 294 294 294 294 295 295 295 295 294 295 295 295 295 294 294 294 293 293 292 292 292
313 311 310 308 307 306 304 302 301 300 299 297 297 296 294 294 294 294 294 294 294 294 294 294 294 295 295 295 295 294 295 295 296 295 294 294 294 293 292 292 292 291
313 312 310 308 307 305 303 302 301 299 298 297 297 296 294 294 294 294 294 294 294 294 294 294 294 295 295 295 294 294 295 296 296 295 294 293 293 292 292 292 291 291
313 312 310 308 307 306 304 302 300 299 298 297 297 296 294 294 294 294 294 294 294 294 294 293 294 294 295 294 294 294 295 295 295 295 294 293 292 292 292 291 291 291
313 312 310 309 308 306 304 302 300 299 298 297 297 296 294 294 294 294 294 294 294 294 294 293 294 294 294 294 294 294 294 294 294 294 294 293 292 292 292 291 291 291
313 312 310 309 308 306 304 301 300 299 298 297 297 295 294 294 294 294 294 294 294 294 294 293 294 294 294 294 294 294 294 294 294 293 293 293 292 292 292 291 291 291
313 312 310 309 308 305 303 301 301 300 299 297 297 296 294 294 294 294 294 294 294 294 294 294 293 294 294 294 294 294 293 293 293 293 293 293 292 292 292 291 291 291
313 311 310 309 307 305 303 302 302 300 299 298 297 296 295 294 294 294 293 294 293 293 293 293 293 293 293 293 293 293 293 293 293 292 292 292 292 292 291 291 291 291
312 311 310 309 307 305 304 303 302 300 299 298 298 296 294 293 294 293 293 293 293 293 293 293 293 293 293 293 293 293 293 293 293 292 292 292 292 292 291 291 291 291
312 311 310 309 307 306 304 303 302 300 299 299 298 296 294 293 293 293 293 293 293 293 293 293 293 293 293 293 293 293 293 293 292 292 292 292 292 291 291 291 291 291

ECMWFNIL_850_thetae_111.txt.gz
Theta_e
332 331 331 329 328 328 328 328 327 326 325 324 322 321 318 314 310 308 305 303 301 300 299 299 299 298 299 299 298 299 299 299 300 299 299 299 299 299 299 299 298 298
331 331 330 328 328 328 329 328 326 325 323 321 320 317 314 310 308 305 303 301 300 299 298 298 298 298 298 298 298 298 299 299 299 299 299 299 299 299 298 298 298 297
330 329 328 328 328 329 328 326 325 323 321 319 317 313 310 307 305 303 301 300 299 298 298 298 298 298 298 298 298 298 298 299 299 298 298 298 298 298 298 297 297 297
330 329 328 329 329 328 326 325 324 321 319 317 314 310 307 305 303 301 300 299 299 298 298 298 297 297 297 297 297 298 298 298 298 298 298 298 298 297 297 296 296 296
330 328 329 330 329 327 325 324 322 320 318 315 310 306 305 303 301 300 299 299 298 298 298 298 297 297 297 297 297 297 297 298 298 297 297 297 297 297 296 295 295 295
329 329 330 329 327 326 324 323 321 318 316 312 307 304 303 301 300 299 299 298 298 298 298 297 297 297 297 296 297 297 297 297 297 296 296 297 296 296 295 295 294 295
329 330 329 327 326 325 323 321 319 317 315 310 304 302 302 300 299 299 299 299 298 298 298 297 296 296 296 296 296 297 297 297 296 296 296 296 295 295 295 294 294 294
330 329 327 326 325 323 321 319 317 315 313 308 302 301 300 299 299 299 298 299 299 298 298 297 296 296 296 296 296 296 296 296 296 295 295 295 295 295 294 294 294 294
329 328 326 325 323 322 320 318 316 315 311 305 301 300 299 299 299 298 298 299 299 298 297 296 296 296 296 296 295 296 296 296 296 295 295 295 295 294 294 294 294 294
327 327 326 324 322 321 319 316 315 314 309 303 300 299 298 298 298 298 298 298 298 297 296 296 296 296 296 296 295 295 295 295 295 295 295 294 294 294 294 293 294 293
327 326 324 323 321 320 317 315 314 312 307 301 299 298 298 298 298 298 298 297 297 297 296 296 296 296 296 295 295 295 295 295 295 294 294 294 294 294 293 293 293 293
326 325 323 322 320 318 316 313 313 311 305 300 299 298 297 297 298 298 297 297 296 296 296 296 295 295 295 295 295 295 295 294 294 294 294 294 293 293 294 293 293 293
326 324 323 321 319 317 314 312 312 309 303 299 299 298 297 297 297 297 297 296 296 296 296 295 295 295 295 295 295 295 294 294 294 294 294 293 293 293 294 293 293 293
325 323 321 319 317 315 313 312 311 307 301 298 299 298 297 297 296 296 296 296 296 296 295 295 295 295 295 295 295 295 294 294 294 294 293 293 293 293 293 293 293 293
324 322 319 317 315 314 312 311 309 304 300 299 299 298 297 297 296 296 295 295 296 295 295 295 295 295 295 296 296 295 294 294 294 294 293 293 293 293 293 293 293 293
322 320 318 316 314 313 312 310 307 302 299 299 299 298 297 296 296 295 295 295 295 295 295 295 295 295 295 296 295 295 295 295 294 294 293 293 293 293 293 293 293 293
321 319 317 315 313 311 310 309 305 301 300 300 299 298 296 295 295 295 295 294 294 294 294 294 295 295 295 295 295 295 295 295 295 294 293 293 293 293 293 293 293 293
320 319 317 315 312 310 309 307 304 301 300 300 299 298 296 295 294 295 295 294 294 294 294 294 294 295 295 295 295 295 295 295 295 294 293 293 293 293 293 293 293 292
321 320 318 314 311 309 308 305 302 301 301 300 299 298 296 295 295 295 294 294 294 294 294 294 294 295 295 295 294 294 295 296 295 294 293 293 292 292 293 293 292 292
321 320 317 314 310 308 307 305 302 301 301 300 298 297 295 295 295 294 294 294 294 294 294 294 294 294 295 295 294 295 296 296 295 294 293 292 292 292 292 292 292 292
321 319 317 313 310 308 307 305 303 302 301 299 298 297 295 294 294 294 294 294 294 294 294 294 294 294 295 295 294 295 296 296 295 295 294 292 292 292 292 292 292 292
320 318 316 313 310 308 306 304 303 302 301 299 298 297 296 294 294 294 294 294 294 294 294 294 294 294 294 295 294 295 295 295 295 294 294 293 292 292 292 292 292 292
318 317 315 313 310 308 306 304 303 302 301 299 298 297 296 294 294 294 294 294 294 294 294 293 293 294 294 294 294 295 295 295 294 294 293 293 292 292 292 292 292 292
317 315 315 313 311 309 307 305 303 302 301 298 297 297 295 294 294 294 293 293 293 294 293 293 293 294 294 294 294 294 294 294 294 293 293 293 292 292 292 292 292 292
317 315 314 313 311 310 308 306 303 302 300 298 297 296 295 294 294 293 293 293 293 293 293 293 293 294 294 294 294 294 294 293 293 293 293 292 292 292 292 292 292 293
316 314 313 313 311 310 308 306 303 301 301 298 297 297 295 294 293 293 293 293 293 293 293 293 293 293 294 294 294 293 292 292 292 292 292 292 292 292 292 293 293 293

ECMWFNIL_850_thetae_114.txt.gz
Theta_e
333 332 331 331 331 329 328 328 327 326 325 324 324 323 322 319 314 310 307 305 303 301 300 299 299 299 299 299 299 299 299 299 299 299 299 299 299 299 299 298 298 298
332 332 331 331 329 328 328 328 327 326 324 323 322 320 318 315 311 307 305 303 301 300 299 299 299 299 299 298 298 299 299 299 299 299 298 298 298 298 298 298 298 298
332 332 331 330 328 328 328 327 327 325 323 322 320 317 315 311 308 305 303 301 300 299 299 299 298 298 298 298 298 298 298 298 298 298 298 298 298 298 298 297 297 297
332 331 331 329 328 328 328 327 325 324 322 321 318 315 312 308 305 303 301 299 299 298 298 298 298 298 298 298 298 298 298 298 298 298 298 298 297 297 297 297 297 297
331 331 330 329 328 328 327 325 324 323 321 319 316 312 309 306 303 301 300 299 298 298 298 298 298 298 297 297 298 298 298 298 297 297 297 297 297 297 297 296 296 297
331 330 329 328 328 328 326 325 323 322 321 317 313 309 306 304 301 299 299 298 298 298 298 298 297 297 297 297 297 298 297 297 297 297 297 297 297 297 296 296 296 296
331 330 328 328 328 327 325 324 323 321 319 315 310 306 304 302 300 299 298 298 298 297 297 297 297 297 297 297 297 297 297 297 296 296 296 297 296 296 296 296 296 295
331 329 328 328 328 326 325 324 322 320 318 312 307 304 302 300 299 298 298 298 297 297 297 297 297 297 297 297 296 297 297 296 296 296 296 296 296 296 295 295 295 295
330 329 329 329 328 326 324 323 320 319 316 309 304 303 301 300 299 298 298 298 297 297 297 297 297 297 296 296 296 296 296 296 296 296 296 296 296 295 295 295 295 294
330 329 329 328 327 325 323 321 319 318 314 307 302 302 300 299 299 298 298 298 297 297 296 296 297 296 296 296 295 296 296 296 296 296 296 295 295 295 295 294 294 294
329 330 329 327 326 325 323 321 319 317 312 304 301 301 299 299 298 298 298 297 297 296 296 296 296 296 295 295 295 295 295 296 296 296 295 295 295 294 294 294 293 293
329 329 328 326 326 324 323 320 318 316 310 303 300 300 299 298 298 298 298 297 296 296 296 296 296 295 295 295 295 295 295 295 295 295 295 294 294 294 293 293 293 293
329 329 327 326 325 323 322 319 317 315 308 302 300 299 298 298 298 297 298 298 297 297 296 296 296 295 295 295 295 295 295 295 295 295 295 294 294 293 293 293 293 293
329 327 326 325 324 322 321 318 316 313 306 301 299 298 297 298 298 297 298 299 299 298 297 297 296 295 295 295 295 295 294 295 294 294 294 294 294 293 293 293 293 293
328 327 325 324 322 321 319 317 315 311 305 300 299 298 297 297 298 297 298 299 299 297 297 296 295 295 295 295 295 294 294 294 294 294 294 293 293 293 293 292 292 293
328 326 324 323 321 320 318 316 314 310 303 300 299 298 297 297 297 297 298 298 298 297 296 295 295 296 295 295 295 295 294 294 294 294 293 293 293 293 292 292 292 292
327 325 323 322 320 319 317 315 313 309 302 299 299 298 297 297 296 297 298 298 297 297 296 295 295 295 295 295 295 295 295 295 294 294 293 294 294 293 293 293 292 292
326 324 323 321 319 317 316 314 313 308 301 299 299 298 297 296 296 297 297 297 297 297 296 295 295 295 296 296 295 295 295 296 296 294 294 295 295 295 296 295 293 292
325 324 322 320 318 317 315 313 312 306 300 299 299 298 297 296 296 297 297 296 296 296 296 295 294 295 296 295 296 295 294 297 298 296 296 297 296 296 297 296 295 295
324 324 322 319 318 317 314 313 311 306 300 299 300 298 297 296 295 296 296 295 296 296 296 295 294 295 296 295 296 295 294 298 300 298 297 298 296 295 296 294 294 296
325 323 321 319 318 316 313 312 310 306 301 300 300 298 297 296 295 295 295 295 295 295 296 296 295 294 295 295 295 295 294 297 300 300 299 299 297 294 295 294 292 294
325 323 321 319 318 316 313 311 309 305 301 300 300 299 298 296 295 295 295 294 295 296 297 297 295 294 296 295 294 295 295 296 300 301 301 300 298 295 294 294 292 293
324 324 321 319 318 316 313 311 309 305 301 300 300 299 298 296 294 294 294 294 295 295 296 296 295 294 295 295 294 295 295 296 300 302 301 301 300 297 295 294 292 293
324 323 320 318 317 315 313 311 309 304 301 300 299 298 297 296 294 294 294 294 294 294 294 295 294 294 295 295 295 295 295 296 299 301 301 302 300 297 296 296 293 292
325 322 319 317 316 314 313 311 308 304 301 300 299 298 297 296 294 293 294 293 293 293 293 294 294 294 294 295 294 294 295 295 296 299 301 300 298 296 295 294 293 292
325 322 320 318 316 314 312 310 307 304 302 301 300 299 299 297 294 293 294 293 293 293 293 293 293 293 294 294 294 294 294 294 297 301 301 297 295 296 295 293 292 293

ECMWFNIL_850_thetae_117.txt.gz
Theta_e
334 333 333 332 331 330 329 328 328 327 326 325 324 323 322 321 319 315 312 309 307 305 302 301 300 300 300 300 300 300 300 300 300 300 299 299 299 299 299 299 299 299
334 333 333 332 331 330 329 328 327 327 326 325 324 323 321 320 318 313 309 307 305 303 301 300 300 300 300 300 299 299 299 299 300 299 299 299 299 299 299 298 298 298
334 333 332 331 331 329 328 327 327 327 325 324 323 321 319 318 315 310 307 305 303 301 300 300 299 299 299 299 299 299 299 299 299 299 299 299 298 298 298 298 298 298
333 332 332 331 330 329 328 328 328 327 325 324 322 319 318 316 312 307 305 303 301 300 299 299 299 299 299 299 299 299 299 299 299 299 298 298 298 298 298 298 298 298
333 332 331 330 329 328 328 328 328 326 323 322 320 318 317 314 309 305 303 301 300 299 299 299 299 299 299 298 299 299 299 298 298 298 298 298 298 298 298 298 297 297
332 331 331 330 329 328 328 328 327 324 322 320 318 317 315 311 306 303 301 299 299 299 299 299 299 298 298 298 299 298 298 298 298 298 298 298 298 297 297 297 297 297
332 331 330 329 328 328 328 328 325 323 322 319 318 316 312 307 304 302 300 299 299 298 298 298 298 298 298 298 298 298 298 298 297 297 297 297 297 297 297 297 297 297
331 330 329 329 328 328 328 327 324 323 320 318 317 314 309 305 303 300 299 298 298 298 298 298 298 298 298 298 298 298 298 297 297 297 297 297 296 296 296 297 296 296
330 329 329 329 328 328 328 326 324 322 319 317 315 311 307 305 302 299 298 298 298 298 298 298 298 298 298 297 297 297 297 297 297 296 296 296 296 296 296 296 296 296
330 330 329 328 328 328 327 325 324 321 318 316 313 309 306 305 302 299 299 298 298 298 298 298 298 298 297 297 297 297 297 297 297 296 296 296 296 295 295 296 296 296
330 330 329 328 328 328 326 325 323 320 317 315 312 308 307 305 302 300 299 297 298 298 298 298 298 297 297 297 297 297 296 296 296 296 296 296 296 296 296 295 295 295
331 330 329 329 329 327 326 324 322 318 316 314 311 309 307 304 302 301 300 298 299 299 298 297 297 297 297 297 297 296 296 296 296 296 296 296 295 295 295 295 295 295
331 330 329 329 328 327 326 323 321 318 315 313 312 309 306 303 303 303 301 302 302 300 300 298 297 297 297 297 297 296 296 296 296 295 295 295 295 295 295 295 295 295
332 330 329 329 328 327 325 323 320 318 315 313 311 310 306 304 305 303 302 305 304 301 301 299 298 298 298 297 298 297 296 295 295 295 296 295 295 295 295 295 295 295
331 329 328 328 327 327 325 323 320 317 314 312 311 308 305 305 305 303 303 306 304 301 301 299 299 300 299 298 299 298 297 296 296 296 295 295 295 295 295 295 295 295
330 328 327 328 327 327 325 322 319 316 314 312 310 307 305 304 305 304 304 306 304 302 301 299 299 300 299 300 300 299 299 298 297 297 296 296 296 296 295 295 294 294
328 327 328 328 327 326 324 321 318 316 313 311 309 308 305 304 305 305 306 306 305 303 302 300 299 299 298 298 299 300 300 299 299 299 298 298 297 296 296 296 295 294
327 328 329 328 327 326 324 320 317 315 313 311 309 307 305 305 306 306 307 307 306 305 303 300 299 299 297 296 297 298 300 301 302 301 300 299 299 298 297 296 296 296
328 329 328 327 327 325 323 320 316 314 312 310 309 306 304 305 306 307 307 306 306 306 304 300 299 297 296 295 296 296 297 302 304 302 301 302 301 300 299 298 297 297
329 329 328 327 326 324 322 319 315 313 312 310 308 305 303 305 307 308 307 305 306 306 305 302 299 296 296 295 296 295 295 300 304 302 302 303 300 299 300 299 298 299
329 328 328 327 325 322 322 319 314 313 312 309 306 304 303 304 306 307 308 306 306 306 306 304 299 296 296 295 296 296 294 299 303 301 299 300 298 296 298 298 296 298
329 328 328 326 324 322 321 319 316 315 312 309 306 305 304 304 305 307 308 307 305 305 306 305 300 295 295 295 295 296 294 297 300 299 298 300 300 297 296 297 296 295
328 329 328 326 324 322 321 318 316 314 312 309 306 304 303 304 305 307 308 306 304 305 306 305 300 295 295 295 295 295 295 295 297 299 301 302 302 299 298 298 296 294
328 328 327 326 324 323 320 318 316 313 312 309 305 302 301 302 303 305 306 305 304 305 306 304 300 295 295 295 295 295 295 294 297 301 302 303 303 302 300 299 297 293
328 328 327 326 324 323 320 317 315 313 311 309 306 302 301 301 301 302 302 302 301 302 303 304 301 295 294 295 294 295 295 294 297 302 303 303 304 304 301 301 300 295
328 328 327 326 324 323 320 317 315 313 311 309 306 303 300 300 301 300 298 298 298 299 301 303 302 296 294 295 294 295 295 294 298 303 304 303 304 303 302 302 300 297

ECMWFNIL_850_thetae_120.txt.gz
Theta_e
334 333 333 333 333 332 332 331 330 329 328 328 327 327 327 327 327 325 322 321 318 314 312 309 307 304 302 302 301 301 301 301 301 301 301 301 300 300 300 300 300 300
333 333 333 332 332 332 332 330 329 328 327 327 326 325 325 326 325 324 322 319 315 311 309 307 304 302 301 301 301 301 301 301 301 300 300 300 300 300 300 300 299 299
333 333 333 333 332 332 331 329 328 327 327 326 325 324 324 324 324 324 321 316 312 309 306 304 302 301 301 301 301 300 300 300 300 300 300 300 299 299 299 299 299 299
332 333 333 333 332 331 329 329 328 327 326 325 324 324 323 322 322 321 317 313 309 307 304 302 301 300 300 300 300 300 300 300 300 300 299 299 299 299 299 299 299 298
333 333 334 332 332 331 329 328 328 327 326 325 324 323 322 321 320 317 313 310 307 305 302 301 300 300 300 300 300 300 300 300 299 299 299 299 299 299 299 298 298 298
334 334 333 332 332 330 329 328 327 327 326 326 325 323 320 319 317 314 310 308 305 302 300 300 300 300 300 300 300 300 299 299 299 299 299 299 298 298 298 298 298 298
334 334 333 332 331 330 329 328 327 327 326 326 325 322 319 317 315 312 308 306 303 300 299 299 300 300 299 299 299 299 299 298 298 298 298 298 298 298 298 297 297 297
333 333 333 332 331 330 328 327 327 326 326 326 324 320 317 315 313 310 306 303 300 299 299 299 299 299 299 299 299 299 299 298 298 298 298 298 297 298 297 297 297 297
333 333 333 332 331 329 327 327 327 326 327 325 321 318 316 314 311 308 304 301 299 299 299 299 299 299 299 299 299 299 298 298 298 298 298 297 297 297 297 297 297 297
333 333 332 331 330 328 326 326 326 327 326 323 319 317 315 313 310 306 302 300 299 298 298 298 299 299 299 299 299 298 298 298 298 298 297 297 297 297 296 297 297 296
332 332 331 331 329 327 326 326 327 327 325 320 318 316 314 312 309 304 301 300 299 298 298 298 299 299 299 299 298 298 298 298 298 297 297 297 297 296 296 296 296 296
332 332 331 330 328 326 327 327 327 327 323 319 317 315 313 311 308 303 301 300 299 298 298 298 299 298 298 298 298 298 298 298 297 297 297 297 297 297 296 296 296 296
332 331 329 329 328 328 328 328 327 326 322 318 316 314 312 310 306 303 301 300 299 299 298 298 298 298 298 298 298 298 298 297 297 297 297 297 297 296 296 296 296 296
331 329 328 328 328 328 328 328 327 324 320 317 316 314 312 309 306 304 302 301 301 300 299 299 298 298 298 298 298 298 297 297 298 298 297 297 297 296 296 296 296 297
330 328 328 328 329 328 328 328 325 321 318 317 315 314 312 309 307 305 303 303 303 302 301 299 298 298 298 298 298 297 298 298 297 297 297 296 297 297 296 296 297 297
329 328 328 329 329 328 328 327 324 320 318 316 315 314 312 309 308 306 304 305 305 303 302 301 299 298 298 298 298 298 297 297 297 297 297 296 296 296 296 296 297 296
328 328 329 330 329 328 328 326 323 319 317 315 315 314 312 309 309 307 306 306 306 304 303 301 300 299 299 298 298 298 297 297 297 296 296 296 296 296 296 296 296 296
328 329 330 330 329 328 327 325 322 319 317 315 315 314 312 310 309 308 307 307 307 305 303 301 300 300 299 299 299 298 297 297 296 296 296 296 295 295 296 296 296 296
329 331 330 329 329 328 326 324 322 320 317 315 314 313 311 310 309 308 307 307 307 306 304 302 300 300 299 299 299 299 298 297 296 296 296 296 296 296 296 296 295 296
331 331 330 329 329 328 326 324 322 319 317 315 314 313 311 310 309 308 308 308 307 307 305 303 301 300 299 299 299 299 298 298 298 297 296 297 297 297 297 296 295 296
331 330 329 329 327 326 326 323 320 319 318 315 314 312 311 310 309 308 309 308 308 308 307 305 302 301 300 299 298 298 297 299 301 300 299 301 301 300 299 298 298 299
330 329 328 327 326 326 327 323 320 319 318 315 313 312 311 310 309 309 309 309 309 309 308 307 305 303 301 299 297 296 297 300 302 302 302 303 302 301 301 300 299 300
328 327 326 325 325 327 328 324 320 319 317 314 312 312 311 310 309 309 309 309 309 309 309 308 306 303 301 298 296 295 296 299 302 303 302 303 302 299 298 299 297 297
327 326 325 325 326 328 328 324 320 318 317 314 312 312 311 309 309 309 309 309 308 308 308 307 304 300 299 297 296 295 296 298 301 302 302 303 303 300 297 298 298 296
326 326 327 328 328 328 327 324 320 318 317 314 313 312 311 309 309 308 309 309 307 305 305 305 301 299 298 297 295 295 295 296 298 301 303 303 304 302 299 299 300 297
326 327 328 328 328 328 327 324 321 320 317 315 313 312 310 309 307 306 307 308 305 302 303 303 301 299 298 297 295 295 296 295 296 301 304 303 303 304 303 301 300 298

ECMWFNIL_850_thetae_123.txt.gz
Theta_e
335 334 333 332 332 332 332 332 331 331 331 330 329 328 328 328 327 327 327 325 323 320 318 316 314 312 311 310 308 305 303 302 302 302 302 302 302 302 301 301 301 301
335 334 334 333 333 333 332 331 330 330 330 329 328 328 328 328 328 328 327 325 322 319 316 314 313 312 311 308 305 303 302 302 302 302 302 302 301 301 301 301 301 301
335 335 335 334 334 333 332 331 331 330 330 329 328 328 327 327 328 327 327 325 321 318 315 313 312 311 309 306 303 302 302 302 301 301 301 301 301 301 301 301 300 300
335 335 335 335 333 333 332 331 331 330 329 328 328 327 326 326 326 326 326 324 321 317 315 313 311 309 306 303 302 301 301 301 301 301 301 301 301 301 300 300 300 300
335 335 335 334 332 332 332 331 330 329 328 328 327 326 326 325 325 325 325 325 322 318 315 312 310 307 304 301 301 301 301 301 301 301 301 301 301 300 300 300 299 299
335 335 334 333 331 332 332 331 330 328 328 327 326 326 325 324 324 325 325 325 322 318 314 311 308 305 302 301 301 301 301 301 301 300 300 300 300 300 299 299 299 299
335 335 334 332 331 331 331 330 329 328 328 327 326 326 325 325 326 326 325 323 320 315 312 309 306 303 301 301 300 301 301 300 300 300 300 300 300 299 299 299 299 299
336 335 333 332 332 331 331 329 329 328 328 327 326 326 325 326 327 325 323 320 316 312 309 306 304 301 301 300 300 300 300 300 300 300 300 300 299 299 299 299 299 298
337 335 333 332 332 331 330 329 329 329 328 327 326 326 326 327 326 323 319 316 313 309 306 303 301 300 300 300 300 300 300 300 300 300 300 299 299 299 299 299 298 298
336 334 333 333 332 331 330 329 329 329 328 327 326 326 327 327 324 320 316 314 311 308 304 302 300 300 300 300 300 300 300 300 300 299 299 299 299 299 299 298 298 298
335 334 333 333 332 331 330 330 329 329 328 327 326 326 327 326 322 317 314 312 309 306 303 301 300 300 300 300 299 299 299 300 300 299 299 299 299 299 298 298 298 298
334 334 334 333 332 331 331 330 330 329 327 327 326 327 326 323 319 314 312 310 307 304 302 300 299 299 299 299 299 299 299 299 299 299 299 298 299 298 298 298 298 298
335 334 334 333 332 332 331 330 330 328 327 327 326 326 325 321 317 314 310 307 304 302 300 299 299 299 299 299 299 299 299 299 299 299 299 299 298 298 298 298 298 298
335 334 333 333 332 332 331 330 329 328 327 327 326 326 324 319 315 313 308 305 303 301 300 299 299 299 299 299 299 299 299 299 299 299 299 298 298 298 298 298 298 298
334 334 333 332 332 331 330 330 329 327 327 326 326 326 322 316 313 311 307 304 302 301 300 299 299 299 299 298 299 299 299 299 299 299 298 298 298 298 298 298 298 298
334 333 332 332 331 330 330 329 328 327 326 326 326 325 320 315 312 310 306 304 303 301 301 299 299 299 298 298 299 299 299 299 299 298 298 298 298 298 298 298 298 297
333 332 331 331 330 330 330 329 328 326 326 326 326 323 318 314 312 309 306 304 303 302 301 300 300 299 298 298 298 298 299 298 298 298 298 298 298 298 298 298 297 297
332 331 331 331 330 330 330 328 327 326 326 326 325 321 316 314 311 309 306 304 303 303 303 302 301 301 300 299 298 298 298 298 298 298 298 298 298 298 298 297 297 297
331 331 331 331 330 330 329 327 326 326 326 326 324 320 316 314 311 309 306 305 304 305 304 304 303 302 301 300 299 299 299 298 298 297 297 297 297 297 297 297 297 297
331 331 331 331 330 330 328 326 326 326 326 326 324 319 315 314 311 309 307 306 306 306 305 305 304 302 301 301 301 300 300 298 297 297 297 297 297 297 297 297 296 296
331 331 331 331 330 328 327 325 325 326 326 326 324 319 316 314 311 309 308 307 307 307 307 306 304 303 302 302 302 301 300 299 298 297 296 297 296 297 297 296 296 296
332 332 331 330 329 327 326 326 326 326 326 326 324 319 316 314 312 310 309 308 308 308 307 307 305 304 302 302 302 301 300 299 299 298 297 297 296 296 296 296 296 296
332 331 331 330 328 326 325 326 327 327 326 326 324 319 316 314 312 311 310 309 309 309 308 307 306 304 302 302 301 300 299 299 299 298 298 297 297 297 297 297 297 296
332 331 330 329 327 325 325 327 327 327 326 326 324 320 316 314 312 311 310 309 309 309 308 307 306 304 302 302 301 300 299 298 298 299 299 299 299 299 299 299 298 297
331 330 329 328 326 326 326 327 328 326 325 325 324 320 317 314 312 311 310 310 309 309 308 307 307 305 303 302 301 300 299 298 298 299 300 300 300 300 300 300 299 298
330 329 328 328 327 327 327 328 328 325 323 322 322 320 317 315 312 311 311 310 309 309 308 307 306 305 304 302 301 299 298 298 298 299 299 300 300 300 300 300 298 297